[[{"header":{"parameterUnit":"m.s-1","parameterCategory":1,"la1":31.0,"la2":29.5877,"lo1":-88.7671,"lo2":-86.6584,"dy":0.0162,"dx":0.0185,"nx":115,"ny":88,"refTime":"2024-07-12T00:00:00:Z","depth":0,"parameterNumber":2,"parameterNumberName":"U-component_of_WINDS"},"data":[0.0,0.0,0.0,0.0,0.0,0.0,0.0,0.0,0.0,0.0,0.0,0.0,0.0,0.0,0.0,0.0,0.0,0.0,0.0,0.0,0.0,0.0,0.0,0.0,0.0,0.0,0.0,0.0,0.0,0.0,0.0,0.0,0.0,0.0,0.0,0.0,0.0,0.0,0.0,0.0,0.0,0.0,0.0,0.0,0.0,0.0,0.0,0.0,0.0,0.0,0.0,0.0,0.0,0.0,0.0,0.0,0.0,0.0,0.0,0.0,0.0,0.0,0.0,0.0,0.0,0.0,0.0,0.0,0.0,0.0,0.0,0.0,0.0,0.0,0.0,0.0,0.0,0.0,0.0,0.0,0.0,0.0,0.0,0.0,0.0,0.0,0.0,0.0,0.0,0.0,0.0,0.0,0.0,0.0,0.0,0.0,0.0,0.0,0.0,0.0,0.0,0.0,0.0,0.0,0.0,0.0,0.0,0.0,0.0,0.0,0.0,0.0,0.0,0.0,0.0,0.0,0.0,0.0,0.0,0.0,0.0,0.0,0.0,0.0,0.0,0.0,0.0,0.0,0.0,0.0,0.0,0.0,0.0,0.0,0.0,0.0,0.0,0.0,0.0,0.0,0.0,0.0,0.0,0.0,0.0,0.0,0.0,0.0,0.0,0.0,0.0,0.0,0.0,0.0,0.0,0.0,0.0,0.0,0.0,0.0,0.0,0.0,0.0,0.0,0.0,0.0,0.0,0.0,0.0,0.0,0.0,0.0,0.0,0.0,0.0,0.0,0.0,0.0,0.0,0.0,0.0,0.0,0.0,0.0,0.0,0.0,0.0,0.0,0.0,0.0,0.0,0.0,0.0,0.0,0.0,0.0,0.0,0.0,0.0,0.0,0.0,0.0,0.0,0.0,0.0,0.0,0.0,0.0,0.0,0.0,0.0,0.0,0.0,0.0,0.0,0.0,0.0,0.0,0.0,0.0,0.0,0.0,0.0,0.0,0.0,0.0,0.0,0.0,0.0,0.0,0.0,0.0,0.0,0.0,0.0,0.0,0.0,0.0,0.0,0.0,0.0,0.0,0.0,0.0,0.0,0.0,0.0,0.0,0.0,0.0,0.0,0.0,0.0,0.0,0.0,0.0,0.0,0.0,0.0,0.0,0.0,0.0,0.0,0.0,0.0,0.0,0.0,0.0,0.0,0.0,0.0,0.0,0.0,0.0,0.0,0.0,0.0,0.0,0.0,0.0,0.0,0.0,0.0,0.0,0.0,0.0,0.0,0.0,0.0,0.0,0.0,0.0,0.0,0.0,0.0,0.0,0.0,0.0,0.0,0.0,0.0,0.0,0.0,0.0,0.0,0.0,0.0,0.0,0.0,0.0,0.0,0.0,0.0,0.0,0.0,0.0,0.0,0.0,0.0,0.0,0.0,0.0,0.0,0.0,0.0,0.0,0.0,0.0,0.0,0.0,0.0,0.0,0.0,0.0,0.0,0.0,0.0,0.0,0.0,0.0,0.0,0.0,0.0,0.0,0.0,0.0,0.0,0.0,0.0,0.0,0.0,0.0,0.0,0.0,0.0,0.0,0.0,0.0,0.0,0.0,0.0,0.0,0.0,0.0,0.0,0.0,0.0,0.0,0.0,0.0,0.0,0.0,0.0,0.0,0.0,0.0,0.0,0.0,0.0,0.0,0.0,0.0,0.0,0.0,0.0,0.0,0.0,0.0,0.0,0.0,0.0,0.0,0.0,0.0,0.0,0.0,0.0,0.0,0.0,0.0,0.0,0.0,0.0,0.0,0.0,0.0,0.0,0.0,0.0,0.0,0.0,0.0,0.0,0.0,0.0,0.0,0.0,0.0,0.0,0.0,0.0,0.0,0.0,0.0,0.0,0.0,0.0,0.0,0.0,0.0,0.0,0.0,0.0,0.0,0.0,0.0,0.0,0.0,0.0,0.0,0.0,0.0,0.0,0.0,0.0,0.0,0.0,0.0,0.0,0.0,0.0,0.0,0.0,0.0,0.0,0.0,0.0,0.0,0.0,0.0,0.0,0.0,0.0,0.0,0.0,0.0,0.0,0.0,0.0,0.0,0.0,0.0,0.0,0.0,0.0,0.0,0.0,0.0,0.0,0.0,0.0,0.0,0.0,0.0,0.0,0.0,0.0,0.0,0.0,0.0,0.0,0.0,0.0,0.0,0.0,0.0,0.0,0.0,0.0,0.0,0.0,0.0,0.0,0.0,0.0,0.0,0.0,0.0,0.0,0.0,0.0,0.0,0.0,0.0,0.0,0.0,0.0,0.0,0.0,0.0,0.0,0.0,0.0,0.0,0.0,0.0,0.0,0.0,0.0,0.0,0.0,0.0,0.0,0.0,0.0,0.0,0.0,0.0,0.0,0.0,0.0,0.0,0.0,0.0,0.0,0.0,0.0,0.0,0.0,0.0,0.0,0.0,0.0,0.0,0.0,0.0,0.0,0.0,0.0,0.0,0.0,0.0,0.0,0.0,0.0,0.0,0.0,0.0,0.0,0.0,0.0,0.0,0.0,0.0,0.0,0.0,0.0,0.0,0.0,0.0,0.0,0.0,0.0,0.0,0.0,0.0,0.0,0.0,0.0,0.0,0.0,0.0,0.0,0.0,0.0,0.0,0.0,0.0,0.0,0.0,0.0,0.0,0.0,0.0,0.0,0.0,0.0,0.0,0.0,0.0,0.0,0.0,0.0,0.0,0.0,0.0,0.0,0.0,0.0,0.0,0.0,0.0,0.0,0.0,0.0,0.0,0.0,0.0,0.0,0.0,0.0,0.0,0.0,0.0,0.0,0.0,0.0,0.0,0.0,0.0,0.0,0.0,0.0,0.0,0.0,0.0,0.0,0.0,0.0,0.0,0.0,0.0,0.0,0.0,0.0,0.0,0.0,0.0,0.0,0.0,0.0,0.0,0.0,0.0,0.0,0.0,0.0,0.0,0.0,0.0,0.0,0.0,0.0,0.0,0.0,0.0,0.0,0.0,0.0,0.0,0.0,0.0,0.0,0.0,0.0,0.0,0.0,0.0,0.0,0.0,0.0,0.0,0.0,0.0,0.0,0.0,0.0,0.0,0.0,0.0,0.0,0.0,0.0,0.0,0.0,0.0,0.0,0.0,0.0,0.0,0.0,0.0,0.0,0.0,0.0,0.0,0.0,0.0,0.0,0.0,0.0,0.0,0.0,0.0,0.0,0.0,0.0,0.0,0.0,0.0,0.0,0.0,0.0,0.0,0.0,0.0,0.0,0.0,0.0,0.0,0.0,0.0,0.0,0.0,0.0,0.0,0.0,0.0,0.0,0.0,0.0,0.0,0.0,0.0,0.0,0.0,0.0,0.0,0.0,0.0,0.0,0.0,0.0,0.0,0.0,0.0,0.0,0.0,0.0,0.0,0.0,0.0,0.0,0.0,0.0,0.0,0.0,0.0,0.0,0.0,0.0,0.0,0.0,0.0,0.0,0.0,0.0,0.0,0.0,0.0,0.0,0.0,0.0,0.0,0.0,0.0,0.0,0.0,0.0,0.0,0.0,0.0,0.0,0.0,0.0,0.0,0.0,0.0,0.0,0.0,0.0,0.0,0.0,0.0,0.0,0.0,0.0,0.0,0.0,0.0,0.0,0.0,0.0,0.0,0.0,0.0,0.0,0.0,0.0,0.0,0.0,0.0,0.0,0.0,0.0,0.0,0.0,0.0,0.0,0.0,0.0,0.0,0.0,0.0,0.0,0.0,0.0,0.0,0.0,0.0,0.0,0.0,0.0,0.0,0.0,0.0,0.0,0.0,0.0,0.0,0.0,0.0,0.0,0.0,0.0,0.0,0.0,0.0,0.0,0.0,0.0,0.0,0.0,0.0,0.0,0.0,0.0,0.0,0.0,0.0,0.0,0.0,0.0,0.0,0.0,0.0,0.0,0.0,0.0,0.0,0.0,0.0,0.0,0.0,0.0,0.0,0.0,0.0,0.0,0.0,0.0,0.0,0.0,0.0,0.0,0.0,0.0,0.0,0.0,0.0,0.0,0.0,0.0,0.0,0.0,0.0,0.0,0.0,0.0,0.0,0.0,0.0,0.0,0.0,0.0,0.0,0.0,0.0,0.0,0.0,0.0,0.0,0.0,0.0,0.0,0.0,0.0,0.0,0.0,0.0,0.0,0.0,0.0,0.0,0.0,0.0,0.0,0.0,0.0,0.0,0.0,0.0,0.0,0.0,0.0,0.0,0.0,0.0,0.0,0.0,0.0,0.0,0.0,0.0,0.0,0.0,0.8752,0.0,0.0,0.0,0.0,0.0,0.0,0.0,0.0,0.0,0.0,0.0,0.0,0.0,0.0,0.0,0.0,0.0,0.0,0.0,0.0,0.0,0.0,0.0,0.0,0.0,0.0,0.0,0.0,0.0,0.0,0.0,0.0,0.0,0.0,0.0,0.0,0.0,0.0,0.0,0.0,0.0,0.0,0.0,0.0,0.0,0.0,0.0,0.0,0.0,0.0,0.0,0.0,0.0,0.0,0.0,0.0,0.0,0.0,0.0,0.0,0.0,0.0,0.0,0.0,0.0,0.0,0.0,0.0,0.0,0.0,0.0,0.0,0.0,0.0,0.0,0.0,0.0,0.0,0.0,0.0,0.0,0.0,0.0,0.0,0.0,0.0,0.0,0.0,0.0,0.0,0.0,0.0,0.0,0.0,0.0,0.0,0.0,0.0,0.0,0.0,0.0,0.0,0.0,0.0,0.0,0.0,0.0,0.0,0.0,0.0,1.0632,1.0705,0.9818,0.9206,0.89,0.0,0.0,0.0,0.0,0.0,0.0,0.0,0.0,0.0,0.0,0.0,0.0,0.0,0.0,0.0,0.0,0.0,0.0,0.0,0.0,0.0,0.0,0.0,0.0,0.0,0.0,0.0,0.0,0.0,0.0,0.0,0.0,0.0,0.0,0.0,0.0,0.0,0.0,0.0,0.0,0.0,0.0,0.0,0.0,0.0,0.0,0.0,0.0,0.0,0.0,0.0,0.0,0.0,0.0,0.0,0.0,0.0,0.0,0.0,0.0,0.0,0.0,0.0,0.0,0.0,0.0,0.0,0.0,0.0,0.0,0.0,0.0,0.0,0.0,0.0,0.0,0.0,0.0,0.0,0.0,0.0,0.0,0.0,0.0,0.0,0.0,0.0,0.0,0.0,0.0,0.0,0.0,0.0,0.0,0.0,0.0,0.0,0.0,0.0,0.0,0.0,0.0,0.0,0.0,0.0,0.0,0.0,0.0,0.0,0.0,0.0,0.0,0.9898,0.9254,0.8954,0.0,0.0,0.0,0.0,0.0,0.0,0.0,0.0,0.0,0.0,0.0,0.0,0.0,0.0,0.0,0.0,0.0,0.0,0.0,0.0,0.0,0.0,0.0,0.0,0.0,0.0,0.0,0.0,0.0,0.0,0.0,0.0,0.0,0.0,0.0,0.0,0.0,0.0,0.0,0.0,0.0,0.0,0.0,0.0,0.0,0.0,0.0,0.0,0.0,0.0,0.0,0.0,0.0,0.0,0.0,0.0,0.0,0.0,0.0,0.0,0.0,0.0,0.0,0.0,0.0,0.0,0.0,0.0,0.0,0.0,0.0,0.0,0.0,0.0,0.0,0.0,0.0,0.0,0.0,0.0,0.0,0.0,0.0,0.0,0.0,0.0,0.0,0.0,0.0,0.0,0.0,0.0,0.0,0.0,0.0,0.0,0.0,0.0,0.0,0.0,0.0,0.0,0.0,0.0,0.0,0.0,0.0,0.0,0.0,0.0,1.0944,1.1062,1.0936,0.0,0.9198,0.0,0.0,0.0,0.0,0.0,0.0,0.0,0.0,0.0,0.0,0.0,0.0,0.0,0.0,0.0,0.0,0.0,0.0,0.0,0.0,0.0,0.0,0.0,0.0,0.0,0.0,0.0,0.0,0.0,0.0,0.0,0.0,0.0,0.0,0.0,0.0,0.0,0.0,0.0,0.0,0.0,0.0,0.0,0.0,0.0,0.0,0.0,0.0,0.0,0.0,0.0,0.0,0.0,0.0,0.0,0.0,0.0,0.0,0.0,0.0,0.0,0.0,0.0,0.0,0.0,0.0,0.0,0.0,0.0,0.0,0.0,0.0,0.0,0.0,0.0,0.0,0.0,0.0,0.0,0.0,0.0,0.0,0.0,0.0,0.0,0.0,0.0,0.0,0.0,0.0,0.0,0.0,0.0,0.0,0.0,0.0,0.0,0.0,0.0,0.0,0.0,0.0,0.0,0.0,0.0,0.0,0.0,0.0,0.0,0.0,1.1038,1.1099,1.0404,0.9582,0.0,0.0,0.0,0.0,0.0,0.0,0.0,0.0,0.0,0.0,0.0,0.0,0.0,0.0,0.0,0.0,0.0,0.0,0.0,0.0,0.0,0.0,0.0,0.0,0.0,0.0,0.0,0.0,0.0,0.0,0.0,0.0,0.0,0.0,0.0,0.0,0.0,0.0,0.0,0.0,0.0,0.0,0.0,0.0,0.0,0.0,0.0,0.0,0.0,0.0,0.0,0.0,0.0,0.0,0.0,0.0,0.0,0.0,0.0,0.0,0.0,0.0,0.0,0.0,0.0,0.0,0.0,0.0,0.0,0.0,0.0,0.0,0.0,0.0,0.0,0.0,0.0,0.0,0.0,0.0,0.0,0.0,0.0,0.0,0.0,0.0,0.0,0.0,0.0,0.0,0.0,0.0,0.0,0.0,0.0,0.0,0.0,0.0,0.0,0.0,0.0,0.0,0.0,0.0,0.0,0.0,0.0,0.0,0.0,0.0,1.1099,0.0,1.0841,1.0165,0.932,0.8349,0.0,0.0,0.0,0.0,0.0,0.0,0.0,0.0,0.0,0.0,0.0,0.0,0.0,0.0,0.0,0.0,0.0,0.0,0.0,0.0,0.0,0.0,0.0,0.0,0.0,0.0,0.0,0.0,0.0,0.0,0.0,0.0,0.0,0.0,0.0,0.0,0.0,0.0,0.0,0.0,0.0,0.0,0.0,0.0,0.0,0.0,0.0,0.0,0.0,0.0,0.0,0.0,0.0,0.0,0.0,0.0,0.0,0.0,0.0,0.0,0.0,0.0,0.0,0.0,0.0,0.0,0.0,0.0,0.0,0.0,0.0,0.0,0.0,0.0,0.0,0.0,0.0,0.0,0.0,0.0,0.0,0.0,0.0,0.0,0.0,0.0,0.0,0.0,0.0,0.0,0.0,0.0,0.0,0.0,0.0,0.0,0.0,0.0,0.0,0.0,0.0,0.0,0.0,0.0,0.0,0.0,0.0,0.0,0.0,1.1099,1.0827,1.0306,1.0742,1.0158,0.0,0.0,0.0,0.0,0.0,0.0,0.0,0.0,0.0,0.0,0.0,0.0,0.0,0.0,0.0,0.0,0.0,0.0,0.0,0.0,0.0,0.0,0.0,0.0,0.0,0.0,0.0,0.0,0.0,0.0,0.0,0.0,0.0,0.0,0.0,0.0,0.0,0.0,0.0,0.0,0.0,0.0,0.0,0.0,0.0,0.0,0.0,0.0,0.0,0.0,0.0,0.0,0.0,0.0,0.0,0.0,0.0,0.0,0.0,0.0,0.0,0.0,0.0,0.0,0.0,0.0,0.0,0.0,0.0,0.0,0.0,0.0,0.0,0.0,0.0,0.0,0.0,0.0,0.0,0.0,0.0,0.0,0.0,0.0,0.0,0.0,0.0,0.0,0.0,0.0,0.0,0.0,0.0,0.0,0.0,0.0,0.0,0.0,0.0,0.0,0.0,0.0,0.0,0.0,0.0,0.0,0.0,0.0,0.0,1.108,1.1132,1.107,1.0852,1.0264,0.9608,0.0,0.0,0.0,0.0,0.0,0.0,0.0,0.0,0.0,0.0,0.0,0.0,0.0,0.0,0.0,0.0,0.0,0.0,0.0,0.0,0.0,0.0,0.0,0.0,0.0,0.0,0.0,0.0,0.0,0.0,0.0,0.0,0.0,0.0,0.0,0.0,0.0,0.0,0.0,0.0,0.0,0.0,0.0,0.0,0.0,0.0,0.0,0.0,0.0,0.0,0.0,0.0,0.0,0.0,0.0,0.0,0.0,0.0,0.0,0.0,0.0,0.0,0.0,0.0,0.0,0.0,0.0,0.0,0.0,0.0,0.0,0.0,0.0,0.0,0.0,0.0,0.0,0.0,0.0,0.0,0.0,0.0,0.0,0.0,0.0,0.0,0.0,0.0,0.0,0.0,0.0,0.0,0.0,0.0,0.0,0.0,0.0,0.0,0.0,0.0,0.0,0.0,0.0,0.0,0.0,0.0,0.0,0.0,0.0,1.0813,0.0,1.1093,0.0,1.0059,0.9421,0.0,0.0,0.0,0.0,0.0,0.0,0.0,0.0,0.0,0.0,0.0,0.0,0.0,0.0,0.0,0.0,0.0,0.0,0.0,0.0,0.0,0.0,0.0,0.0,0.0,0.0,0.0,0.0,0.0,0.0,0.0,0.0,0.0,0.0,0.0,0.0,0.0,0.0,0.0,0.0,0.0,0.0,0.0,0.0,0.0,0.0,0.0,0.0,0.0,0.0,0.0,0.0,0.0,0.0,0.0,0.0,0.0,0.0,0.0,0.0,0.0,0.0,0.0,0.0,0.0,0.0,0.0,0.0,0.0,0.0,0.0,0.0,0.0,0.0,0.0,0.0,0.0,0.0,0.0,0.0,0.0,0.0,0.0,0.0,0.0,0.0,0.0,0.0,0.0,0.0,0.0,0.0,0.0,0.0,0.0,0.0,0.0,0.0,0.0,0.0,0.0,0.0,0.0,0.0,0.0,0.0,0.0,0.0,1.0193,1.0221,1.0799,1.09,1.0357,1.025,0.9656,0.0,0.0,0.0,0.0,0.0,0.0,0.0,0.0,0.0,0.0,0.0,0.0,0.0,0.0,0.0,0.0,0.0,0.0,0.0,0.0,0.0,0.0,0.0,0.0,0.0,0.0,0.0,0.0,0.0,0.0,0.0,0.0,0.0,0.0,0.0,0.0,0.0,0.0,0.0,0.0,0.0,0.0,0.0,0.0,0.0,0.0,0.0,0.0,0.0,0.0,0.0,0.0,0.0,0.0,0.0,0.0,0.0,0.0,0.0,0.0,0.0,0.0,0.0,0.0,0.0,0.0,0.0,0.0,0.0,0.0,0.0,0.0,0.0,0.0,0.0,0.0,0.0,0.0,0.0,0.0,0.0,0.0,0.0,0.0,0.0,0.0,0.0,0.0,0.0,0.0,0.0,0.0,0.0,0.0,0.0,0.0,0.0,0.0,0.0,0.0,0.0,0.0,0.0,0.0,0.0,0.0,0.0,0.0,0.0,1.0271,1.0956,1.1185,1.0999,1.0613,1.0218,0.0,0.0,0.0,0.0,0.0,0.0,0.0,0.0,0.0,0.0,0.0,0.0,0.0,0.0,0.0,0.0,0.0,0.0,0.0,0.0,0.0,0.0,0.0,0.0,0.0,0.0,0.0,0.0,0.0,0.0,0.0,0.0,0.0,0.0,0.0,0.0,0.0,0.0,0.0,0.0,0.0,0.0,0.0,0.0,0.0,0.0,0.0,0.0,0.0,0.0,0.0,0.0,0.0,0.0,0.0,0.0,0.0,0.0,0.0,0.0,0.0,0.0,0.0,0.0,0.0,0.0,0.0,0.0,0.0,0.0,0.0,0.0,0.0,0.0,0.0,0.0,0.0,0.0,0.0,0.0,0.0,0.0,0.0,0.0,0.0,0.0,0.0,0.0,0.0,0.0,0.0,0.0,0.0,0.0,0.0,0.0,0.0,0.0,0.0,0.0,0.0,0.0,0.0,0.0,0.0,0.0,0.0,0.0,0.0,1.1033,1.1451,1.1698,1.1689,1.1139,1.0649,1.0271,0.0,0.0,0.0,0.0,0.0,0.0,0.0,0.0,0.0,0.0,0.0,0.0,0.0,0.0,0.0,0.0,0.0,0.0,0.0,0.0,0.0,0.0,0.0,0.0,0.0,0.0,0.0,0.0,0.0,0.0,0.0,0.0,0.0,0.0,0.0,0.0,0.0,0.0,0.0,0.0,0.0,0.0,0.0,0.0,0.0,0.0,0.0,0.0,0.0,0.0,0.0,0.0,0.0,0.0,0.0,0.0,0.0,0.0,0.0,0.0,0.0,0.0,0.0,0.0,0.0,0.0,0.0,0.0,0.0,0.0,0.0,0.0,0.0,0.0,0.0,0.0,0.0,0.0,0.0,0.0,0.0,0.0,0.0,0.0,0.0,0.0,0.0,0.0,0.0,0.0,0.0,0.0,0.0,0.0,0.0,0.0,0.0,0.0,0.0,0.0,0.0,0.0,0.0,0.0,0.0,0.0,0.0,0.0,1.2213,1.2284,1.2324,1.233,1.1788,1.1064,0.0,0.0,0.0,0.0,0.0,0.0,0.0,0.0,0.0,0.0,0.0,0.0,0.0,0.0,0.0,0.0,0.0,0.0,0.0,0.0,0.0,0.0,0.0,0.0,0.0,0.0,0.0,0.0,0.0,0.0,0.0,0.0,0.0,0.0,0.0,0.0,0.0,0.0,0.0,0.0,0.0,0.0,0.0,0.0,0.0,0.0,0.0,0.0,0.0,0.0,0.0,0.0,0.0,0.0,0.0,0.0,0.0,0.0,0.0,0.0,0.0,0.0,0.0,0.0,0.0,0.0,0.0,0.0,0.0,0.0,0.0,0.0,0.0,0.0,0.0,0.0,0.0,0.0,0.0,0.0,0.0,0.0,0.0,0.0,0.0,0.0,0.0,0.0,0.0,0.0,0.0,0.0,0.0,0.0,0.0,0.0,0.0,0.0,0.0,0.0,0.0,0.0,0.0,0.0,0.0,0.0,0.0,0.0,0.0,1.2365,1.3272,1.3505,1.3044,1.2462,1.1933,0.0,0.0,0.0,0.0,0.0,0.0,0.0,0.0,0.0,0.0,0.0,0.0,0.0,0.0,0.0,0.0,0.0,0.0,0.0,0.0,0.0,0.0,0.0,0.0,0.0,0.0,0.0,0.0,0.0,0.0,0.0,0.0,0.0,0.0,0.0,0.0,0.0,0.0,0.0,0.0,0.0,0.0,0.0,0.0,0.0,0.0,0.0,0.0,0.0,0.0,0.0,0.0,0.0,0.0,0.0,0.0,0.0,0.0,0.0,0.0,0.0,0.0,0.0,0.0,0.0,0.0,0.0,0.0,0.0,0.0,0.0,0.0,0.0,0.0,0.0,0.0,0.0,0.0,0.0,0.0,0.0,0.0,0.0,0.0,0.0,0.0,0.0,0.0,0.0,0.0,0.0,0.0,0.0,0.0,0.0,0.0,0.0,0.0,0.0,0.0,0.0,0.0,0.0,0.0,0.0,0.0,0.0,0.0,1.2753,1.3182,1.4055,1.4313,1.3942,1.3327,1.2637,0.0,0.0,0.0,0.0,0.0,0.0,0.0,0.0,0.0,0.0,0.0,0.0,0.0,0.0,0.0,0.0,0.0,0.0,0.0,0.0,0.0,0.0,0.0,0.0,0.0,0.0,0.0,0.0,0.0,0.0,0.0,0.0,0.0,0.0,0.0,0.0,0.0,0.0,0.0,0.0,0.0,0.0,0.0,0.0,0.0,0.0,0.0,0.0,0.0,0.0,0.0,0.0,0.0,0.0,0.0,0.0,0.0,0.0,0.0,0.0,0.0,0.0,0.0,0.0,0.0,0.0,0.0,0.0,0.0,0.0,0.0,0.0,0.0,0.0,0.0,0.0,0.0,0.0,0.0,0.0,0.0,0.0,0.0,0.0,0.0,0.0,0.0,0.0,0.0,0.0,0.0,0.0,0.0,0.0,0.0,0.0,0.0,0.0,0.0,0.0,0.0,0.0,0.0,0.0,0.0,0.0,0.0,0.0,1.3347,1.4156,1.4562,1.4732,1.4732,1.4116,1.315,0.0,0.0,0.0,0.0,0.0,0.0,0.0,0.0,0.0,0.0,0.0,0.0,0.0,0.0,0.0,0.0,0.0,0.0,0.0,0.0,0.0,0.0,0.0,0.0,0.0,0.0,0.0,0.0,0.0,0.0,0.0,0.0,0.0,0.0,0.0,0.0,0.0,0.0,0.0,0.0,0.0,0.0,0.0,0.0,0.0,0.0,0.0,0.0,0.0,0.0,0.0,0.0,0.0,0.0,0.0,0.0,0.0,0.0,0.0,0.0,0.0,0.0,0.0,0.0,0.0,0.0,0.0,0.0,0.0,0.0,0.0,0.0,0.0,0.0,0.0,0.0,0.0,0.0,0.0,0.0,0.0,0.0,0.0,0.0,0.0,0.0,0.0,0.0,0.0,0.0,0.0,0.0,0.0,0.0,0.0,0.0,0.0,0.0,0.0,0.0,0.0,0.0,0.0,0.0,0.0,0.0,0.0,0.0,1.3304,1.3514,1.41,1.4415,1.4383,1.4026,1.3258,0.0,0.0,0.0,0.0,0.0,0.0,0.0,0.0,0.0,0.0,0.0,0.0,0.0,0.0,0.0,0.0,0.0,0.0,0.0,0.0,0.0,0.0,0.0,0.0,0.0,0.0,0.0,0.0,0.0,0.0,0.0,0.0,0.0,0.0,0.0,0.0,0.0,0.0,0.0,0.0,0.0,0.0,0.0,0.0,0.0,0.0,0.0,0.0,0.7864,0.0,0.0,0.0,0.0,0.0,0.0,0.0,0.0,0.0,0.0,0.0,0.0,0.0,0.0,0.0,0.0,0.0,0.0,0.0,0.0,0.0,0.0,0.0,0.0,0.0,0.0,0.0,0.0,0.0,0.0,0.0,0.0,0.0,0.0,0.0,0.0,0.0,0.0,0.0,0.0,0.0,0.0,0.0,0.0,0.0,0.0,0.0,0.0,0.0,0.0,0.0,0.0,0.0,0.0,0.0,0.0,0.0,0.0,0.0,1.353,1.3984,1.4014,1.4013,1.4013,1.3821,1.3226,0.0,0.0,0.0,0.0,0.0,0.0,0.0,0.0,0.0,0.0,0.0,0.0,0.0,0.0,0.0,0.0,0.0,0.0,0.0,0.0,0.0,0.0,0.0,0.0,0.0,0.0,0.0,0.0,0.0,0.0,0.0,0.0,0.0,0.0,0.0,0.0,0.0,0.0,0.0,0.0,0.0,0.0,0.0,0.0,0.0,0.0,0.0,0.0,0.0,0.0,0.0,0.0,0.0,0.0,0.0,0.0,0.0,0.0,0.0,0.0,0.0,0.0,0.0,0.0,0.0,0.0,0.0,0.0,0.0,0.0,0.0,0.0,0.0,0.0,0.0,0.0,0.0,0.0,0.0,0.0,0.0,0.0,0.0,0.0,0.0,0.0,0.0,0.0,0.0,0.0,0.0,0.0,0.0,0.0,0.0,0.0,0.0,0.0,0.0,0.0,0.0,0.0,0.0,0.0,0.0,0.0,0.0,1.3269,1.3662,1.4483,1.3947,1.3648,1.3702,1.3648,1.3149,1.2134,0.0,0.0,0.0,0.0,0.0,0.0,0.0,0.0,0.0,0.0,0.0,0.0,0.0,0.0,0.0,0.0,0.0,0.0,0.0,0.0,0.0,0.0,0.0,0.0,0.0,0.0,0.0,0.0,0.0,0.0,0.0,0.0,0.0,0.0,0.0,0.0,0.0,0.0,0.8273,0.8859,0.0,0.0,0.0,0.0,0.0,0.0,0.0,0.0,0.8415,0.0,0.0,0.0,0.0,0.0,0.0,0.0,0.0,0.0,0.0,0.0,0.0,0.0,0.0,0.0,0.0,0.0,0.0,0.0,0.0,0.0,0.0,0.0,0.0,0.0,0.0,0.0,0.0,0.0,0.0,0.0,0.0,0.0,0.0,0.0,0.0,0.0,0.0,0.0,0.0,0.0,0.0,0.0,0.0,0.0,0.0,0.0,0.0,0.0,0.0,0.0,0.0,0.0,0.0,0.0,0.0,1.3277,1.3019,1.3077,1.3446,1.3335,1.3425,1.3682,1.3425,1.2902,1.2144,0.0,0.0,0.0,0.0,0.0,0.0,0.0,0.0,0.0,0.0,0.0,0.0,0.0,0.0,0.0,0.0,0.0,0.0,0.0,0.0,0.0,0.0,0.0,0.0,0.0,0.0,0.0,0.0,0.0,0.0,0.0,0.0,0.0,0.0,0.0,0.0,0.0,0.0,0.0,0.8957,0.9032,0.0,0.0,0.0,0.0,0.0,0.0,0.0,0.0,0.8928,0.0,0.0,0.0,0.0,0.0,0.0,0.0,0.0,0.0,0.0,0.0,0.0,0.0,0.0,0.0,0.0,0.0,0.0,0.0,0.0,0.0,0.0,0.0,0.0,0.0,0.0,0.0,0.0,0.0,0.0,0.0,0.0,0.0,0.0,0.0,0.0,0.0,0.0,0.0,0.0,0.0,0.0,0.0,0.0,0.0,0.0,0.0,0.0,0.0,0.0,0.0,0.0,0.0,0.0,0.0,1.3291,1.3527,1.3636,1.3762,1.356,1.3459,1.3446,1.3178,1.2647,0.0,0.0,0.0,0.0,0.0,0.0,0.0,0.0,0.0,0.0,0.0,0.0,0.0,0.0,0.0,0.0,0.0,0.0,0.0,0.0,0.0,0.0,0.0,0.0,0.0,0.0,0.0,0.0,0.0,0.0,0.0,0.0,0.0,0.0,0.0,0.0,0.0,0.0,0.0,0.0,0.9497,0.9553,0.8938,0.0,0.0,0.0,0.0,0.0,0.0,0.8604,0.8749,0.0,0.0,0.0,0.0,0.0,0.0,0.0,0.0,0.0,0.0,0.0,0.0,0.0,0.0,0.0,0.0,0.0,0.0,0.0,0.0,0.0,0.0,0.0,0.0,0.0,0.0,0.0,0.0,0.0,0.0,0.0,0.0,0.0,0.0,0.0,0.0,0.0,0.0,0.0,0.0,0.0,0.0,0.0,0.0,0.0,0.0,0.0,0.0,0.0,0.0,0.0,0.0,0.0,0.0,0.0,1.3168,1.3723,1.4004,1.4059,1.3749,1.3527,1.3323,1.3077,1.2556,0.0,0.0,0.0,0.0,0.0,0.0,0.0,0.0,0.0,0.0,0.0,0.0,0.0,0.0,0.0,0.0,0.0,0.0,0.0,0.0,0.0,0.0,0.0,0.0,0.0,0.0,0.0,0.0,0.0,0.0,0.0,0.0,0.0,0.0,0.0,0.0,0.0,0.0,0.0,0.0,0.0,1.0289,0.9393,0.9399,0.0,0.0,0.0,0.0,0.8668,0.8587,0.0,0.0,0.0,0.0,0.0,0.0,0.0,0.0,0.0,0.0,0.0,0.0,0.0,0.0,0.0,0.0,0.0,0.0,0.0,0.0,0.0,0.0,0.0,0.0,0.0,0.0,0.0,0.0,0.0,0.0,0.0,0.0,0.0,0.0,0.0,0.0,0.0,0.0,0.0,0.0,0.0,0.0,0.0,0.0,0.0,0.0,0.0,0.0,0.0,0.0,0.0,0.0,0.0,0.0,0.0,0.0,1.2414,1.2803,1.3078,1.3297,1.3301,1.3391,1.3648,1.3327,1.2838,0.0,0.0,0.0,0.0,0.0,0.0,0.0,0.0,0.0,0.0,0.0,0.0,0.0,0.0,0.0,0.0,0.0,0.0,0.0,0.0,0.0,0.0,0.0,0.0,0.0,0.0,0.0,0.0,0.0,0.0,0.0,0.0,0.0,0.0,0.0,0.0,0.0,0.0,0.0,0.0,0.0,1.0944,0.9134,0.9397,0.9718,0.0,0.0,0.9701,0.9643,0.962,0.0,0.0,0.0,0.0,0.0,0.0,0.0,0.0,0.0,0.0,0.0,0.0,0.0,0.0,0.0,0.0,0.0,0.0,0.0,0.0,0.0,0.0,0.0,0.0,0.0,0.0,0.0,0.0,0.0,0.0,0.0,0.0,0.0,0.0,0.0,0.0,0.0,0.0,0.0,0.0,0.0,0.0,0.0,0.0,0.0,0.0,0.0,0.0,0.0,0.0,0.0,0.0,0.0,0.0,0.0,1.1732,1.2399,1.2993,1.3369,1.348,1.348,1.3459,1.3425,1.2878,1.2332,0.0,0.0,0.0,0.0,0.0,0.0,0.0,0.0,0.0,0.0,0.0,0.0,0.0,0.0,0.0,0.0,0.0,0.0,0.0,0.0,0.0,0.0,0.0,0.0,0.0,0.0,0.0,0.0,0.0,0.0,0.0,0.0,0.0,0.0,0.0,0.0,0.0,0.0,0.0,0.0,0.0,0.0,0.993,0.9683,0.0,0.0,0.0,0.9597,0.9775,0.0,0.0,0.0,0.0,0.0,0.0,0.0,0.0,0.0,0.0,0.0,0.0,0.0,0.0,0.0,0.0,0.0,0.0,0.0,0.0,0.0,0.0,0.0,0.0,0.0,0.0,0.0,0.0,0.0,0.0,0.0,0.0,0.0,0.0,0.0,0.0,0.0,0.0,0.0,0.0,0.0,0.0,0.0,0.0,0.0,0.0,0.0,0.0,0.0,0.0,0.0,0.0,0.0,0.0,0.0,0.0,0.0,1.2382,1.316,1.3594,1.3594,1.3547,1.3459,1.322,1.2532,0.0,0.0,0.0,0.0,0.0,0.0,0.0,0.0,0.0,0.0,0.0,0.0,0.0,0.0,0.0,0.0,0.0,0.0,0.0,0.0,0.0,0.0,0.0,0.0,0.0,0.0,0.0,0.6824,0.0,0.0,0.0,0.0,0.0,0.0,0.0,0.0,0.0,0.0,0.0,0.0,0.0,0.0,1.0985,1.0648,1.0168,1.0082,0.0,0.0,0.9937,1.0152,0.9989,0.9833,0.0,0.0,0.0,0.0,0.0,0.0,0.0,0.0,0.0,0.0,0.0,0.0,0.0,0.0,0.0,0.0,0.0,0.0,0.0,0.0,0.0,0.0,0.0,0.0,0.0,0.0,0.0,0.0,0.0,0.0,0.0,0.0,0.0,0.0,0.0,0.0,0.0,0.0,0.0,0.0,0.0,0.0,0.0,0.0,0.0,0.0,0.0,0.0,0.0,0.0,0.0,0.0,0.0,0.0,0.0,1.205,1.2831,1.3232,1.3232,1.3232,1.3232,1.3198,1.2667,1.2134,0.0,0.0,0.0,0.0,0.0,0.0,0.0,0.0,0.0,0.0,0.0,0.0,0.0,0.0,0.0,0.0,0.0,0.0,0.0,0.0,0.0,0.0,0.0,0.0,0.0,0.0,0.0,0.0,0.0,0.0,0.0,0.0,0.0,0.0,0.0,0.0,0.0,0.0,0.0,0.0,0.0,1.2277,1.0819,1.0931,1.1194,0.0,0.0,1.1182,1.1182,1.0564,0.9926,0.9506,0.0,0.0,0.0,0.0,0.0,0.0,0.0,0.0,0.0,0.0,0.0,0.0,0.0,0.0,0.0,0.0,0.0,0.0,0.0,0.0,0.0,0.0,0.0,0.0,0.0,0.0,0.0,0.0,0.0,0.0,0.0,0.0,0.0,0.0,0.0,0.0,0.0,0.0,0.0,0.0,0.0,0.0,0.0,0.0,0.0,0.0,0.0,0.0,0.0,0.0,0.0,0.0,0.0,1.0824,1.1755,1.27,1.321,1.321,1.321,1.321,1.3198,1.2334,1.1801,0.0,0.0,0.0,0.0,0.0,0.0,0.0,0.0,0.0,0.0,0.0,0.0,0.0,0.0,0.0,0.0,0.0,0.0,0.0,0.0,0.0,0.0,0.0,0.0,0.0,0.0,0.0,0.0,0.6672,0.6915,0.7393,0.0,0.0,0.0,0.0,0.0,0.0,0.0,0.0,0.0,0.0,1.1687,1.1538,1.1274,0.0,0.0,1.1387,1.1011,1.0942,1.0643,1.0198,0.951,0.8808,0.0,0.0,0.0,0.0,0.0,0.0,0.0,0.0,0.0,0.0,0.0,0.0,0.0,0.0,0.0,0.0,0.0,0.0,0.0,0.0,0.0,0.0,0.0,0.0,0.0,0.0,0.0,0.0,0.0,0.0,0.0,0.0,0.0,0.0,0.0,0.0,0.0,0.0,0.0,0.0,0.0,0.0,0.0,0.0,0.0,0.0,0.0,0.0,0.0,0.0,0.0,0.0,1.0621,1.1588,1.268,1.321,1.321,1.321,1.321,1.3185,1.2328,1.1794,0.0,0.0,0.0,0.0,0.0,0.0,0.0,0.0,0.0,0.0,0.0,0.0,0.0,0.0,0.0,0.0,0.0,0.0,0.0,0.0,0.0,0.0,0.0,0.0,0.0,0.0,0.0,0.0,0.6831,0.7068,0.7713,0.0,0.0,0.0,0.0,0.0,0.0,0.0,0.0,0.0,0.0,1.1597,1.197,1.1601,1.152,1.2238,1.1739,1.1244,1.1173,1.0906,1.0441,0.9623,0.0,0.0,0.0,0.0,0.0,0.0,0.0,0.0,0.0,0.0,0.0,0.0,0.0,0.0,0.0,0.0,0.0,0.0,0.0,0.0,0.0,0.0,0.0,0.0,0.0,0.0,0.0,0.0,0.0,0.0,0.7692,0.0,0.0,0.0,0.0,0.0,0.0,0.0,0.0,0.0,0.0,0.0,0.0,0.0,0.0,0.0,0.0,0.0,0.0,0.0,0.0,0.0,0.0,1.0998,1.16,1.2647,1.321,1.321,1.321,1.321,1.3198,1.268,1.2128,1.1575,0.0,0.0,0.0,0.0,0.0,0.0,0.0,0.0,0.0,0.0,0.0,0.0,0.0,0.0,0.0,0.0,0.0,0.0,0.0,0.0,0.0,0.0,0.0,0.0,0.0,0.0,0.7393,0.7393,0.7506,0.0,0.0,0.0,0.0,0.0,0.0,0.0,0.0,0.0,0.0,1.2157,1.2312,1.1889,1.1957,1.2249,1.2777,1.241,1.209,1.2129,1.1446,1.0627,0.0,0.0,0.0,0.0,0.0,0.0,0.0,0.0,0.0,0.0,0.0,0.0,0.0,0.0,0.0,0.0,0.0,0.0,0.0,0.0,0.0,0.0,0.0,0.0,0.0,0.0,0.0,1.0586,0.981,0.0,0.0,0.0,0.0,0.0,0.0,0.0,0.0,0.0,0.0,0.0,1.1817,1.2109,0.0,0.0,0.0,0.0,0.0,0.0,0.0,0.0,0.0,0.0,0.0,0.0,1.1157,1.2115,1.2822,1.321,1.321,1.321,1.321,1.3185,1.2705,1.1801,1.0508,0.0,0.0,0.0,0.0,0.0,0.0,0.0,0.0,0.0,0.0,0.0,0.0,0.0,0.0,0.0,0.0,0.0,0.0,0.0,0.0,0.0,0.0,0.0,0.0,0.0,0.7893,0.0,0.0,0.0,0.0,0.0,0.0,0.0,0.0,0.0,0.0,0.0,1.1867,1.221,1.2323,1.2285,1.2108,1.2289,1.2469,0.0,0.0,0.0,0.0,0.0,0.0,0.0,0.0,0.0,0.0,0.0,0.0,0.0,0.0,1.0376,0.929,0.8836,0.8749,0.9142,0.0,0.0,0.0,0.0,0.0,0.0,0.0,0.0,0.0,0.0,0.0,0.0,0.0,0.0,1.1534,0.0,1.0599,0.0,0.0,0.0,0.0,0.0,0.0,0.0,0.0,1.2831,1.3171,1.3013,1.2994,1.2892,0.0,1.2336,1.1776,0.0,0.0,0.0,0.0,0.0,0.0,0.0,0.0,1.1645,1.2391,1.2922,1.321,1.321,1.321,1.321,1.3185,1.2672,1.1889,1.0809,1.0395,0.978,0.0,0.0,0.0,0.0,0.0,0.0,0.0,0.0,0.0,0.0,0.0,0.0,0.0,0.0,0.0,0.0,0.0,0.0,0.0,0.0,0.0,0.0,0.0,0.8242,0.0,0.0,0.0,0.0,0.0,0.0,0.0,0.0,0.0,1.1383,1.1877,1.2276,1.26,1.2604,1.2576,1.2443,0.0,0.0,0.0,0.0,0.0,0.0,0.0,1.1116,1.0934,1.0829,1.0845,1.1058,1.1416,1.1654,1.1508,0.0,0.0,1.0339,0.9713,0.9465,0.9861,0.9824,0.9805,1.0072,1.0128,1.0137,0.0,0.0,0.0,0.0,0.0,0.0,0.0,0.0,1.1665,1.1683,0.0,1.1069,0.0,0.0,0.0,0.0,0.0,1.2935,0.0,0.0,1.4614,1.4903,1.484,1.4337,1.4097,1.4072,1.3534,1.3235,1.3185,1.2203,0.0,0.0,0.0,0.0,0.0,0.0,1.2454,1.2504,1.2973,1.3235,1.321,1.321,1.321,1.3185,1.2685,1.2429,1.2354,1.1349,1.0481,0.9931,0.9415,0.0,0.0,0.0,0.0,0.0,0.0,0.0,0.0,0.0,0.0,0.0,0.0,0.0,0.0,0.0,0.0,0.0,0.0,0.0,0.0,0.8323,0.0,0.0,0.0,0.0,0.0,0.0,0.0,0.0,0.0,0.0,1.1399,1.2257,1.2895,1.2934,0.0,0.0,0.0,0.0,1.2989,1.3144,1.2848,1.2515,1.2276,1.2151,1.1868,1.1146,0.0,0.0,1.1563,1.1819,1.1938,1.1581,1.1819,1.2076,1.203,1.1398,1.1048,1.1361,1.1168,1.0956,1.0938,1.0938,1.0938,1.4127,0.0,0.0,0.0,0.0,1.2899,1.2861,1.2899,1.2899,1.2479,1.185,1.2352,0.0,0.0,0.0,0.0,0.0,0.0,1.4148,1.4664,1.484,1.4903,1.4903,1.4752,1.4676,1.4664,1.4475,1.4412,1.4387,1.4086,1.3345,1.2203,0.0,0.0,0.0,0.0,1.3619,1.3632,1.377,1.3622,1.321,1.321,1.321,1.321,1.306,1.2785,1.2429,1.209,1.1475,1.0493,0.9956,0.0,0.0,0.0,0.0,0.0,0.0,0.0,0.0,0.0,0.0,0.0,0.0,0.0,0.0,0.0,0.0,0.0,0.0,0.0,0.8412,0.8823,0.905,0.0,0.0,0.0,0.0,0.0,0.0,0.0,0.0,0.0,1.2966,1.3085,1.3254,0.0,0.0,1.3343,1.3466,1.3314,1.3176,1.3201,1.3439,0.0,1.3007,1.2801,1.2762,1.2816,1.2724,1.2444,1.2018,1.2052,1.2089,1.192,1.2003,1.2076,1.2067,1.1951,1.1822,1.1874,1.1801,1.1776,1.1776,1.1776,1.1766,1.5222,1.4034,1.3992,1.3964,1.3964,1.3964,1.3964,1.3964,1.4221,1.3988,1.3418,1.38,1.3512,1.2782,1.2878,0.0,0.0,0.0,1.4834,1.5517,1.5517,1.5517,1.5517,1.5291,1.5243,1.523,1.5004,1.5029,1.5203,1.5203,1.4701,1.376,0.0,0.0,1.3898,1.4261,1.4412,1.4425,1.4412,1.4148,1.3571,1.3311,1.321,1.321,1.321,1.3048,1.271,1.2529,1.209,1.1395,1.0646,0.9968,0.0,0.0,0.0,0.0,0.0,0.0,0.0,0.0,0.0,0.0,0.0,0.6853,0.6538,0.0,0.0,0.0,0.6892,0.7892,0.8916,0.9477,0.0,0.0,0.0,0.0,0.0,0.0,0.0,1.2286,1.2861,1.3268,1.3365,1.3411,1.3573,1.4004,1.3699,1.3528,1.3755,0.0,1.3346,1.3226,1.3494,1.3552,1.3132,1.3091,1.315,1.3273,1.2987,1.255,1.2166,1.2076,1.2076,1.2076,1.2076,1.2076,1.2076,1.2076,1.2076,1.2076,1.2076,1.2076,1.2076,1.2076,1.2076,1.5956,1.5091,1.4974,1.4887,1.4808,1.4808,1.4808,1.4855,1.5382,1.5629,1.5558,1.5207,1.4809,1.4315,1.338,0.0,1.5199,1.5229,1.5764,1.6647,1.6597,1.6597,1.6559,1.6019,1.5756,1.5743,1.5293,1.5306,1.5756,1.5756,1.5768,1.5756,1.5254,1.499,1.4979,1.5029,1.5016,1.4979,1.4966,1.4702,1.416,1.3619,1.3308,1.333,1.3279,1.3301,1.3288,1.2776,1.2486,1.2411,1.1374,1.0546,0.9981,0.0,0.0,0.0,0.0,0.0,0.0,0.0,0.0,0.0,0.0,0.0,0.0,0.0,0.0,0.0,0.7352,0.0,0.9291,1.0178,0.0,0.0,0.0,1.1864,1.1867,1.244,1.286,1.2839,0.0,0.0,1.3076,1.3351,1.3884,1.4617,1.4071,1.3716,1.3973,1.38,1.3515,1.3266,1.3266,1.3228,1.3113,1.3208,1.3273,1.2967,1.2696,1.2559,1.2274,1.2166,1.2166,1.2166,1.2126,1.2076,1.2076,1.2076,1.2076,1.2076,1.2116,1.2175,1.2166,1.2215,1.2323,1.6325,1.6032,1.6025,1.5627,1.4982,1.4972,1.4972,1.4972,1.5113,1.496,1.4677,1.5268,1.5643,1.5902,1.6068,1.6384,1.6763,1.7208,1.7572,1.7777,1.7375,1.7174,1.7162,1.6597,1.6321,1.6321,1.6183,1.6208,1.6321,1.6333,1.6321,1.6321,1.6195,1.5919,1.553,1.5919,1.5919,1.5505,1.5505,1.5229,1.4727,1.4405,1.424,1.4262,1.4119,1.4026,1.4026,1.3631,1.3214,1.2786,1.1903,1.1123,1.0518,0.9491,0.0,0.0,0.0,0.0,0.0,0.0,0.0,0.0,0.0,0.8382,0.7053,0.0,0.796,0.0,0.8178,0.9015,0.988,1.0396,0.0,0.0,1.1932,1.2468,1.2658,1.3411,1.3795,1.3422,1.3896,1.4143,1.4071,1.3784,1.3941,1.4869,1.4222,1.3763,1.4186,1.3905,1.3563,1.3515,1.3668,1.3773,1.3736,1.3962,1.3884,1.3208,1.3409,1.3409,1.2783,1.2638,1.2638,1.2628,1.2304,1.2126,1.2126,1.2076,1.2126,1.2126,1.2403,1.2628,1.2628,1.2929,1.3228,1.6534,1.674,1.6729,1.6599,1.6331,1.5825,1.576,1.6009,1.6277,1.6258,1.6009,1.6366,1.6539,1.6566,1.6875,1.7181,1.7388,1.7738,1.7846,1.7773,1.7738,1.7588,1.7378,1.7028,1.6898,1.6886,1.6635,1.6534,1.6534,1.6534,1.6534,1.6534,1.6534,1.6371,1.6082,1.6371,1.6371,1.6057,1.6023,1.5863,1.5582,1.5115,1.4892,1.4852,1.4306,1.4059,1.4013,1.3682,1.3224,1.2704,1.1969,1.1437,1.1111,1.0044,0.9428,0.0,0.0,0.0,0.0,0.0,0.0,0.0,0.0,0.0,0.0,0.0,0.8895,0.9082,0.9488,1.0072,1.092,1.1411,1.1815,1.2162,1.269,1.3064,1.3221,1.3686,1.3885,1.3627,1.3858,1.4057,1.4046,1.38,1.38,1.4362,1.3941,1.38,1.4222,1.3941,1.361,1.361,1.3716,1.3868,1.3973,1.4104,1.4093,1.3695,1.3836,1.3779,1.3256,1.316,1.316,1.316,1.2939,1.2745,1.2745,1.2745,1.2754,1.2852,1.317,1.3208,1.2628,1.2871,1.3218,1.6627,1.7034,1.709,1.7379,1.7831,1.6818,1.674,1.7368,1.7875,1.8054,1.7974,1.7585,1.7185,1.675,1.6862,1.7173,1.7702,1.7751,1.7739,1.7678,1.809,1.7993,1.7508,1.7495,1.7488,1.7463,1.6974,1.6697,1.6622,1.6622,1.6597,1.6534,1.6534,1.6534,1.6534,1.6534,1.6534,1.6522,1.6499,1.6481,1.6481,1.5797,1.5387,1.5339,1.446,1.3914,1.3848,1.3527,1.3108,1.2594,1.2052,1.1749,1.1663,1.0752,1.0321,0.0,1.0243,0.0,0.0,0.0,0.0,0.0,0.0,0.0,0.0,0.9744,1.0059,1.0867,1.0952,1.1328,1.2138,1.2635,1.2948,1.2975,1.3372,1.361,1.361,1.361,1.361,1.361,1.361,1.361,1.3621,1.3668,1.3705,1.3894,1.3941,1.4082,1.4408,1.4035,1.361,1.361,1.361,1.3726,1.3879,1.3926,1.3915,1.3884,1.3931,1.3941,1.3705,1.3658,1.3668,1.3705,1.361,1.3563,1.361,1.3563,1.3563,1.3515,1.3847,1.38,1.289,1.2967,1.3054,1.6228,1.6332,1.6467,1.6648,1.6705,1.6498,1.6965,1.7929,1.8038,1.7818,1.7378,1.7289,1.7213,1.7136,1.7634,1.8125,1.875,1.9191,1.9332,1.932,1.9008,1.882,1.8672,1.8257,1.8053,1.8041,1.794,1.7652,1.7212,1.7212,1.6986,1.6534,1.6534,1.6534,1.6534,0.0,0.0,0.0,1.6873,1.7042,1.7057,1.6741,1.6487,1.6313,1.5626,0.0,1.4602,1.4241,1.3875,1.348,1.2935,0.0,0.0,0.0,0.0,0.0,0.0,0.0,0.0,0.0,0.0,0.0,1.184,1.1462,1.0924,1.1387,1.187,1.2287,1.2117,1.2383,1.327,1.3081,1.3072,1.3445,1.3569,1.361,1.361,1.361,1.361,1.361,1.361,1.3621,1.3658,1.3952,1.4373,1.4719,1.4834,1.5006,1.54,1.4408,1.3658,1.361,1.361,1.3621,1.3668,1.3716,1.3705,1.3457,1.3752,1.3952,1.3931,1.3931,1.4035,1.4186,1.3905,1.3621,1.361,1.361,1.3658,1.361,1.3716,1.381,1.3941,1.4351,1.4674,1.6275,0.0,1.6729,1.6899,0.0,1.7123,1.7435,1.7984,1.7754,1.782,1.8093,1.8093,1.8201,1.8405,1.8685,1.8963,1.9198,1.946,1.946,1.9226,1.9189,1.9066,1.8785,1.8511,1.8399,1.8399,1.8138,1.7741,1.7219,1.7194,1.6908,1.6362,1.6362,1.6362,1.6362,1.6637,1.6765,1.6863,1.7503,1.7828,1.7854,1.7657,1.7495,1.7377,0.0,0.0,0.0,0.0,0.0,0.0,0.0,0.0,0.0,0.0,0.0,1.2801,1.2517,1.2524,1.2743,1.2549,1.273,1.3559,1.3873,1.3529,1.237,1.2692,1.3024,1.3178,1.3224,1.3488,1.3992,1.4002,1.3998,1.4003,1.4222,1.4269,1.4082,1.4233,1.4373,1.4362,1.4373,1.4362,1.4362,1.4547,1.4797,1.5056,1.5324,1.5499,1.5325,1.4644,1.3941,1.3668,1.361,1.361,1.3658,1.3931,1.4035,1.38,1.414,1.4419,1.4362,1.4373,1.4408,1.464,1.4512,1.4362,1.4362,1.4362,1.4351,1.4362,1.449,1.4628,1.4915,1.488,1.4743,1.6343,1.6786,1.6877,1.7213,1.7534,1.7534,1.7644,1.7699,0.0,0.0,0.0,1.8987,1.9198,1.9448,1.9448,1.9473,1.942,1.942,1.9158,1.8774,1.9198,1.9158,1.875,1.8761,1.8757,1.8732,1.8302,1.7823,1.7294,1.7196,1.6864,1.6372,1.6249,1.6231,1.6362,1.6921,1.7256,1.7393,1.8121,1.8514,1.8461,1.8312,1.8231,1.8201,1.7334,1.6796,1.6705,1.6445,1.5799,1.4771,1.4931,1.4743,1.4088,1.4294,1.4574,1.484,1.4475,1.4425,1.4865,1.4488,1.4462,1.5016,1.5522,1.5224,1.3869,1.3893,1.4029,1.4038,1.4302,1.4484,1.4525,1.4834,1.488,1.4326,1.4697,1.4789,1.4326,1.4593,1.4776,1.4947,1.4888,1.505,1.5221,1.5325,1.5405,1.553,1.6065,1.6101,1.5516,1.5096,1.4628,1.4441,1.4446,1.4265,1.4291,1.4693,1.4884,1.4653,1.4873,1.5016,1.4923,1.4842,1.4877,1.5107,1.5257,1.536,1.5349,1.5359,1.5383,1.5372,1.5566,1.5733,1.5676,1.5199,1.4834,1.5846,1.5894,1.6019,1.6134,1.6192,1.6181,1.6467,1.7078,1.8224,1.8827,1.8987,1.8987,1.8987,1.891,1.891,1.9081,1.942,1.942,1.9368,1.9316,1.9356,1.9368,1.9316,1.9294,1.9297,1.9297,1.9224,1.8916,1.8388,1.7921,1.7417,1.6888,1.6421,1.6417,1.6833,1.7611,1.8029,1.8083,1.8358,1.8422,1.8344,1.843,1.8375,1.8194,1.7675,1.7169,1.6733,1.6684,1.6424,1.5984,1.6243,1.6052,1.5322,1.5535,1.5467,1.4942,1.4828,1.4828,1.4916,1.4828,1.5029,1.5558,1.6059,1.586,1.4897,1.5229,1.5509,1.5504,1.5182,1.4982,1.5017,1.5108,1.4823,1.3941,1.4233,1.428,1.3894,1.3962,1.4206,1.4558,1.4398,1.4903,1.5753,1.6166,1.6569,1.705,1.7328,1.764,1.7147,1.6289,1.5934,1.6184,1.6249,1.6249,1.6049,1.6299,1.6267,1.6359,1.5654,1.5418,1.5513,1.5322,1.5285,1.5429,1.599,1.629,1.6397,1.6417,1.6328,1.6307,1.6291,1.6276,1.6274,1.6044,1.5925,1.6616,1.6673,1.6797,1.6797,1.674,1.674,1.7067,1.7678,1.8441,1.8774,1.8774,1.8869,1.8987,1.9133,1.9133,1.921,1.9275,1.921,1.9146,1.9198,1.921,1.9146,1.9198,1.9158,1.9198,1.921,1.921,1.8943,1.842,1.8115,1.763,1.6793,1.6235,1.6349,1.7089,1.7503,1.7962,1.8478,1.8606,1.863,1.8577,1.863,1.8617,1.8547,1.8384,1.8218,1.797,1.7977,1.7784,1.7313,1.7537,1.7316,1.6664,1.6646,1.6599,1.6468,1.5997,1.5931,1.6468,1.6468,1.6386,1.6204,1.6561,1.6671,1.6245,1.6206,1.6095,1.5832,1.5567,1.549,1.549,1.5724,1.5579,1.4892,1.5254,1.5299,1.4971,1.5337,1.573,1.5973,1.6228,1.6592,1.7083,1.7351,1.752,1.7835,1.8019,1.8265,1.8622,1.8081,1.7363,1.6825,1.6715,1.6715,1.6726,1.6973,1.6973,1.6764,1.6553,1.6414,1.6451,1.6256,1.6328,1.6522,1.6879,1.7095,1.7179,1.6907,1.6776,1.6777,1.6672,1.6581,1.6571,1.6616,1.6602,1.771,1.7721,1.7913,1.7778,1.7545,1.7645,1.7933,1.8278,1.8548,1.8667,1.8721,1.8869,1.9081,1.9316,1.9368,1.9263,1.917,1.9064,1.8987,1.8987,1.8987,1.8987,1.8987,1.8987,1.8987,1.8987,1.8987,1.8782,1.841,1.8265,1.7713,1.683,1.6435,1.6665,1.7394,1.753,1.7948,1.8595,1.8697,1.8745,1.876,1.8798,1.8822,1.8822,1.8889,1.8993,1.8993,1.904,1.8846,1.8426,1.8541,1.8341,1.7791,1.7464,1.7475,1.7666,1.701,1.693,1.7693,1.7787,1.7503,1.6879,1.7214,1.7393,1.7199,1.7076,1.6714,1.6225,1.6008,1.592,1.5876,1.6194,1.625,1.5756,1.6186,1.6227,1.5972,1.6645,1.7291,1.7402,1.7772,1.8019,1.8288,1.8374,1.84,1.8469,1.8503,1.889,1.9558,1.9434,1.8647,1.7819,1.7402,1.7511,1.7402,1.776,1.7896,1.7476,1.7541,1.7494,1.7371,1.7333,1.7333,1.7494,1.7712,1.7894,1.797,1.7715,1.7556,1.7652,1.7588,1.7352,1.7313,1.748,1.729,1.8643,1.8654,1.8681,1.839,1.8041,1.8544,1.854,1.8271,1.8721,1.8946,1.9023,1.921,1.9263,1.9223,1.9223,1.9158,1.9052,1.8987,1.8987,1.8987,1.8987,1.8987,1.8987,1.8987,1.8987,1.8987,1.8987,1.8951,1.8855,1.8422,1.7861,1.736,1.76,1.7721,1.7801,1.8163,1.8439,1.8517,1.8517,1.8595,1.8711,1.876,1.8822,1.8822,1.8784,1.8889,1.8993,1.8889,1.8884,1.8991,1.8959,1.8784,1.843,1.8001,1.776,1.7787,1.7381,1.7353,1.7747,1.7787,1.7787,1.7747,1.8068,1.8042,1.7365,1.7868,1.7935,1.7173,1.668,1.6281,1.5876,1.625,1.6163,1.5513,1.6118,1.6405,1.6115,1.6392,1.6918,1.7357,1.7659,1.7803,1.8742,1.8919,1.9096,1.9405,1.9418,1.9506,1.9709,1.9736,1.9648,1.9432,1.9457,1.9368,1.9331,1.9533,1.9345,1.9306,1.8755,1.8371,1.821,1.8058,1.7855,1.8145,1.8434,1.8806,1.897,1.8967,1.8924,1.8809,1.8769,1.8792,1.8701,1.8636,1.8265,1.9878,1.9866,1.9878,1.975,1.9598,1.9782,1.979,1.9577,1.9467,1.9456,1.9408,1.9238,1.9158,1.9182,1.9182,1.917,1.9117,1.904,1.8987,1.8987,1.8987,1.8987,1.8987,1.8987,1.8987,1.8987,1.8987,1.8987,1.8903,1.8458,1.8077,1.7849,1.7721,1.7885,1.8398,1.8294,1.8467,1.9011,1.87,1.8517,1.8595,1.862,1.862,1.8606,1.8697,1.8774,1.8827,1.8798,1.8836,1.8898,1.8979,1.8941,1.8812,1.8436,1.8226,1.8187,1.8082,1.8042,1.8226,1.8422,1.8344,1.7828,1.8226,1.8226,1.7639,1.7666,1.7557,1.7282,1.7031,1.6808,1.6625,1.6552,1.6337,1.6105,1.661,1.6987,1.6849,1.7545,1.8165,1.8333,1.8651,1.8946,1.9386,1.95,1.9552,1.9747,1.9798,1.9798,1.9798,1.9798,1.9798,1.9798,1.9798,1.9798,1.9798,1.9798,1.9798,1.9761,1.9469,1.9166,1.9142,1.9115,1.9052,1.8988,1.9236,1.9488,1.9619,1.9459,1.9371,1.9459,1.9239,1.8986,1.8891,1.9139,1.9052,2.1031,2.1019,2.1031,2.0947,2.0803,2.0815,2.0742,2.0574,2.0177,1.9925,1.9799,1.9372,1.9172,1.9129,1.9158,1.917,1.9117,1.9052,1.8987,1.8987,1.8987,1.8987,1.8987,1.8987,1.8987,1.8987,1.8987,1.8987,1.9004,1.8833,1.8655,1.8548,1.8387,1.8588,1.9189,1.8688,1.8708,1.9251,1.8787,1.8478,1.8478,1.8478,1.8478,1.8517,1.8595,1.8648,1.8725,1.8697,1.8745,1.8798,1.8889,1.8955,1.8979,1.862,1.8436,1.8475,1.8539,1.8592,1.8644,1.8874,1.8731,1.8187,1.8436,1.8422,1.8028,1.7787,1.7598,1.7393,1.7352,1.731,1.6976,1.6832,1.6748,1.6798,1.7375,1.7815,1.7915,1.8694,1.9196,1.9284,1.9445,1.9798,1.9798,1.9798,1.9798,1.9798,1.9798,1.9901,2.0016,2.0055,2.0105,2.0194,2.0245,2.0194,2.0055,2.0055,2.0003,2.0003,1.9965,1.9902,1.985,1.9798,1.9786,1.9443,1.9709,1.9862,1.9875,1.9674,1.9742,1.9762,1.966,1.9454,1.9538,1.984,2.0021,2.2125,2.2101,2.2113,2.1789,2.1368,2.1368,2.1103,2.073,2.061,2.0286,1.9889,1.9768,1.948,1.9088,1.9047,1.9011,1.8987,1.8987,1.8987,1.8987,1.8987,1.8987,1.8987,1.8987,1.8987,1.8987,1.8987,1.8987,1.904,1.9451,1.9699,1.9607,1.9938,2.0275,2.0166,1.9627,1.9349,1.9404,1.8911,1.8492,1.8478,1.8478,1.8478,1.8478,1.8517,1.8595,1.8673,1.8595,1.862,1.8784,1.8736,1.8803,1.8917,1.8517,1.8268,1.8358,1.8577,1.8836,1.8903,1.8874,1.8784,1.876,1.8812,1.8774,1.8319,1.8553,1.8422,1.7828,1.772,1.7434,1.6923,1.7074,1.7262,1.735,1.8279,1.8794,1.8894,1.9296,1.971,1.9736,1.9761,1.9798,1.9798,1.9798,1.985,1.985,1.985,2.0042,2.0459,2.056,2.0709,2.1028,2.1175,2.1126,2.0696,2.0547,2.0547,2.0459,2.0346,2.0346,2.0055,1.9798,1.9798,1.9798,1.9798,1.9862,1.9978,2.0144,2.0369,2.0515,2.0637,2.0554,2.0534,2.1,2.1138,2.2197,2.2197,2.2197,2.2077,2.1921,2.1909,2.1801,2.1608,2.126,2.1019,2.0779,2.0466,2.0009,1.9546,1.9492,1.9312,1.9011,1.8987,1.8987,1.8987,1.8987,1.8987,1.8987,1.8987,1.8987,1.8987,1.8987,1.8987,1.8987,1.9186,1.9258,1.9356,1.9812,2.0191,2.0408,2.0279,2.0081,1.9978,1.9417,1.8871,1.8574,1.8478,1.8478,1.8478,1.8478,1.8517,1.8542,1.8517,1.8556,1.862,1.8659,1.8711,1.875,1.8439,1.8333,1.8553,1.8489,1.8542,1.8798,1.8836,1.8822,1.8822,1.8927,1.8788,1.8386,1.845,1.8319,1.7801,1.772,1.7677,1.7797,1.7593,1.7375,1.7513,1.8355,1.9058,1.9133,1.9484,1.9798,1.9798,1.9798,1.9798,1.985,2.0105,2.0308,2.0359,2.0597,2.0832,2.0979,2.0858,2.0858,2.1175,2.114,2.1104,2.1684,2.1286,2.1028,2.0746,2.056,2.0295,2.0042,1.9952,1.9952,2.0042,2.0003,2.0156,2.0372,2.0822,2.1068,2.1299,2.1444,2.1396,2.1561,2.1766,2.2011,2.2197,2.2197,2.2197,2.2197,2.2197,2.2197,2.2197,2.2149,2.1825,2.156,2.1356,2.1031,2.0562,2.0117,2.0057,1.9877,1.948,1.9179,1.8987,1.8987,1.8987,1.8987,1.8987,1.8987,1.8987,1.8987,1.8987,1.8987,1.904,1.9198,1.9251,1.9291,1.9798,2.0308,2.0716,2.0624,2.0539,2.051,1.9866,1.9165,1.8801,1.8616,1.8478,1.8478,1.8478,1.8478,1.8478,1.8478,1.8478,1.8517,1.8581,1.8556,1.8425,1.8228,1.8254,1.8475,1.8386,1.8439,1.8683,1.8721,1.8683,1.8721,1.8812,1.8711,1.84,1.8319,1.8028,1.7707,1.7679,1.7949,1.8249,1.8085,1.7931,1.8231,1.8961,1.9421,1.9346,1.9737,2.0016,2.0105,2.0105,2.0003,1.9901,2.0446,2.0696,2.066,2.1091,2.1417,2.1575,2.1382,2.1299,2.1718,2.167,2.1827,2.217,2.2063,2.1766,2.1431,2.1188,2.0795,2.0396,2.0295,2.0245,2.0245,2.0396,2.0547,2.0908,2.1444,2.1779,2.2002,2.1955,2.1813,2.2095,2.2374,2.2441,2.2197,2.2197,2.2197,2.2197,2.2197,2.2197,2.2197,2.2185,2.2161,2.1873,2.1524,2.1416,2.1115,2.0694,2.061,2.0598,2.0322,1.9552,1.9131,1.9083,1.9059,1.9023,1.8999,1.9059,1.9083,1.9059,1.8999,1.8987,1.904,1.9396,1.9643,1.9811,2.0207,2.061,2.1313,2.0799,2.0786,2.0857,2.0077,1.9502,1.9333,1.8913,1.8593,1.8562,1.8509,1.8495,1.8492,1.8478,1.8478,1.8478,1.8517,1.8254,1.8002,1.7948,1.7988,1.8068,1.8307,1.8556,1.8634,1.8542,1.8517,1.8556,1.8634,1.8711,1.8595,1.845,1.8147,1.7787,1.7842,1.7975,1.8253,1.8616,1.9047,1.9669,2.0005,2.0092,1.9953,2.0232,2.056,2.0459,2.0409,2.0308,2.0156,2.0597,2.0993,2.0894,2.1091,2.1609,2.203,2.1969,2.2278,2.2661,2.2463,2.2356,2.2646,2.2843,2.2555,2.2278,2.203,2.1732,2.1175,2.0979,2.093,2.093,2.1126,2.1286,2.1431,2.1874,2.2077,2.2249,2.2203,2.2235,2.2466,2.2663,2.2709,2.2197,2.2197,2.2197,2.2197,2.2197,2.2197,2.2197,2.2197,2.2197,2.2089,2.1969,2.1957,2.1656,2.1247,2.1163,2.0971,2.0598,2.0213,1.9889,1.96,1.954,1.9348,1.9131,1.936,1.954,1.9468,1.9155,1.8987,1.904,1.9198,1.9239,1.9356,1.9811,2.0093,2.0346,2.0771,2.107,2.0758,2.0729,2.0512,2.0091,1.9542,1.921,1.907,1.8755,1.8535,1.8506,1.8478,1.8478,1.8478,1.8478,1.8439,1.8268,1.8002,1.7868,1.7922,1.8254,1.8333,1.8135,1.8333,1.8478,1.8517,1.8634,1.8634,1.8595,1.8542,1.8293,1.7936,1.8276,1.8725,1.8959,1.9546,1.982,1.9795,1.9973,2.0055,1.9901,1.9952,2.0055,2.0055,2.0055,1.9952,1.9952,2.0497,2.0993,2.1175,2.1321,2.1704,2.2356,2.217,2.2063,2.2692,2.2601,2.2646,2.2783,2.2888,2.2752,2.2569,2.2417,2.2263,2.186,2.1609,2.1561,2.1609,2.1813,2.1969,2.2109,2.231,2.2463,2.2692,2.2814,2.2859,2.2859,2.2859,2.2904,2.2197,2.2197,2.2197,2.2197,2.2197,2.2197,2.2197,2.2197,2.2197,2.2197,2.2185,2.2185,2.2017,2.174,2.1692,2.1512,2.1211,2.1175,2.0887,2.0394,2.0141,1.9901,1.9636,1.9901,1.9992,1.9744,1.9444,1.9179,1.8987,1.8987,1.8987,1.9093,1.9344,1.9643,1.9798,2.0459,2.066,2.0582,2.0623,2.0521,2.0102,1.9575,1.9172,1.8874,1.8567,1.8341,1.8244,1.8109,1.8149,1.8361,1.8228,1.8029,1.7975,1.7557,1.7338,1.7421,1.7828,1.8042,1.772,1.8149,1.84,1.8307,1.8464,1.8503,1.8347,1.8386,1.823,1.8153,1.8395,1.9019,1.9597,1.9814,2.0038,2.0109,2.0126,2.0093,2.0055,1.9901,1.9952,2.0055,2.0156,2.0105,2.0194,2.0795,2.1251,2.1623,2.186,2.2049,2.2601,2.2356,2.2555,2.2692,2.2706,2.2752,2.2843,2.2888,2.2888,2.2797,2.2661,2.2509,2.2249,2.2203,2.2156,2.2217,2.237,2.2402,2.254,2.2752,2.2947,2.3201,2.3231,2.3142,2.3008,2.3068,2.3068,2.2197,2.2197,2.2197,2.2197,2.2197,2.2197,2.2197,2.2197,2.2197,2.2197,2.2197,2.2197,2.2185,2.2173,2.2101,2.2065,2.2161,2.2053,2.1801,2.1356,2.0983,2.0694,2.0598,2.0418,2.0165,1.9937,1.9708,1.9408,1.9011,1.8987,1.8987,1.904,1.9093,1.9239,1.9643,1.9798,2.0144,2.038,2.0074,1.9887,1.9821,1.9261,1.8676,1.8218,1.8096,1.7982,1.7733,1.7516,1.7652,1.8189,1.7611,1.724,1.7157,1.6778,1.6607,1.6637,1.7338,1.7475,1.7434,1.7949,1.8228,1.7855,1.8135,1.8307,1.7962,1.8055,1.8166,1.8187,1.8425,1.899,1.9846,1.9991,2.0048,2.0529,2.0471,2.0409,2.0459,2.0055,2.0055,2.0409,2.061,2.0597,2.0597,2.1431,2.1874,2.217,2.2356,2.2509,2.2752,2.2706,2.2797,2.2843,2.2797,2.2843,2.2888,2.2888,2.2888,2.2843,2.2797,2.2706,2.2601,2.2601,2.2601,2.2706,2.2752,2.2843,2.2888,2.2992,2.3037,2.3023,2.3068,2.3068,2.3112,2.3068,2.3082,2.2197,2.2197,2.2197,2.2197,2.2197,2.2197,2.2197,2.2197,2.2197,2.2197,2.2197,2.2197,2.2197,2.2197,2.2197,2.2197,2.2197,2.2197,2.2161,2.1993,2.1873,2.1536,2.1055,2.0382,2.0177,2.0273,1.9696,1.9131,1.8999,1.8999,1.8987,1.8987,1.8987,1.9093,1.9239,1.9592,1.985,2.0042,2.0293,2.0312,2.0187,1.9773,1.9285,1.8689,1.8252,1.7798,1.74,1.7282,1.7282,1.7447,1.7018,1.6863,1.7073,1.6735,1.6491,1.6607,1.7214,1.7421,1.7018,1.7475,1.776,1.7447,1.7801,1.7922,1.7841,1.8135,1.8178,1.8235,1.8719,1.9435,1.9731,2.026,2.0815,2.1024,2.0597,2.0156,2.0105,1.9888,2.0003,2.0446,2.061,2.0795,2.1175,2.1417,2.1827,2.2123,2.217,2.2203,2.2646,2.2706,2.2661,2.2843,2.2843,2.2888,2.2888,2.2888,2.2888,2.2888,2.2843,2.2843,2.2783,2.2783,2.2797,2.2843,2.2843,2.2888,2.2888,2.2933,2.2888,2.2888,2.2933,2.2978,2.2978,2.2933,2.2978,2.2522,2.2498,2.2282,2.2197,2.2197,2.2197,2.2197,2.2197,2.2197,2.2197,2.2197,2.2197,2.2197,2.2197,2.2197,2.2197,2.2197,2.2197,2.2185,2.2185,2.2161,2.1993,2.162,2.1007,2.0863,2.0815,2.0069,1.96,1.9324,1.9107,1.8999,1.8987,1.8987,1.8987,1.904,1.9291,1.9448,1.95,1.9811,1.9952,1.9914,1.9643,1.9046,1.844,1.7904,1.7467,1.6784,1.6778,1.6989,1.7073,1.6778,1.665,1.6808,1.6466,1.6231,1.6219,1.6892,1.6921,1.6552,1.7005,1.731,1.7102,1.7434,1.7679,1.772,1.8109,1.8377,1.8767,1.9337,1.9822,2.0286,2.0812,2.1121,2.1175,2.0733,2.0396,2.0497,2.0547,2.0597,2.0845,2.0944,2.114,2.167,2.1718,2.2016,2.231,2.2356,2.2495,2.2737,2.2555,2.2523,2.2752,2.2888,2.2888,2.2888,2.2888,2.2888,2.2888,2.2888,2.2888,2.2888,2.2888,2.2888,2.2888,2.2888,2.2888,2.2888,2.2888,2.2888,2.2888,2.2888,2.2888,2.2888,2.2888,2.2888,2.3063,2.3015,2.2486,2.227,2.2282,2.2221,2.2197,2.2197,2.2197,2.2197,2.2197,2.2197,2.2197,2.2197,2.2197,2.2197,2.2197,2.2197,2.2197,2.2197,2.2197,2.2137,2.2065,2.168,2.1476,2.1199,2.0779,2.0153,1.9636,1.9227,1.9011,1.8987,1.8987,1.8987,1.8987,1.904,1.904,1.9093,1.9146,1.9198,1.9198,1.9109,1.8661,1.7897,1.7424,1.6845,1.6256,1.6219,1.6595,1.7018,1.665,1.6448,1.6392,1.6001,1.5836,1.5913,1.6306,1.6392,1.6057,1.665,1.6934,1.665,1.7293,1.7692,1.7661,1.8276,1.9099,1.9578,1.9775,2.0452,2.1266,2.1382,2.1369,2.1479,2.1382,2.1369,2.1465,2.1465,2.1417,2.1479,2.1479,2.1732,2.2063,2.231,2.2417,2.2601,2.2601,2.2692,2.2843,2.2752,2.2752,2.2843,2.2888,2.2888,2.2888,2.2888,2.2888,2.2888,2.2888,2.2888,2.2888,2.2888,2.2888,2.2888,2.2888,2.2888,2.2888,2.2888,2.2888,2.2888,2.2888,2.2888,2.2888,2.2888,2.2888,2.3604,2.3556,2.3039,2.2811,2.2739,2.2378,2.2197,2.2197,2.2197,2.2197,2.2197,2.2197,2.2197,2.2197,2.2197,2.2197,2.2197,2.2197,2.2197,2.2197,2.2197,2.2197,2.1993,2.1464,2.1175,2.1019,1.9973,1.9552,1.9564,1.9287,1.8987,1.8987,1.8987,1.8987,1.8987,1.8987,1.8987,1.8987,1.8987,1.8987,1.8987,1.8975,1.8674,1.7977,1.7243,1.6476,1.596,1.5881,1.6001,1.6044,1.6044,1.6013,1.5969,1.5881,1.5792,1.5881,1.6175,1.6262,1.6013,1.6262,1.6479,1.6262,1.7191,1.7995,1.8034,1.9152,1.9894,2.0354,2.0662,2.1206,2.1937,2.2123,2.2077,2.2077,2.2077,2.2123,2.2338,2.1827,2.167,2.1921,2.203,2.2217,2.2661,2.2692,2.2797,2.2888,2.2888,2.2888,2.2888,2.2888,2.2888,2.2888,2.2888,2.2888,2.2888,2.2888,2.2888,2.2888,2.2888,2.2888,2.2888,2.2888,2.2888,2.2888,2.2888,2.2888,2.2888,2.2888,2.2888,2.2888,2.2888,2.2888,2.2888,2.2888,2.2888,2.3989,2.3713,2.3195,2.2835,2.2582,2.2306,2.2197,2.2197,2.2197,2.2197,2.2197,2.2197,2.2197,2.2197,2.2197,2.2197,2.2197,2.2197,2.2197,2.2197,2.2197,2.2197,2.2065,2.1452,2.1127,2.1199,2.0358,1.9877,1.9648,1.9287,1.8987,1.8987,1.8987,1.8987,1.8987,1.8987,1.8987,1.8987,1.8987,1.8987,1.8987,1.8987,1.8746,1.8109,1.7219,1.6416,1.62,1.5912,1.5816,1.5792,1.5804,1.5792,1.5792,1.5792,1.5792,1.5881,1.6013,1.6088,1.5969,1.6025,1.6166,1.6185,1.7187,1.7856,1.8477,1.9497,2.0251,2.0735,2.1117,2.1555,2.2193,2.1983,2.2091,2.237,2.2278,2.2338,2.2598,2.2338,2.2123,2.2463,2.2523,2.2615,2.2797,2.2888,2.2888,2.2888,2.2888,2.2888,2.2888,2.2888,2.2888,2.2888,2.2888,2.2888,2.2888,2.2888,2.2888,2.2888,2.2888,2.2888,2.2888,2.2888,2.2888,2.2888,2.2888,2.2888,2.2888,2.2888,2.2888,2.2888,2.2888,2.2888,2.2888,2.2888,2.2888,2.4338,2.3845,2.3316,2.2787,2.233,2.2234,2.2197,2.2197,2.2197,2.2197,2.2197,2.2197,2.2197,2.2197,2.2197,2.2197,2.2197,2.2197,2.2197,2.2197,2.2197,2.2197,2.2053,2.1656,2.1247,2.1235,2.0574,2.0141,1.972,1.9287,1.9011,1.8987,1.8987,1.8987,1.8987,1.8987,1.8987,1.8987,1.8987,1.8987,1.8987,1.8975,1.8722,1.8133,1.7532,1.6931,1.6726,1.638,1.6068,1.5924,1.59,1.5864,1.5804,1.5792,1.5792,1.5792,1.5836,1.5836,1.5836,1.586,1.6041,1.657,1.7189,1.7969,1.8885,1.9699,2.0511,2.1108,2.1583,2.1664,2.2021,2.1949,2.1935,2.2137,2.2044,2.2245,2.2598,2.2809,2.2749,2.2797,2.2797,2.2797,2.2843,2.2888,2.2888,2.2888,2.2888,2.2888,2.2888,2.2888,2.2888,2.2888,2.2888,2.2888,2.2888,2.2888,2.2888,2.2888,2.2888,2.2888,2.2888,2.2888,2.2888,2.2888,2.2888,2.2888,2.2888,2.2888,2.2888,2.2888,2.2888,2.2888,2.2888,2.2888,2.2888,2.4879,2.435,2.3845,2.3328,2.2811,2.2378,2.2197,2.2197,2.2197,2.2197,2.2197,2.2197,2.2197,2.2197,2.2197,2.2197,2.2197,2.2197,2.2197,2.2197,2.2197,2.2197,2.2089,2.174,2.1247,2.0682,2.0286,1.9973,1.9648,1.9275,1.9011,1.8987,1.8987,1.8987,1.8987,1.8987,1.8987,1.8987,1.8987,1.8987,1.8987,1.8963,1.8782,1.8313,1.7929,1.764,1.7339,1.7183,1.6955,1.6512,1.6452,1.62,1.5936,1.5828,1.5792,1.5792,1.5792,1.5792,1.5792,1.5828,1.608,1.6662,1.7439,1.8443,1.9491,2.0414,2.109,2.1709,2.1959,2.1965,2.1732,2.1902,2.2044,2.2091,2.2231,2.2477,2.2704,2.2795,2.2841,2.2902,2.2888,2.2888,2.2888,2.2888,2.2888,2.2888,2.2888,2.2888,2.2888,2.2888,2.2888,2.2888,2.2888,2.2888,2.2888,2.2888,2.2888,2.2888,2.2888,2.2888,2.2888,2.2888,2.2888,2.2888,2.2888,2.2888,2.2888,2.2888,2.2888,2.2888,2.2888,2.2888,2.2888,2.2888,2.2888,2.459,2.4085,2.358,2.3051,2.2582,2.2306,2.2197,2.2197,2.2197,2.2197,2.2197,2.2197,2.2197,2.2197,2.2197,2.2197,2.2197,2.2197,2.2197,2.2197,2.2197,2.2197,2.2185,2.1885,2.132,2.0767,2.031,1.9817,1.9396,1.9131,1.8999,1.8987,1.8987,1.8987,1.8987,1.8987,1.8987,1.8987,1.8987,1.8987,1.8987,1.8987,1.8819,1.865,1.835,1.8085,1.7869,1.7508,1.7315,1.6979,1.6762,1.651,1.6212,1.5972,1.5816,1.5828,1.5816,1.5816,1.5876,1.602,1.6464,1.7003,1.78,1.8672,1.962,2.0526,2.1348,2.1983,2.217,2.2137,2.1949,2.203,2.1983,2.2137,2.2278,2.2491,2.2689,2.2826,2.2857,2.2902,2.2888,2.2888,2.2888,2.2888,2.2888,2.2888,2.2888,2.2888,2.2888,2.2888,2.2888,2.2888,2.2888,2.2888,2.2888,2.2888,2.2888,2.2888,2.2888,2.2888,2.2888,2.2888,2.2888,2.2888,2.2888,2.2888,2.2888,2.2888,2.2888,2.2888,2.2888,2.2888,2.2888,2.2888,2.2888,2.4326,2.3737,2.3316,2.2775,2.2246,2.2197,2.2197,2.2197,2.2197,2.2197,2.2197,2.2197,2.2197,2.2197,2.2197,2.2197,2.2197,2.2197,2.2197,2.2197,2.2197,2.2197,2.2161,2.1849,2.1344,2.0682,2.0129,1.9884,1.9215,1.9011,1.8999,1.8987,1.8987,1.8987,1.8987,1.8987,1.8987,1.8987,1.8987,1.8987,1.8987,1.8987,1.8987,1.8987,1.8566,1.8386,1.8313,1.8061,1.7772,1.7544,1.7243,1.6883,1.675,1.639,1.6128,1.6092,1.602,1.6008,1.6236,1.6476,1.7015,1.7532,1.7929,1.8717,1.9648,2.0495,2.1237,2.1983,2.2231,2.217,2.2077,2.1996,2.2044,2.2184,2.2278,2.2338,2.2675,2.2857,2.2888,2.2888,2.2888,2.2888,2.2888,2.2888,2.2888,2.2888,2.2888,2.2888,2.2888,2.2888,2.2888,2.2888,2.2888,2.2888,2.2888,2.2888,2.2888,2.2888,2.2888,2.2888,2.2888,2.2888,2.2888,2.2888,2.2888,2.2888,2.2888,2.2888,2.2888,2.2888,2.2888,2.2888,2.2888,2.2888,2.2888,2.465,2.3839,2.3701,2.3111,2.2282,2.2209,2.2197,2.2197,2.2197,2.2197,2.2197,2.2197,2.2197,2.2197,2.2197,2.2197,2.2197,2.2197,2.2197,2.2197,2.2197,2.2197,2.2041,2.1139,2.0983,2.0502,1.9732,1.9191,1.8999,1.8987,1.8987,1.8987,1.8987,1.8987,1.8987,1.8987,1.8987,1.8987,1.8987,1.8987,1.8987,1.8987,1.8987,1.8963,1.8903,1.8831,1.8794,1.8638,1.8494,1.8121,1.8037,1.776,1.7412,1.7243,1.7231,1.7099,1.6907,1.6691,1.7063,1.7255,1.7484,1.7917,1.8193,1.879,1.9712,2.0646,2.1444,2.2278,2.237,2.231,2.2231,2.2399,2.2445,2.2477,2.2569,2.2661,2.2888,2.2857,2.2888,2.2888,2.2888,2.2888,2.2888,2.2888,2.2888,2.2888,2.2888,2.2888,2.2888,2.2888,2.2888,2.2888,2.2888,2.2888,2.2888,2.2888,2.2888,2.2888,2.2888,2.2888,2.2888,2.2888,2.2888,2.2888,2.2888,2.2888,2.2888,2.2888,2.2888,2.2888,2.2888,2.2888,2.2888,2.2888,2.2888,2.4867,2.4145,2.3556,2.3075,2.2618,2.233,2.2197,2.2197,2.2197,2.2197,2.2197,2.2197,2.2197,2.2197,2.2197,2.2197,2.2197,2.2197,2.2197,2.2197,2.2197,2.2197,2.2029,2.1428,2.0971,2.0442,1.9865,1.9348,1.9119,1.8987,1.8987,1.8987,1.8987,1.8987,1.8987,1.8987,1.8987,1.8987,1.8987,1.8987,1.8987,1.8987,1.8987,1.8987,1.8987,1.8987,1.8987,1.8987,1.8903,1.859,1.8422,1.8121,1.7832,1.7628,1.7496,1.7832,1.7664,1.7508,1.7448,1.7712,1.7977,1.8205,1.8497,1.9175,2.0067,2.0759,2.1492,2.2324,2.2463,2.2417,2.237,2.2644,2.2658,2.2689,2.2721,2.2797,2.2888,2.2888,2.2888,2.2888,2.2888,2.2888,2.2888,2.2888,2.2888,2.2888,2.2888,2.2888,2.2888,2.2888,2.2888,2.2888,2.2888,2.2888,2.2888,2.2888,2.2888,2.2888,2.2888,2.2888,2.2888,2.2888,2.2888,2.2888,2.2888,2.2888,2.2888,2.2888,2.2888,2.2888,2.2888,2.2888,2.2888,2.2888,2.2888,2.4879,2.4434,2.3544,2.3039,2.2763,2.2354,2.2197,2.2197,2.2197,2.2197,2.2197,2.2197,2.2197,2.2197,2.2197,2.2197,2.2197,2.2197,2.2197,2.2197,2.2197,2.2197,2.2017,2.162,2.1091,2.061,2.0009,1.948,1.9119,1.8987,1.8987,1.8987,1.8987,1.8987,1.8987,1.8987,1.8987,1.8987,1.8987,1.8987,1.8987,1.8987,1.8987,1.8987,1.8987,1.8987,1.8987,1.8987,1.8975,1.8879,1.8662,1.8458,1.835,1.8157,1.8097,1.8338,1.8326,1.8205,1.8121,1.8217,1.8362,1.8518,1.8766,1.9386,2.0383,2.0759,2.1251,2.237,2.2463,2.2555,2.2601,2.2689,2.2749,2.2735,2.2826,2.2857,2.2902,2.2888,2.2888,2.2888,2.2888,2.2888,2.2888,2.2888,2.2888,2.2888,2.2888,2.2888,2.2888,2.2888,2.2888,2.2888,2.2888,2.2888,2.2888,2.2888,2.2888,2.2888,2.2888,2.2888,2.2888,2.2888,2.2888,2.2888,2.2888,2.2888,2.2888,2.2888,2.2888,2.2888,2.2888,2.2888,2.2888,2.2888,2.2888,2.4554,2.447,2.3917,2.3135,2.2306,2.2221,2.2197,2.2197,2.2197,2.2197,2.2197,2.2197,2.2197,2.2197,2.2197,2.2197,2.2197,2.2197,2.2197,2.2197,2.2197,2.2197,2.2017,2.1656,2.1151,2.0658,2.0081,1.9516,1.9131,1.9023,1.9011,1.8987,1.8987,1.8987,1.8987,1.8987,1.8987,1.8987,1.8987,1.8987,1.8987,1.8987,1.8987,1.8987,1.8987,1.8987,1.8987,1.8987,1.8987,1.8987,1.8879,1.8831,1.8758,1.8686,1.871,1.8758,1.8806,1.8722,1.871,1.871,1.8867,1.8927,1.9056,1.95,2.0459,2.061,2.1299,2.2231,2.2263,2.2417,2.2523,2.2615,2.2583,2.2781,2.2826,2.2872,2.2857,2.2888,2.2888,2.2888,2.2888,2.2888,2.2888,2.2888,2.2888,2.2888,2.2888,2.2888,2.2888,2.2888,2.2888,2.2888,2.2888,2.2888,2.2888,2.2888,2.2888,2.2888,2.2888,2.2888,2.2888,2.2888,2.2888,2.2888,2.2888,2.2888,2.2888,2.2888,2.2888,2.2888,2.2888,2.2888,2.2888,2.2888,2.2888,2.4145,2.3568,2.3364,2.3051,2.2654,2.233,2.2197,2.2197,2.2197,2.2197,2.2197,2.2197,2.2197,2.2197,2.2197,2.2197,2.2197,2.2197,2.2197,2.2197,2.2197,2.2197,2.2005,2.1716,2.1284,2.0923,2.0261,1.9732,1.9504,1.9155,1.9011,1.8987,1.8987,1.8987,1.8987,1.8987,1.8987,1.8987,1.8987,1.8987,1.8987,1.8987,1.8987,1.8987,1.8987,1.8987,1.8987,1.8987,1.8987,1.8987,1.8987,1.8987,1.8987,1.8987,1.8987,1.8987,1.8987,1.8987,1.8987,1.8987,1.8987,1.9052,1.9105,1.946,2.0359,2.0597,2.0944,2.1541,2.1935,2.2091,2.2184,2.2184,2.2245,2.2644,2.2841,2.2872,2.2857,2.2888,2.2888,2.2888,2.2888,2.2888,2.2888,2.2888,2.2888,2.2888,2.2888,2.2888,2.2888,2.2888,2.2888,2.2888,2.2888,2.2888,2.2888,2.2888,2.2888,2.2888,2.2888,2.2888,2.2888,2.2888,2.2888,2.2888,2.2888,2.2888,2.2888,2.2888,2.2888,2.2888,2.2888,2.2888,2.2888,2.2888,2.2888,2.364,2.2991,2.2811,2.2751,2.269,2.2354,2.2197,2.2197,2.2197,2.2197,2.2197,2.2197,2.2197,2.2197,2.2197,2.2197,2.2197,2.2197,2.2197,2.2197,2.2197,2.2197,2.2053,2.1849,2.1572,2.1235,2.0586,2.0009,1.9696,1.9227,1.9047,1.8987,1.8987,1.8987,1.8987,1.8987,1.8987,1.8987,1.8987,1.8987,1.8987,1.8987,1.8987,1.8987,1.8987,1.8987,1.8987,1.8987,1.8987,1.8987,1.8987,1.8987,1.8987,1.8987,1.8987,1.8987,1.8987,1.8987,1.8987,1.8987,1.8987,1.9052,1.9117,1.9473,1.9952,2.0446,2.0696,2.1042,2.1396,2.1698,2.1855,2.1949,2.2231,2.2661,2.2795,2.2841,2.2857,2.2888,2.2888,2.2888,2.2888,2.2888,2.2888,2.2888,2.2888,2.2888,2.2888,2.2888,2.2888,2.2888,2.2888,2.2888,2.2888,2.2888,2.2888,2.2888,2.2888,2.2888,2.2888,2.2888,2.2888,2.2888,2.2888,2.2888,2.2888,2.2888,2.2888,2.2888,2.2888,2.2888,2.2888,2.2888,2.2888,2.2888,2.2888,2.3027,2.2919,2.2438,2.2234,2.227,2.2209,2.2197,2.2197,2.2197,2.2197,2.2197,2.2197,2.2197,2.2197,2.2197,2.2197,2.2197,2.2197,2.2197,2.2197,2.2197,2.2197,2.2173,2.2053,2.1849,2.1368,2.0779,2.0213,1.9841,1.9263,1.9047,1.8987,1.8987,1.8987,1.8987,1.8987,1.8987,1.8987,1.8987,1.8987,1.8987,1.8987,1.8987,1.8987,1.8987,1.8987,1.8987,1.8987,1.8987,1.8987,1.8987,1.8987,1.8987,1.8987,1.8987,1.8987,1.8987,1.8987,1.8987,1.8987,1.8987,1.9052,1.9117,1.9433,1.985,2.0144,2.0333,2.0746,2.1104,2.141,2.165,2.1902,2.2217,2.2615,2.2735,2.2841,2.2857,2.2888,2.2888,2.2888,2.2888,2.2888,2.2888,2.2888,2.2888,2.2888,2.2888,2.2888,2.2888,2.2888,2.2888,2.2888,2.2888,2.2888,2.2888,2.2888,2.2888,2.2888,2.2888,2.2888,2.2888,2.2888,2.2888,2.2888,2.2888,2.2888,2.2888,2.2888,2.2888,2.2888,2.2888,2.2888,2.2888,2.2888,2.2888,2.2775,2.245,2.227,2.2197,2.2197,2.2197,2.2197,2.2197,2.2197,2.2197,2.2197,2.2197,2.2197,2.2197,2.2197,2.2197,2.2197,2.2197,2.2197,2.2197,2.2197,2.2197,2.2197,2.2173,2.2065,2.1728,2.1139,2.0538,2.0334,1.9444,1.9047,1.8987,1.8987,1.8987,1.8987,1.8987,1.8987,1.8987,1.8987,1.8987,1.8987,1.8987,1.8987,1.8987,1.8987,1.8987,1.8987,1.8987,1.8987,1.8987,1.8987,1.8987,1.8987,1.8987,1.8987,1.8987,1.8987,1.8987,1.8987,1.8987,1.8987,1.9052,1.917,1.9275,1.946,2.0207,2.0396,2.0484,2.0795,2.1202,2.1746,2.1492,2.1718,2.2601,2.2826,2.2826,2.2857,2.2888,2.2888,2.2888,2.2888,2.2888,2.2888,2.2888,2.2888,2.2888,2.2888,2.2888,2.2888,2.2888,2.2888,2.2888,2.2888,2.2888,2.2888,2.2888,2.2888,2.2888,2.2888,2.2888,2.2888,2.2888,2.2888,2.2888,2.2888,2.2888,2.2888,2.2888,2.2888,2.2888,2.2888,2.2888,2.2888,2.2888,2.2888,2.2736,2.2775,2.2359,2.2359,2.242,2.2309,2.2197,2.2197,2.2197,2.2197,2.2197,2.2197,2.2197,2.2197,2.2197,2.2197,2.2197,2.2197,2.2197,2.2197,2.2197,2.2197,2.2197,2.2149,2.2005,2.174,2.1127,2.0526,2.0177,1.9408,1.9047,1.8987,1.8987,1.8987,1.8987,1.8987,1.8987,1.8987,1.8987,1.8987,1.8987,1.8987,1.8987,1.8987,1.8987,1.8987,1.8987,1.8987,1.8987,1.8987,1.8987,1.8987,1.8987,1.8987,1.8987,1.8987,1.8987,1.8987,1.8987,1.8987,1.8987,1.9052,1.9117,1.917,1.9223,1.9759,1.9914,2.0055,2.0497,2.0894,2.1299,2.0993,2.1827,2.2706,2.2797,2.2812,2.2857,2.2888,2.2888,2.2888,2.2888,2.2888,2.2888,2.2888,2.2888,2.2888,2.2888,2.2888,2.2888,2.2888,2.2888,2.2888,2.2888,2.2888,2.2888,2.2888,2.2888,2.2888,2.2888,2.2888,2.2888,2.2888,2.2888,2.2888,2.2888,2.2888,2.2888,2.2888,2.2888,2.2888,2.2888,2.2888,2.2888,2.2888,2.2888,2.2944,2.3741,2.2775,2.2653,2.298,2.2531,2.2247,2.2197,2.2197,2.2197,2.2197,2.2197,2.2197,2.2197,2.2197,2.2197,2.2197,2.2197,2.2197,2.2197,2.2197,2.2173,2.2101,2.2065,2.1765,2.1332,2.0791,2.0213,1.978,1.9263,1.9011,1.8987,1.8987,1.8987,1.8987,1.8987,1.8987,1.8987,1.8987,1.8987,1.8987,1.8987,1.8987,1.8987,1.8987,1.8987,1.8987,1.8987,1.8987,1.8987,1.8987,1.8987,1.8987,1.8987,1.8987,1.8987,1.8987,1.8987,1.8987,1.8987,1.8987,1.904,1.9105,1.9105,1.921,1.9512,1.9759,1.9965,2.0359,2.0459,2.061,2.1396,2.2245,2.2569,2.2692,2.2797,2.2843,2.2888,2.2888,2.2888,2.2888,2.2888,2.2888,2.2888,2.2888,2.2888,2.2888,2.2888,2.2888,2.2888,2.2888,2.2888,2.2888,2.2888,2.2888,2.2888,2.2888,2.2888,2.2888,2.2888,2.2888,2.2888,2.2888,2.2888,2.2888,2.2888,2.2888,2.2888,2.2888,2.2888,2.2888,2.2888,2.2888,2.2888,2.2888,2.3943,2.4163,2.3904,2.3904,2.3813,2.316,2.258,2.2247,2.2197,2.2197,2.2197,2.2197,2.2197,2.2197,2.2197,2.2197,2.2197,2.2197,2.2197,2.2161,2.2041,2.1897,2.1753,2.1596,2.1284,2.0827,2.0346,1.9973,1.9708,1.9227,1.8987,1.8987,1.8987,1.8987,1.8987,1.8987,1.8987,1.8987,1.8987,1.8987,1.8987,1.8987,1.8987,1.8987,1.8987,1.8987,1.8987,1.8987,1.8987,1.8987,1.8987,1.8987,1.8987,1.8987,1.8987,1.8987,1.8987,1.8987,1.8987,1.8987,1.8987,1.8987,1.9052,1.9117,1.9223,1.9473,1.9759,2.0016,2.0258,2.051,2.0908,2.165,2.2292,2.2523,2.2692,2.2843,2.2888,2.2888,2.2888,2.2888,2.2888,2.2888,2.2888,2.2888,2.2888,2.2888,2.2888,2.2888,2.2888,2.2888,2.2888,2.2888,2.2888,2.2888,2.2888,2.2888,2.2888,2.2888,2.2888,2.2888,2.2888,2.2888,2.2888,2.2888,2.2888,2.2888,2.2888,2.2888,2.2888,2.2888,2.2888,2.2888,2.2888,2.2888,2.2888,2.4667,2.5021,2.4624,2.4208,2.3741,2.31,2.2592,2.2247,2.2197,2.2197,2.2197,2.2197,2.2197,2.2197,2.2197,2.2185,2.2185,2.1921,2.1825,2.1789,2.1704,2.138,2.1163,2.1043,2.0742,2.031,1.9973,1.9684,1.9468,1.9239,1.8987,1.8987,1.8987,1.8987,1.8987,1.8987,1.8987,1.8987,1.8987,1.8987,1.8987,1.8987,1.8987,1.8987,1.8987,1.8987,1.8987,1.8987,1.8987,1.8987,1.8987,1.8987,1.8987,1.8987,1.8987,1.8987,1.8987,1.8987,1.8987,1.8987,1.904,1.904,1.9052,1.921,1.9316,1.9565,1.9759,1.9965,2.0308,2.0709,2.1202,2.1698,2.2137,2.2523,2.2706,2.2888,2.2888,2.2888,2.2888,2.2888,2.2888,2.2888,2.2888,2.2888,2.2888,2.2888,2.2888,2.2888,2.2888,2.2888,2.2888,2.2888,2.2888,2.2888,2.2888,2.2888,2.2888,2.2888,2.2888,2.2888,2.2888,2.2888,2.2888,2.2888,2.2888,2.2888,2.2888,2.2888,2.2888,2.2888,2.2888,2.2888,2.2888,2.2888,2.2933,2.5329,2.6165,2.4978,2.4163,2.3255,2.2871,2.2445,2.2199,2.2223,2.2197,2.2197,2.2197,2.2197,2.2197,2.2197,2.2113,2.1957,2.1668,2.144,2.1344,2.1031,2.0742,2.0598,2.049,2.0201,1.9889,1.9636,1.9408,1.9131,1.8987,1.8987,1.8987,1.8987,1.8987,1.8987,1.8987,1.8987,1.8987,1.8987,1.8987,1.8987,1.8987,1.8987,1.8987,1.8987,1.8987,1.8987,1.8987,1.8987,1.8987,1.8987,1.8987,1.8987,1.8987,1.8987,1.8987,1.8987,1.8987,1.8987,1.8987,1.9052,1.9105,1.9182,1.9328,1.9473,1.9512,1.9708,1.9914,2.0258,2.0696,2.1188,2.1732,2.2217,2.2569,2.2752,2.2843,2.2888,2.2888,2.2888,2.2888,2.2888,2.2888,2.2888,2.2888,2.2888,2.2888,2.2888,2.2888,2.2888,2.2888,2.2888,2.2888,2.2888,2.2888,2.2888,2.2888,2.2888,2.2888,2.2888,2.2888,2.2888,2.2888,2.2888,2.2888,2.2888,2.2888,2.2888,2.2888,2.2888,2.2888,2.2888,2.2933,2.2933,2.2933,2.2978,2.6176,2.6404,2.5988,2.5412,2.4654,2.3904,2.3073,2.2288,2.2262,2.2199,2.2185,2.2173,2.2161,2.2125,2.2065,2.1921,2.156,2.1296,2.1139,2.0875,2.0538,2.0189,2.0045,1.9961,1.9727,1.9336,1.9155,1.9167,1.9035,1.8987,1.8987,1.8987,1.8987,1.8987,1.8987,1.8987,1.8987,1.8987,1.8987,1.8987,1.8987,1.8987,1.8987,1.8987,1.8987,1.8987,1.8987,1.8987,1.8987,1.8987,1.8987,1.8987,1.8987,1.8987,1.8987,1.8987,1.8987,1.8987,1.9052,1.9052,1.9105,1.917,1.9223,1.9368,1.9512,1.9565,1.9656,1.9901,2.0207,2.0696,2.1237,2.1827,2.231,2.2555,2.2797,2.2843,2.2888,2.2888,2.2888,2.2888,2.2888,2.2888,2.2888,2.2888,2.2888,2.2888,2.2888,2.2888,2.2888,2.2888,2.2888,2.2888,2.2888,2.2888,2.2888,2.2888,2.2888,2.2888,2.2888,2.2888,2.2888,2.2888,2.2888,2.2888,2.2888,2.2888,2.2888,2.2888,2.2888,2.2947,2.2992,2.2992,2.3068,2.3112,2.3112,2.6197,2.6159,2.5792,2.5075,2.4245,2.3543,2.2898,2.2337,2.2201,2.2209,2.2154,2.1946,2.1837,2.1753,2.162,2.1428,2.1031,2.0767,2.0502,2.0261,2.0009,1.9684,1.9516,1.9468,1.9312,1.9035,1.8999,1.9011,1.8987,1.8987,1.8987,1.8987,1.8987,1.8987,1.8987,1.8987,1.8987,1.8987,1.8987,1.8987,1.8987,1.8987,1.8987,1.8987,1.8987,1.8987,1.8987,1.8987,1.8987,1.8987,1.8987,1.8987,1.8987,1.8987,1.8987,1.8987,1.8987,1.8987,1.9052,1.9117,1.917,1.9275,1.9368,1.9512,1.9656,1.9708,1.9965,2.0156,2.0359,2.0746,2.1479,2.2123,2.2449,2.2706,2.2797,2.2888,2.2888,2.2888,2.2888,2.2888,2.2888,2.2888,2.2888,2.2888,2.2888,2.2888,2.2888,2.2888,2.2888,2.2888,2.2888,2.2888,2.2888,2.2888,2.2888,2.2888,2.2888,2.2888,2.2888,2.2888,2.2888,2.2888,2.2888,2.2888,2.2888,2.2888,2.2888,2.2888,2.2933,2.2992,2.3052,2.3142,2.3216,2.329,2.329,2.5611,2.551,2.493,2.4152,2.3228,2.2778,2.2457,2.2297,2.2255,2.2187,2.2037,2.1597,2.1423,2.1233,2.0875,2.0658,2.0442,2.0225,1.9913,1.96,1.9275,1.9227,1.9167,1.9035,1.9023,1.9023,1.8999,1.8987,1.8987,1.8987,1.8987,1.8987,1.8987,1.8987,1.8987,1.8987,1.8987,1.8987,1.8987,1.8987,1.8987,1.8987,1.8987,1.8987,1.8987,1.8987,1.8987,1.8987,1.8987,1.8987,1.8987,1.8987,1.8987,1.8987,1.8987,1.8987,1.9052,1.9117,1.9182,1.9235,1.9368,1.9512,1.9565,1.9656,1.9747,1.9952,2.0207,2.0497,2.0646,2.1042,2.1779,2.231,2.2601,2.2783,2.2843,2.2888,2.2888,2.2888,2.2888,2.2888,2.2888,2.2888,2.2888,2.2888,2.2888,2.2888,2.2888,2.2888,2.2888,2.2888,2.2888,2.2888,2.2888,2.2888,2.2888,2.2888,2.2888,2.2888,2.2888,2.2888,2.2888,2.2888,2.2888,2.2888,2.2888,2.2888,2.2933,2.2933,2.2992,2.3097,2.3216,2.326,2.3334,2.3422,2.3451,2.4805,2.454,2.4439,2.4188,2.3895,2.3368,2.2929,2.2627,2.2419,2.2127,2.1786,2.1575,2.1373,2.1381,2.0855,2.043,1.9937,1.972,1.9444,1.9131,1.9059,1.9011,1.8987,1.8987,1.8987,1.8987,1.8987,1.8987,1.9052,1.9052,1.8987,1.8987,1.8987,1.8987,1.8987,1.8987,1.8987,1.8987,1.8987,1.8987,1.8987,1.8987,1.8987,1.8987,1.8987,1.8987,1.8987,1.8987,1.8987,1.8987,1.8987,1.8987,1.8987,1.8987,1.8987,1.9052,1.9105,1.917,1.9223,1.9328,1.946,1.9617,1.9656,1.9656,1.9901,2.0207,2.0547,2.1028,2.1272,2.1541,2.2123,2.2555,2.2843,2.2843,2.2888,2.2888,2.2888,2.2888,2.2888,2.2888,2.2888,2.2888,2.2888,2.2888,2.2888,2.2888,2.2888,2.2888,2.2888,2.2888,2.2888,2.2888,2.2888,2.2888,2.2888,2.2888,2.2888,2.2888,2.2888,2.2888,2.2888,2.2888,2.2888,2.2888,2.2888,2.2888,2.2933,2.2933,2.3037,2.3142,2.3349,2.3466,2.3466,2.3494,2.3538]},{"header":{"parameterUnit":"m.s-1","parameterCategory":1,"la1":31.0,"la2":29.5877,"lo1":-88.7671,"lo2":-86.6584,"dy":0.0162,"dx":0.0185,"nx":115,"ny":88,"refTime":"2024-07-12T00:00:00:Z","depth":0,"parameterNumber":3,"parameterNumberName":"V-component_of_WINDS"},"data":[0.0,0.0,0.0,0.0,0.0,0.0,0.0,0.0,0.0,0.0,0.0,0.0,0.0,0.0,0.0,0.0,0.0,0.0,0.0,0.0,0.0,0.0,0.0,0.0,0.0,0.0,0.0,0.0,0.0,0.0,0.0,0.0,0.0,0.0,0.0,0.0,0.0,0.0,0.0,0.0,0.0,0.0,0.0,0.0,0.0,0.0,0.0,0.0,0.0,0.0,0.0,0.0,0.0,0.0,0.0,0.0,0.0,0.0,0.0,0.0,0.0,0.0,0.0,0.0,0.0,0.0,0.0,0.0,0.0,0.0,0.0,0.0,0.0,0.0,0.0,0.0,0.0,0.0,0.0,0.0,0.0,0.0,0.0,0.0,0.0,0.0,0.0,0.0,0.0,0.0,0.0,0.0,0.0,0.0,0.0,0.0,0.0,0.0,0.0,0.0,0.0,0.0,0.0,0.0,0.0,0.0,0.0,0.0,0.0,0.0,0.0,0.0,0.0,0.0,0.0,0.0,0.0,0.0,0.0,0.0,0.0,0.0,0.0,0.0,0.0,0.0,0.0,0.0,0.0,0.0,0.0,0.0,0.0,0.0,0.0,0.0,0.0,0.0,0.0,0.0,0.0,0.0,0.0,0.0,0.0,0.0,0.0,0.0,0.0,0.0,0.0,0.0,0.0,0.0,0.0,0.0,0.0,0.0,0.0,0.0,0.0,0.0,0.0,0.0,0.0,0.0,0.0,0.0,0.0,0.0,0.0,0.0,0.0,0.0,0.0,0.0,0.0,0.0,0.0,0.0,0.0,0.0,0.0,0.0,0.0,0.0,0.0,0.0,0.0,0.0,0.0,0.0,0.0,0.0,0.0,0.0,0.0,0.0,0.0,0.0,0.0,0.0,0.0,0.0,0.0,0.0,0.0,0.0,0.0,0.0,0.0,0.0,0.0,0.0,0.0,0.0,0.0,0.0,0.0,0.0,0.0,0.0,0.0,0.0,0.0,0.0,0.0,0.0,0.0,0.0,0.0,0.0,0.0,0.0,0.0,0.0,0.0,0.0,0.0,0.0,0.0,0.0,0.0,0.0,0.0,0.0,0.0,0.0,0.0,0.0,0.0,0.0,0.0,0.0,0.0,0.0,0.0,0.0,0.0,0.0,0.0,0.0,0.0,0.0,0.0,0.0,0.0,0.0,0.0,0.0,0.0,0.0,0.0,0.0,0.0,0.0,0.0,0.0,0.0,0.0,0.0,0.0,0.0,0.0,0.0,0.0,0.0,0.0,0.0,0.0,0.0,0.0,0.0,0.0,0.0,0.0,0.0,0.0,0.0,0.0,0.0,0.0,0.0,0.0,0.0,0.0,0.0,0.0,0.0,0.0,0.0,0.0,0.0,0.0,0.0,0.0,0.0,0.0,0.0,0.0,0.0,0.0,0.0,0.0,0.0,0.0,0.0,0.0,0.0,0.0,0.0,0.0,0.0,0.0,0.0,0.0,0.0,0.0,0.0,0.0,0.0,0.0,0.0,0.0,0.0,0.0,0.0,0.0,0.0,0.0,0.0,0.0,0.0,0.0,0.0,0.0,0.0,0.0,0.0,0.0,0.0,0.0,0.0,0.0,0.0,0.0,0.0,0.0,0.0,0.0,0.0,0.0,0.0,0.0,0.0,0.0,0.0,0.0,0.0,0.0,0.0,0.0,0.0,0.0,0.0,0.0,0.0,0.0,0.0,0.0,0.0,0.0,0.0,0.0,0.0,0.0,0.0,0.0,0.0,0.0,0.0,0.0,0.0,0.0,0.0,0.0,0.0,0.0,0.0,0.0,0.0,0.0,0.0,0.0,0.0,0.0,0.0,0.0,0.0,0.0,0.0,0.0,0.0,0.0,0.0,0.0,0.0,0.0,0.0,0.0,0.0,0.0,0.0,0.0,0.0,0.0,0.0,0.0,0.0,0.0,0.0,0.0,0.0,0.0,0.0,0.0,0.0,0.0,0.0,0.0,0.0,0.0,0.0,0.0,0.0,0.0,0.0,0.0,0.0,0.0,0.0,0.0,0.0,0.0,0.0,0.0,0.0,0.0,0.0,0.0,0.0,0.0,0.0,0.0,0.0,0.0,0.0,0.0,0.0,0.0,0.0,0.0,0.0,0.0,0.0,0.0,0.0,0.0,0.0,0.0,0.0,0.0,0.0,0.0,0.0,0.0,0.0,0.0,0.0,0.0,0.0,0.0,0.0,0.0,0.0,0.0,0.0,0.0,0.0,0.0,0.0,0.0,0.0,0.0,0.0,0.0,0.0,0.0,0.0,0.0,0.0,0.0,0.0,0.0,0.0,0.0,0.0,0.0,0.0,0.0,0.0,0.0,0.0,0.0,0.0,0.0,0.0,0.0,0.0,0.0,0.0,0.0,0.0,0.0,0.0,0.0,0.0,0.0,0.0,0.0,0.0,0.0,0.0,0.0,0.0,0.0,0.0,0.0,0.0,0.0,0.0,0.0,0.0,0.0,0.0,0.0,0.0,0.0,0.0,0.0,0.0,0.0,0.0,0.0,0.0,0.0,0.0,0.0,0.0,0.0,0.0,0.0,0.0,0.0,0.0,0.0,0.0,0.0,0.0,0.0,0.0,0.0,0.0,0.0,0.0,0.0,0.0,0.0,0.0,0.0,0.0,0.0,0.0,0.0,0.0,0.0,0.0,0.0,0.0,0.0,0.0,0.0,0.0,0.0,0.0,0.0,0.0,0.0,0.0,0.0,0.0,0.0,0.0,0.0,0.0,0.0,0.0,0.0,0.0,0.0,0.0,0.0,0.0,0.0,0.0,0.0,0.0,0.0,0.0,0.0,0.0,0.0,0.0,0.0,0.0,0.0,0.0,0.0,0.0,0.0,0.0,0.0,0.0,0.0,0.0,0.0,0.0,0.0,0.0,0.0,0.0,0.0,0.0,0.0,0.0,0.0,0.0,0.0,0.0,0.0,0.0,0.0,0.0,0.0,0.0,0.0,0.0,0.0,0.0,0.0,0.0,0.0,0.0,0.0,0.0,0.0,0.0,0.0,0.0,0.0,0.0,0.0,0.0,0.0,0.0,0.0,0.0,0.0,0.0,0.0,0.0,0.0,0.0,0.0,0.0,0.0,0.0,0.0,0.0,0.0,0.0,0.0,0.0,0.0,0.0,0.0,0.0,0.0,0.0,0.0,0.0,0.0,0.0,0.0,0.0,0.0,0.0,0.0,0.0,0.0,0.0,0.0,0.0,0.0,0.0,0.0,0.0,0.0,0.0,0.0,0.0,0.0,0.0,0.0,0.0,0.0,0.0,0.0,0.0,0.0,0.0,0.0,0.0,0.0,0.0,0.0,0.0,0.0,0.0,0.0,0.0,0.0,0.0,0.0,0.0,0.0,0.0,0.0,0.0,0.0,0.0,0.0,0.0,0.0,0.0,0.0,0.0,0.0,0.0,0.0,0.0,0.0,0.0,0.0,0.0,0.0,0.0,0.0,0.0,0.0,0.0,0.0,0.0,0.0,0.0,0.0,0.0,0.0,0.0,0.0,0.0,0.0,0.0,0.0,0.0,0.0,0.0,0.0,0.0,0.0,0.0,0.0,0.0,0.0,0.0,0.0,0.0,0.0,0.0,0.0,0.0,0.0,0.0,0.0,0.0,0.0,0.0,0.0,0.0,0.0,0.0,0.0,0.0,0.0,0.0,0.0,0.0,0.0,0.0,0.0,0.0,0.0,0.0,0.0,0.0,0.0,0.0,0.0,0.0,0.0,0.0,0.0,0.0,0.0,0.0,0.0,0.0,0.0,0.0,0.0,0.0,0.0,0.0,0.0,0.0,0.0,0.0,0.0,0.0,0.0,0.0,0.0,0.0,0.0,0.0,0.0,0.0,0.0,0.0,0.0,0.0,0.0,0.0,0.0,0.0,0.0,0.0,0.0,0.0,0.0,0.0,0.0,0.0,0.0,0.0,0.0,0.0,0.0,0.0,0.0,0.0,0.0,0.0,0.0,0.0,0.0,0.0,0.0,0.0,0.0,0.0,0.0,0.0,0.0,0.0,0.0,0.0,0.0,0.0,0.0,0.0,0.0,0.0,0.0,0.0,0.0,0.0,0.0,0.0,0.0,0.0,0.0,0.0,0.0,0.0,0.0,0.0,0.0,0.0,0.0,0.0,0.0,0.0,0.0,0.0,0.0,0.0,0.0,0.0,0.0,0.0,0.0,0.0,0.0,0.0,0.0,0.0,0.0,0.0,0.0,0.0,0.0,0.0,0.0,0.0,0.0,-0.9142,0.0,0.0,0.0,0.0,0.0,0.0,0.0,0.0,0.0,0.0,0.0,0.0,0.0,0.0,0.0,0.0,0.0,0.0,0.0,0.0,0.0,0.0,0.0,0.0,0.0,0.0,0.0,0.0,0.0,0.0,0.0,0.0,0.0,0.0,0.0,0.0,0.0,0.0,0.0,0.0,0.0,0.0,0.0,0.0,0.0,0.0,0.0,0.0,0.0,0.0,0.0,0.0,0.0,0.0,0.0,0.0,0.0,0.0,0.0,0.0,0.0,0.0,0.0,0.0,0.0,0.0,0.0,0.0,0.0,0.0,0.0,0.0,0.0,0.0,0.0,0.0,0.0,0.0,0.0,0.0,0.0,0.0,0.0,0.0,0.0,0.0,0.0,0.0,0.0,0.0,0.0,0.0,0.0,0.0,0.0,0.0,0.0,0.0,0.0,0.0,0.0,0.0,0.0,0.0,0.0,0.0,0.0,0.0,0.0,0.0,-1.1155,-1.1085,-1.0122,-0.9491,-0.9217,0.0,0.0,0.0,0.0,0.0,0.0,0.0,0.0,0.0,0.0,0.0,0.0,0.0,0.0,0.0,0.0,0.0,0.0,0.0,0.0,0.0,0.0,0.0,0.0,0.0,0.0,0.0,0.0,0.0,0.0,0.0,0.0,0.0,0.0,0.0,0.0,0.0,0.0,0.0,0.0,0.0,0.0,0.0,0.0,0.0,0.0,0.0,0.0,0.0,0.0,0.0,0.0,0.0,0.0,0.0,0.0,0.0,0.0,0.0,0.0,0.0,0.0,0.0,0.0,0.0,0.0,0.0,0.0,0.0,0.0,0.0,0.0,0.0,0.0,0.0,0.0,0.0,0.0,0.0,0.0,0.0,0.0,0.0,0.0,0.0,0.0,0.0,0.0,0.0,0.0,0.0,0.0,0.0,0.0,0.0,0.0,0.0,0.0,0.0,0.0,0.0,0.0,0.0,0.0,0.0,0.0,0.0,0.0,0.0,0.0,0.0,0.0,-1.0072,-0.9417,-0.9192,0.0,0.0,0.0,0.0,0.0,0.0,0.0,0.0,0.0,0.0,0.0,0.0,0.0,0.0,0.0,0.0,0.0,0.0,0.0,0.0,0.0,0.0,0.0,0.0,0.0,0.0,0.0,0.0,0.0,0.0,0.0,0.0,0.0,0.0,0.0,0.0,0.0,0.0,0.0,0.0,0.0,0.0,0.0,0.0,0.0,0.0,0.0,0.0,0.0,0.0,0.0,0.0,0.0,0.0,0.0,0.0,0.0,0.0,0.0,0.0,0.0,0.0,0.0,0.0,0.0,0.0,0.0,0.0,0.0,0.0,0.0,0.0,0.0,0.0,0.0,0.0,0.0,0.0,0.0,0.0,0.0,0.0,0.0,0.0,0.0,0.0,0.0,0.0,0.0,0.0,0.0,0.0,0.0,0.0,0.0,0.0,0.0,0.0,0.0,0.0,0.0,0.0,0.0,0.0,0.0,0.0,0.0,0.0,0.0,0.0,-1.0849,-1.0729,-1.0607,0.0,-0.9198,0.0,0.0,0.0,0.0,0.0,0.0,0.0,0.0,0.0,0.0,0.0,0.0,0.0,0.0,0.0,0.0,0.0,0.0,0.0,0.0,0.0,0.0,0.0,0.0,0.0,0.0,0.0,0.0,0.0,0.0,0.0,0.0,0.0,0.0,0.0,0.0,0.0,0.0,0.0,0.0,0.0,0.0,0.0,0.0,0.0,0.0,0.0,0.0,0.0,0.0,0.0,0.0,0.0,0.0,0.0,0.0,0.0,0.0,0.0,0.0,0.0,0.0,0.0,0.0,0.0,0.0,0.0,0.0,0.0,0.0,0.0,0.0,0.0,0.0,0.0,0.0,0.0,0.0,0.0,0.0,0.0,0.0,0.0,0.0,0.0,0.0,0.0,0.0,0.0,0.0,0.0,0.0,0.0,0.0,0.0,0.0,0.0,0.0,0.0,0.0,0.0,0.0,0.0,0.0,0.0,0.0,0.0,0.0,0.0,0.0,-1.0753,-1.0718,-1.0004,-0.9253,0.0,0.0,0.0,0.0,0.0,0.0,0.0,0.0,0.0,0.0,0.0,0.0,0.0,0.0,0.0,0.0,0.0,0.0,0.0,0.0,0.0,0.0,0.0,0.0,0.0,0.0,0.0,0.0,0.0,0.0,0.0,0.0,0.0,0.0,0.0,0.0,0.0,0.0,0.0,0.0,0.0,0.0,0.0,0.0,0.0,0.0,0.0,0.0,0.0,0.0,0.0,0.0,0.0,0.0,0.0,0.0,0.0,0.0,0.0,0.0,0.0,0.0,0.0,0.0,0.0,0.0,0.0,0.0,0.0,0.0,0.0,0.0,0.0,0.0,0.0,0.0,0.0,0.0,0.0,0.0,0.0,0.0,0.0,0.0,0.0,0.0,0.0,0.0,0.0,0.0,0.0,0.0,0.0,0.0,0.0,0.0,0.0,0.0,0.0,0.0,0.0,0.0,0.0,0.0,0.0,0.0,0.0,0.0,0.0,0.0,-1.0718,0.0,-1.0423,-0.9774,-0.8961,-0.8027,0.0,0.0,0.0,0.0,0.0,0.0,0.0,0.0,0.0,0.0,0.0,0.0,0.0,0.0,0.0,0.0,0.0,0.0,0.0,0.0,0.0,0.0,0.0,0.0,0.0,0.0,0.0,0.0,0.0,0.0,0.0,0.0,0.0,0.0,0.0,0.0,0.0,0.0,0.0,0.0,0.0,0.0,0.0,0.0,0.0,0.0,0.0,0.0,0.0,0.0,0.0,0.0,0.0,0.0,0.0,0.0,0.0,0.0,0.0,0.0,0.0,0.0,0.0,0.0,0.0,0.0,0.0,0.0,0.0,0.0,0.0,0.0,0.0,0.0,0.0,0.0,0.0,0.0,0.0,0.0,0.0,0.0,0.0,0.0,0.0,0.0,0.0,0.0,0.0,0.0,0.0,0.0,0.0,0.0,0.0,0.0,0.0,0.0,0.0,0.0,0.0,0.0,0.0,0.0,0.0,0.0,0.0,0.0,0.0,-1.0718,-1.041,-0.9909,-1.0329,-0.9809,0.0,0.0,0.0,0.0,0.0,0.0,0.0,0.0,0.0,0.0,0.0,0.0,0.0,0.0,0.0,0.0,0.0,0.0,0.0,0.0,0.0,0.0,0.0,0.0,0.0,0.0,0.0,0.0,0.0,0.0,0.0,0.0,0.0,0.0,0.0,0.0,0.0,0.0,0.0,0.0,0.0,0.0,0.0,0.0,0.0,0.0,0.0,0.0,0.0,0.0,0.0,0.0,0.0,0.0,0.0,0.0,0.0,0.0,0.0,0.0,0.0,0.0,0.0,0.0,0.0,0.0,0.0,0.0,0.0,0.0,0.0,0.0,0.0,0.0,0.0,0.0,0.0,0.0,0.0,0.0,0.0,0.0,0.0,0.0,0.0,0.0,0.0,0.0,0.0,0.0,0.0,0.0,0.0,0.0,0.0,0.0,0.0,0.0,0.0,0.0,0.0,0.0,0.0,0.0,0.0,0.0,0.0,0.0,0.0,-1.0653,-1.0656,-1.0551,-1.0298,-0.9783,-0.9198,0.0,0.0,0.0,0.0,0.0,0.0,0.0,0.0,0.0,0.0,0.0,0.0,0.0,0.0,0.0,0.0,0.0,0.0,0.0,0.0,0.0,0.0,0.0,0.0,0.0,0.0,0.0,0.0,0.0,0.0,0.0,0.0,0.0,0.0,0.0,0.0,0.0,0.0,0.0,0.0,0.0,0.0,0.0,0.0,0.0,0.0,0.0,0.0,0.0,0.0,0.0,0.0,0.0,0.0,0.0,0.0,0.0,0.0,0.0,0.0,0.0,0.0,0.0,0.0,0.0,0.0,0.0,0.0,0.0,0.0,0.0,0.0,0.0,0.0,0.0,0.0,0.0,0.0,0.0,0.0,0.0,0.0,0.0,0.0,0.0,0.0,0.0,0.0,0.0,0.0,0.0,0.0,0.0,0.0,0.0,0.0,0.0,0.0,0.0,0.0,0.0,0.0,0.0,0.0,0.0,0.0,0.0,0.0,0.0,-1.0396,0.0,-1.0527,0.0,-0.9546,-0.8941,0.0,0.0,0.0,0.0,0.0,0.0,0.0,0.0,0.0,0.0,0.0,0.0,0.0,0.0,0.0,0.0,0.0,0.0,0.0,0.0,0.0,0.0,0.0,0.0,0.0,0.0,0.0,0.0,0.0,0.0,0.0,0.0,0.0,0.0,0.0,0.0,0.0,0.0,0.0,0.0,0.0,0.0,0.0,0.0,0.0,0.0,0.0,0.0,0.0,0.0,0.0,0.0,0.0,0.0,0.0,0.0,0.0,0.0,0.0,0.0,0.0,0.0,0.0,0.0,0.0,0.0,0.0,0.0,0.0,0.0,0.0,0.0,0.0,0.0,0.0,0.0,0.0,0.0,0.0,0.0,0.0,0.0,0.0,0.0,0.0,0.0,0.0,0.0,0.0,0.0,0.0,0.0,0.0,0.0,0.0,0.0,0.0,0.0,0.0,0.0,0.0,0.0,0.0,0.0,0.0,0.0,0.0,0.0,-0.9801,-0.9828,-1.0383,-1.0389,-0.9742,-0.977,-0.9204,0.0,0.0,0.0,0.0,0.0,0.0,0.0,0.0,0.0,0.0,0.0,0.0,0.0,0.0,0.0,0.0,0.0,0.0,0.0,0.0,0.0,0.0,0.0,0.0,0.0,0.0,0.0,0.0,0.0,0.0,0.0,0.0,0.0,0.0,0.0,0.0,0.0,0.0,0.0,0.0,0.0,0.0,0.0,0.0,0.0,0.0,0.0,0.0,0.0,0.0,0.0,0.0,0.0,0.0,0.0,0.0,0.0,0.0,0.0,0.0,0.0,0.0,0.0,0.0,0.0,0.0,0.0,0.0,0.0,0.0,0.0,0.0,0.0,0.0,0.0,0.0,0.0,0.0,0.0,0.0,0.0,0.0,0.0,0.0,0.0,0.0,0.0,0.0,0.0,0.0,0.0,0.0,0.0,0.0,0.0,0.0,0.0,0.0,0.0,0.0,0.0,0.0,0.0,0.0,0.0,0.0,0.0,0.0,0.0,-0.9747,-1.0217,-1.043,-1.0257,-0.9811,-0.9404,0.0,0.0,0.0,0.0,0.0,0.0,0.0,0.0,0.0,0.0,0.0,0.0,0.0,0.0,0.0,0.0,0.0,0.0,0.0,0.0,0.0,0.0,0.0,0.0,0.0,0.0,0.0,0.0,0.0,0.0,0.0,0.0,0.0,0.0,0.0,0.0,0.0,0.0,0.0,0.0,0.0,0.0,0.0,0.0,0.0,0.0,0.0,0.0,0.0,0.0,0.0,0.0,0.0,0.0,0.0,0.0,0.0,0.0,0.0,0.0,0.0,0.0,0.0,0.0,0.0,0.0,0.0,0.0,0.0,0.0,0.0,0.0,0.0,0.0,0.0,0.0,0.0,0.0,0.0,0.0,0.0,0.0,0.0,0.0,0.0,0.0,0.0,0.0,0.0,0.0,0.0,0.0,0.0,0.0,0.0,0.0,0.0,0.0,0.0,0.0,0.0,0.0,0.0,0.0,0.0,0.0,0.0,0.0,0.0,-1.0334,-1.0631,-1.0766,-1.0805,-1.0162,-0.9801,-0.9662,0.0,0.0,0.0,0.0,0.0,0.0,0.0,0.0,0.0,0.0,0.0,0.0,0.0,0.0,0.0,0.0,0.0,0.0,0.0,0.0,0.0,0.0,0.0,0.0,0.0,0.0,0.0,0.0,0.0,0.0,0.0,0.0,0.0,0.0,0.0,0.0,0.0,0.0,0.0,0.0,0.0,0.0,0.0,0.0,0.0,0.0,0.0,0.0,0.0,0.0,0.0,0.0,0.0,0.0,0.0,0.0,0.0,0.0,0.0,0.0,0.0,0.0,0.0,0.0,0.0,0.0,0.0,0.0,0.0,0.0,0.0,0.0,0.0,0.0,0.0,0.0,0.0,0.0,0.0,0.0,0.0,0.0,0.0,0.0,0.0,0.0,0.0,0.0,0.0,0.0,0.0,0.0,0.0,0.0,0.0,0.0,0.0,0.0,0.0,0.0,0.0,0.0,0.0,0.0,0.0,0.0,0.0,0.0,-1.1389,-1.1455,-1.1442,-1.1348,-1.0755,-1.0272,0.0,0.0,0.0,0.0,0.0,0.0,0.0,0.0,0.0,0.0,0.0,0.0,0.0,0.0,0.0,0.0,0.0,0.0,0.0,0.0,0.0,0.0,0.0,0.0,0.0,0.0,0.0,0.0,0.0,0.0,0.0,0.0,0.0,0.0,0.0,0.0,0.0,0.0,0.0,0.0,0.0,0.0,0.0,0.0,0.0,0.0,0.0,0.0,0.0,0.0,0.0,0.0,0.0,0.0,0.0,0.0,0.0,0.0,0.0,0.0,0.0,0.0,0.0,0.0,0.0,0.0,0.0,0.0,0.0,0.0,0.0,0.0,0.0,0.0,0.0,0.0,0.0,0.0,0.0,0.0,0.0,0.0,0.0,0.0,0.0,0.0,0.0,0.0,0.0,0.0,0.0,0.0,0.0,0.0,0.0,0.0,0.0,0.0,0.0,0.0,0.0,0.0,0.0,0.0,0.0,0.0,0.0,0.0,0.0,-1.1281,-1.2055,-1.2321,-1.19,-1.132,-1.103,0.0,0.0,0.0,0.0,0.0,0.0,0.0,0.0,0.0,0.0,0.0,0.0,0.0,0.0,0.0,0.0,0.0,0.0,0.0,0.0,0.0,0.0,0.0,0.0,0.0,0.0,0.0,0.0,0.0,0.0,0.0,0.0,0.0,0.0,0.0,0.0,0.0,0.0,0.0,0.0,0.0,0.0,0.0,0.0,0.0,0.0,0.0,0.0,0.0,0.0,0.0,0.0,0.0,0.0,0.0,0.0,0.0,0.0,0.0,0.0,0.0,0.0,0.0,0.0,0.0,0.0,0.0,0.0,0.0,0.0,0.0,0.0,0.0,0.0,0.0,0.0,0.0,0.0,0.0,0.0,0.0,0.0,0.0,0.0,0.0,0.0,0.0,0.0,0.0,0.0,0.0,0.0,0.0,0.0,0.0,0.0,0.0,0.0,0.0,0.0,0.0,0.0,0.0,0.0,0.0,0.0,0.0,0.0,-1.1841,-1.1922,-1.2935,-1.3347,-1.3058,-1.2428,-1.1992,0.0,0.0,0.0,0.0,0.0,0.0,0.0,0.0,0.0,0.0,0.0,0.0,0.0,0.0,0.0,0.0,0.0,0.0,0.0,0.0,0.0,0.0,0.0,0.0,0.0,0.0,0.0,0.0,0.0,0.0,0.0,0.0,0.0,0.0,0.0,0.0,0.0,0.0,0.0,0.0,0.0,0.0,0.0,0.0,0.0,0.0,0.0,0.0,0.0,0.0,0.0,0.0,0.0,0.0,0.0,0.0,0.0,0.0,0.0,0.0,0.0,0.0,0.0,0.0,0.0,0.0,0.0,0.0,0.0,0.0,0.0,0.0,0.0,0.0,0.0,0.0,0.0,0.0,0.0,0.0,0.0,0.0,0.0,0.0,0.0,0.0,0.0,0.0,0.0,0.0,0.0,0.0,0.0,0.0,0.0,0.0,0.0,0.0,0.0,0.0,0.0,0.0,0.0,0.0,0.0,0.0,0.0,0.0,-1.2777,-1.3028,-1.388,-1.4351,-1.4351,-1.3751,-1.2979,0.0,0.0,0.0,0.0,0.0,0.0,0.0,0.0,0.0,0.0,0.0,0.0,0.0,0.0,0.0,0.0,0.0,0.0,0.0,0.0,0.0,0.0,0.0,0.0,0.0,0.0,0.0,0.0,0.0,0.0,0.0,0.0,0.0,0.0,0.0,0.0,0.0,0.0,0.0,0.0,0.0,0.0,0.0,0.0,0.0,0.0,0.0,0.0,0.0,0.0,0.0,0.0,0.0,0.0,0.0,0.0,0.0,0.0,0.0,0.0,0.0,0.0,0.0,0.0,0.0,0.0,0.0,0.0,0.0,0.0,0.0,0.0,0.0,0.0,0.0,0.0,0.0,0.0,0.0,0.0,0.0,0.0,0.0,0.0,0.0,0.0,0.0,0.0,0.0,0.0,0.0,0.0,0.0,0.0,0.0,0.0,0.0,0.0,0.0,0.0,0.0,0.0,0.0,0.0,0.0,0.0,0.0,0.0,-1.3598,-1.3692,-1.4349,-1.4669,-1.47,-1.3843,-1.3258,0.0,0.0,0.0,0.0,0.0,0.0,0.0,0.0,0.0,0.0,0.0,0.0,0.0,0.0,0.0,0.0,0.0,0.0,0.0,0.0,0.0,0.0,0.0,0.0,0.0,0.0,0.0,0.0,0.0,0.0,0.0,0.0,0.0,0.0,0.0,0.0,0.0,0.0,0.0,0.0,0.0,0.0,0.0,0.0,0.0,0.0,0.0,0.0,-1.1231,0.0,0.0,0.0,0.0,0.0,0.0,0.0,0.0,0.0,0.0,0.0,0.0,0.0,0.0,0.0,0.0,0.0,0.0,0.0,0.0,0.0,0.0,0.0,0.0,0.0,0.0,0.0,0.0,0.0,0.0,0.0,0.0,0.0,0.0,0.0,0.0,0.0,0.0,0.0,0.0,0.0,0.0,0.0,0.0,0.0,0.0,0.0,0.0,0.0,0.0,0.0,0.0,0.0,0.0,0.0,0.0,0.0,0.0,0.0,-1.395,-1.4107,-1.4704,-1.5027,-1.5027,-1.4564,-1.3998,0.0,0.0,0.0,0.0,0.0,0.0,0.0,0.0,0.0,0.0,0.0,0.0,0.0,0.0,0.0,0.0,0.0,0.0,0.0,0.0,0.0,0.0,0.0,0.0,0.0,0.0,0.0,0.0,0.0,0.0,0.0,0.0,0.0,0.0,0.0,0.0,0.0,0.0,0.0,0.0,0.0,0.0,0.0,0.0,0.0,0.0,0.0,0.0,0.0,0.0,0.0,0.0,0.0,0.0,0.0,0.0,0.0,0.0,0.0,0.0,0.0,0.0,0.0,0.0,0.0,0.0,0.0,0.0,0.0,0.0,0.0,0.0,0.0,0.0,0.0,0.0,0.0,0.0,0.0,0.0,0.0,0.0,0.0,0.0,0.0,0.0,0.0,0.0,0.0,0.0,0.0,0.0,0.0,0.0,0.0,0.0,0.0,0.0,0.0,0.0,0.0,0.0,0.0,0.0,0.0,0.0,0.0,-1.3385,-1.4148,-1.4547,-1.5088,-1.5359,-1.5285,-1.5359,-1.4732,-1.3359,0.0,0.0,0.0,0.0,0.0,0.0,0.0,0.0,0.0,0.0,0.0,0.0,0.0,0.0,0.0,0.0,0.0,0.0,0.0,0.0,0.0,0.0,0.0,0.0,0.0,0.0,0.0,0.0,0.0,0.0,0.0,0.0,0.0,0.0,0.0,0.0,0.0,0.0,-0.986,-1.0465,0.0,0.0,0.0,0.0,0.0,0.0,0.0,0.0,-1.1582,0.0,0.0,0.0,0.0,0.0,0.0,0.0,0.0,0.0,0.0,0.0,0.0,0.0,0.0,0.0,0.0,0.0,0.0,0.0,0.0,0.0,0.0,0.0,0.0,0.0,0.0,0.0,0.0,0.0,0.0,0.0,0.0,0.0,0.0,0.0,0.0,0.0,0.0,0.0,0.0,0.0,0.0,0.0,0.0,0.0,0.0,0.0,0.0,0.0,0.0,0.0,0.0,0.0,0.0,0.0,0.0,-1.357,-1.4084,-1.4717,-1.5536,-1.5683,-1.558,-1.5329,-1.558,-1.4974,-1.3428,0.0,0.0,0.0,0.0,0.0,0.0,0.0,0.0,0.0,0.0,0.0,0.0,0.0,0.0,0.0,0.0,0.0,0.0,0.0,0.0,0.0,0.0,0.0,0.0,0.0,0.0,0.0,0.0,0.0,0.0,0.0,0.0,0.0,0.0,0.0,0.0,0.0,0.0,0.0,-1.0866,-1.0956,0.0,0.0,0.0,0.0,0.0,0.0,0.0,0.0,-1.2632,0.0,0.0,0.0,0.0,0.0,0.0,0.0,0.0,0.0,0.0,0.0,0.0,0.0,0.0,0.0,0.0,0.0,0.0,0.0,0.0,0.0,0.0,0.0,0.0,0.0,0.0,0.0,0.0,0.0,0.0,0.0,0.0,0.0,0.0,0.0,0.0,0.0,0.0,0.0,0.0,0.0,0.0,0.0,0.0,0.0,0.0,0.0,0.0,0.0,0.0,0.0,0.0,0.0,0.0,0.0,-1.2891,-1.4007,-1.4817,-1.5284,-1.5463,-1.5551,-1.5536,-1.5226,-1.4549,0.0,0.0,0.0,0.0,0.0,0.0,0.0,0.0,0.0,0.0,0.0,0.0,0.0,0.0,0.0,0.0,0.0,0.0,0.0,0.0,0.0,0.0,0.0,0.0,0.0,0.0,0.0,0.0,0.0,0.0,0.0,0.0,0.0,0.0,0.0,0.0,0.0,0.0,0.0,0.0,-1.0973,-1.1284,-1.1753,0.0,0.0,0.0,0.0,0.0,0.0,-1.1952,-1.2209,0.0,0.0,0.0,0.0,0.0,0.0,0.0,0.0,0.0,0.0,0.0,0.0,0.0,0.0,0.0,0.0,0.0,0.0,0.0,0.0,0.0,0.0,0.0,0.0,0.0,0.0,0.0,0.0,0.0,0.0,0.0,0.0,0.0,0.0,0.0,0.0,0.0,0.0,0.0,0.0,0.0,0.0,0.0,0.0,0.0,0.0,0.0,0.0,0.0,0.0,0.0,0.0,0.0,0.0,0.0,-1.2226,-1.3843,-1.4821,-1.5011,-1.5269,-1.5492,-1.5668,-1.4977,-1.4317,0.0,0.0,0.0,0.0,0.0,0.0,0.0,0.0,0.0,0.0,0.0,0.0,0.0,0.0,0.0,0.0,0.0,0.0,0.0,0.0,0.0,0.0,0.0,0.0,0.0,0.0,0.0,0.0,0.0,0.0,0.0,0.0,0.0,0.0,0.0,0.0,0.0,0.0,0.0,0.0,0.0,-1.194,-1.2241,-1.236,0.0,0.0,0.0,0.0,-1.193,-1.1819,0.0,0.0,0.0,0.0,0.0,0.0,0.0,0.0,0.0,0.0,0.0,0.0,0.0,0.0,0.0,0.0,0.0,0.0,0.0,0.0,0.0,0.0,0.0,0.0,0.0,0.0,0.0,0.0,0.0,0.0,0.0,0.0,0.0,0.0,0.0,0.0,0.0,0.0,0.0,0.0,0.0,0.0,0.0,0.0,0.0,0.0,0.0,0.0,0.0,0.0,0.0,0.0,0.0,0.0,0.0,0.0,-1.2855,-1.3911,-1.4847,-1.5638,-1.5712,-1.561,-1.5359,-1.5535,-1.49,0.0,0.0,0.0,0.0,0.0,0.0,0.0,0.0,0.0,0.0,0.0,0.0,0.0,0.0,0.0,0.0,0.0,0.0,0.0,0.0,0.0,0.0,0.0,0.0,0.0,0.0,0.0,0.0,0.0,0.0,0.0,0.0,0.0,0.0,0.0,0.0,0.0,0.0,0.0,0.0,0.0,-1.31,-1.2629,-1.2993,-1.3315,0.0,0.0,-1.3352,-1.3273,-1.3241,0.0,0.0,0.0,0.0,0.0,0.0,0.0,0.0,0.0,0.0,0.0,0.0,0.0,0.0,0.0,0.0,0.0,0.0,0.0,0.0,0.0,0.0,0.0,0.0,0.0,0.0,0.0,0.0,0.0,0.0,0.0,0.0,0.0,0.0,0.0,0.0,0.0,0.0,0.0,0.0,0.0,0.0,0.0,0.0,0.0,0.0,0.0,0.0,0.0,0.0,0.0,0.0,0.0,0.0,0.0,-1.1939,-1.2952,-1.4241,-1.5111,-1.5507,-1.5507,-1.5551,-1.558,-1.4814,-1.4124,0.0,0.0,0.0,0.0,0.0,0.0,0.0,0.0,0.0,0.0,0.0,0.0,0.0,0.0,0.0,0.0,0.0,0.0,0.0,0.0,0.0,0.0,0.0,0.0,0.0,0.0,0.0,0.0,0.0,0.0,0.0,0.0,0.0,0.0,0.0,0.0,0.0,0.0,0.0,0.0,0.0,0.0,-1.3668,-1.3701,0.0,0.0,0.0,-1.3642,-1.3515,0.0,0.0,0.0,0.0,0.0,0.0,0.0,0.0,0.0,0.0,0.0,0.0,0.0,0.0,0.0,0.0,0.0,0.0,0.0,0.0,0.0,0.0,0.0,0.0,0.0,0.0,0.0,0.0,0.0,0.0,0.0,0.0,0.0,0.0,0.0,0.0,0.0,0.0,0.0,0.0,0.0,0.0,0.0,0.0,0.0,0.0,0.0,0.0,0.0,0.0,0.0,0.0,0.0,0.0,0.0,0.0,0.0,-1.3048,-1.4616,-1.5433,-1.5433,-1.5448,-1.5551,-1.5755,-1.4416,0.0,0.0,0.0,0.0,0.0,0.0,0.0,0.0,0.0,0.0,0.0,0.0,0.0,0.0,0.0,0.0,0.0,0.0,0.0,0.0,0.0,0.0,0.0,0.0,0.0,0.0,0.0,-0.7679,0.0,0.0,0.0,0.0,0.0,0.0,0.0,0.0,0.0,0.0,0.0,0.0,0.0,0.0,-1.3872,-1.4522,-1.4387,-1.4399,0.0,0.0,-1.4191,-1.4038,-1.3939,-1.3786,0.0,0.0,0.0,0.0,0.0,0.0,0.0,0.0,0.0,0.0,0.0,0.0,0.0,0.0,0.0,0.0,0.0,0.0,0.0,0.0,0.0,0.0,0.0,0.0,0.0,0.0,0.0,0.0,0.0,0.0,0.0,0.0,0.0,0.0,0.0,0.0,0.0,0.0,0.0,0.0,0.0,0.0,0.0,0.0,0.0,0.0,0.0,0.0,0.0,0.0,0.0,0.0,0.0,0.0,0.0,-1.3382,-1.4957,-1.577,-1.577,-1.577,-1.577,-1.5799,-1.5096,-1.4397,0.0,0.0,0.0,0.0,0.0,0.0,0.0,0.0,0.0,0.0,0.0,0.0,0.0,0.0,0.0,0.0,0.0,0.0,0.0,0.0,0.0,0.0,0.0,0.0,0.0,0.0,0.0,0.0,0.0,0.0,0.0,0.0,0.0,0.0,0.0,0.0,0.0,0.0,0.0,0.0,0.0,-1.5366,-1.4688,-1.5114,-1.5478,0.0,0.0,-1.5462,-1.5462,-1.5087,-1.4578,-1.3896,0.0,0.0,0.0,0.0,0.0,0.0,0.0,0.0,0.0,0.0,0.0,0.0,0.0,0.0,0.0,0.0,0.0,0.0,0.0,0.0,0.0,0.0,0.0,0.0,0.0,0.0,0.0,0.0,0.0,0.0,0.0,0.0,0.0,0.0,0.0,0.0,0.0,0.0,0.0,0.0,0.0,0.0,0.0,0.0,0.0,0.0,0.0,0.0,0.0,0.0,0.0,0.0,0.0,-1.2562,-1.3642,-1.5069,-1.5814,-1.5814,-1.5814,-1.5814,-1.5799,-1.4764,-1.4064,0.0,0.0,0.0,0.0,0.0,0.0,0.0,0.0,0.0,0.0,0.0,0.0,0.0,0.0,0.0,0.0,0.0,0.0,0.0,0.0,0.0,0.0,0.0,0.0,0.0,0.0,0.0,0.0,-0.7812,-0.7885,-0.8139,0.0,0.0,0.0,0.0,0.0,0.0,0.0,0.0,0.0,0.0,-1.5794,-1.5808,-1.5805,0.0,0.0,-1.5964,-1.5799,-1.5847,-1.5199,-1.47,-1.4714,-1.4233,0.0,0.0,0.0,0.0,0.0,0.0,0.0,0.0,0.0,0.0,0.0,0.0,0.0,0.0,0.0,0.0,0.0,0.0,0.0,0.0,0.0,0.0,0.0,0.0,0.0,0.0,0.0,0.0,0.0,0.0,0.0,0.0,0.0,0.0,0.0,0.0,0.0,0.0,0.0,0.0,0.0,0.0,0.0,0.0,0.0,0.0,0.0,0.0,0.0,0.0,0.0,0.0,-1.2658,-1.381,-1.5111,-1.5814,-1.5814,-1.5814,-1.5814,-1.5784,-1.4692,-1.3993,0.0,0.0,0.0,0.0,0.0,0.0,0.0,0.0,0.0,0.0,0.0,0.0,0.0,0.0,0.0,0.0,0.0,0.0,0.0,0.0,0.0,0.0,0.0,0.0,0.0,0.0,0.0,0.0,-0.8214,-0.8423,-0.8952,0.0,0.0,0.0,0.0,0.0,0.0,0.0,0.0,0.0,0.0,-1.6486,-1.6628,-1.6339,-1.6301,-1.6844,-1.6457,-1.6208,-1.6565,-1.5943,-1.548,-1.5704,0.0,0.0,0.0,0.0,0.0,0.0,0.0,0.0,0.0,0.0,0.0,0.0,0.0,0.0,0.0,0.0,0.0,0.0,0.0,0.0,0.0,0.0,0.0,0.0,0.0,0.0,0.0,0.0,0.0,0.0,-0.858,0.0,0.0,0.0,0.0,0.0,0.0,0.0,0.0,0.0,0.0,0.0,0.0,0.0,0.0,0.0,0.0,0.0,0.0,0.0,0.0,0.0,0.0,-1.3107,-1.3825,-1.5139,-1.5814,-1.5814,-1.5814,-1.5814,-1.5799,-1.5111,-1.4453,-1.3795,0.0,0.0,0.0,0.0,0.0,0.0,0.0,0.0,0.0,0.0,0.0,0.0,0.0,0.0,0.0,0.0,0.0,0.0,0.0,0.0,0.0,0.0,0.0,0.0,0.0,0.0,-0.889,-0.889,-0.9227,0.0,0.0,0.0,0.0,0.0,0.0,0.0,0.0,0.0,0.0,-1.6733,-1.7583,-1.6901,-1.6686,-1.686,-1.7587,-1.7081,-1.695,-1.7898,-1.7625,-1.7173,0.0,0.0,0.0,0.0,0.0,0.0,0.0,0.0,0.0,0.0,0.0,0.0,0.0,0.0,0.0,0.0,0.0,0.0,0.0,0.0,0.0,0.0,0.0,0.0,0.0,0.0,0.0,-1.1861,-1.08,0.0,0.0,0.0,0.0,0.0,0.0,0.0,0.0,0.0,0.0,0.0,-1.3066,-1.393,0.0,0.0,0.0,0.0,0.0,0.0,0.0,0.0,0.0,0.0,0.0,0.0,-1.3355,-1.4438,-1.5349,-1.5814,-1.5814,-1.5814,-1.5814,-1.5784,-1.5141,-1.4064,-1.2523,0.0,0.0,0.0,0.0,0.0,0.0,0.0,0.0,0.0,0.0,0.0,0.0,0.0,0.0,0.0,0.0,0.0,0.0,0.0,0.0,0.0,0.0,0.0,0.0,0.0,-0.9617,0.0,0.0,0.0,0.0,0.0,0.0,0.0,0.0,0.0,0.0,0.0,-1.6869,-1.6961,-1.7599,-1.7958,-1.77,-1.7551,-1.7807,0.0,0.0,0.0,0.0,0.0,0.0,0.0,0.0,0.0,0.0,0.0,0.0,0.0,0.0,-1.9413,-1.738,-1.636,-1.603,-1.675,0.0,0.0,0.0,0.0,0.0,0.0,0.0,0.0,0.0,0.0,0.0,0.0,0.0,0.0,-1.2979,0.0,-1.1928,0.0,0.0,0.0,0.0,0.0,0.0,0.0,0.0,-1.5291,-1.5489,-1.4904,-1.5281,-1.5162,0.0,-1.4507,-1.4034,0.0,0.0,0.0,0.0,0.0,0.0,0.0,0.0,-1.394,-1.4767,-1.5469,-1.5814,-1.5814,-1.5814,-1.5814,-1.5784,-1.5169,-1.4169,-1.2882,-1.2388,-1.1655,0.0,0.0,0.0,0.0,0.0,0.0,0.0,0.0,0.0,0.0,0.0,0.0,0.0,0.0,0.0,0.0,0.0,0.0,0.0,0.0,0.0,0.0,0.0,-1.0315,0.0,0.0,0.0,0.0,0.0,0.0,0.0,0.0,0.0,-1.7035,-1.7692,-1.82,-1.8334,-1.8686,-1.8822,-1.8535,0.0,0.0,0.0,0.0,0.0,0.0,0.0,-1.9157,-2.0244,-1.9945,-1.987,-2.0687,-2.147,-2.1918,-2.1643,0.0,0.0,-1.9344,-1.8172,-1.7707,-1.8448,-1.8379,-1.8345,-1.8844,-1.8947,-1.8965,0.0,0.0,0.0,0.0,0.0,0.0,0.0,0.0,-1.4025,-1.3985,0.0,-1.325,0.0,0.0,0.0,0.0,0.0,-1.5484,0.0,0.0,-1.7339,-1.7682,-1.7608,-1.701,-1.6726,-1.6697,-1.6129,-1.5844,-1.5784,-1.4543,0.0,0.0,0.0,0.0,0.0,0.0,-1.4842,-1.4902,-1.5529,-1.5844,-1.5814,-1.5814,-1.5814,-1.5784,-1.5184,-1.4812,-1.4722,-1.3525,-1.2546,-1.1835,-1.1171,0.0,0.0,0.0,0.0,0.0,0.0,0.0,0.0,0.0,0.0,0.0,0.0,0.0,0.0,0.0,0.0,0.0,0.0,0.0,0.0,-1.0896,0.0,0.0,0.0,0.0,0.0,0.0,0.0,0.0,0.0,0.0,-1.7469,-1.924,-2.0339,-1.9358,0.0,0.0,0.0,0.0,-1.9532,-2.0435,-1.9975,-1.9932,-2.0945,-2.1153,-2.0977,-2.0529,0.0,0.0,-2.1746,-2.2229,-2.2453,-2.178,-2.2229,-2.2712,-2.2625,-2.1325,-2.067,-2.1367,-2.0894,-2.0498,-2.0463,-2.0463,-2.0463,-1.9092,0.0,0.0,0.0,0.0,-1.7352,-1.738,-1.7352,-1.7352,-1.6788,-1.5869,-1.5953,0.0,0.0,0.0,0.0,0.0,0.0,-1.6786,-1.7399,-1.7608,-1.7682,-1.7682,-1.7503,-1.7413,-1.7399,-1.7251,-1.7176,-1.7146,-1.6787,-1.5904,-1.4543,0.0,0.0,0.0,0.0,-1.6159,-1.6174,-1.6338,-1.6234,-1.5814,-1.5814,-1.5814,-1.5814,-1.5634,-1.5304,-1.4812,-1.4408,-1.3675,-1.2561,-1.1865,0.0,0.0,0.0,0.0,0.0,0.0,0.0,0.0,0.0,0.0,0.0,0.0,0.0,0.0,0.0,0.0,0.0,0.0,0.0,-1.1848,-1.2034,-1.2231,0.0,0.0,0.0,0.0,0.0,0.0,0.0,0.0,0.0,-1.9313,-2.0054,-2.041,0.0,0.0,-2.0352,-1.9965,-2.002,-2.0484,-2.1437,-2.1196,0.0,-2.1647,-2.12,-2.0928,-2.1329,-2.1927,-2.2334,-2.2366,-2.2548,-2.2616,-2.2419,-2.2574,-2.2712,-2.2694,-2.2358,-2.2117,-2.2332,-2.2194,-2.2031,-2.2031,-2.2031,-2.2014,-2.2148,-2.0807,-1.9983,-1.9668,-1.9668,-1.9668,-1.9668,-1.9668,-1.9483,-1.8903,-1.8134,-1.8067,-1.7451,-1.6435,-1.6558,0.0,0.0,0.0,-1.7994,-1.8493,-1.8493,-1.8493,-1.8493,-1.8223,-1.8085,-1.8071,-1.7802,-1.7832,-1.8119,-1.8119,-1.752,-1.6398,0.0,0.0,-1.6563,-1.6921,-1.71,-1.7115,-1.71,-1.6786,-1.6174,-1.5933,-1.5814,-1.5814,-1.5814,-1.5619,-1.5214,-1.4932,-1.4408,-1.364,-1.2688,-1.188,0.0,0.0,0.0,0.0,0.0,0.0,0.0,0.0,0.0,0.0,0.0,-0.8971,-0.8597,0.0,0.0,0.0,-1.0217,-1.1592,-1.2974,-1.3535,0.0,0.0,0.0,0.0,0.0,0.0,0.0,-1.8475,-1.9523,-2.0237,-2.0384,-2.075,-2.0901,-2.0568,-2.0796,-2.0931,-2.0782,0.0,-2.1255,-2.1903,-2.1807,-2.1794,-2.2073,-2.1573,-2.1354,-2.1874,-2.2158,-2.2409,-2.2642,-2.2712,-2.2712,-2.2712,-2.2712,-2.2712,-2.2712,-2.2712,-2.2712,-2.2712,-2.2712,-2.2712,-2.2712,-2.2712,-2.2712,-2.4454,-2.4034,-2.2199,-2.1359,-2.1247,-2.1247,-2.1247,-2.1215,-2.0787,-2.0553,-2.046,-1.9818,-1.9213,-1.8656,-1.8332,0.0,-1.9454,-1.9405,-1.9554,-1.9839,-1.9779,-1.9779,-1.9735,-1.9091,-1.8777,-1.8762,-1.8145,-1.816,-1.8777,-1.8777,-1.8792,-1.8777,-1.8179,-1.7864,-1.7772,-1.7832,-1.7817,-1.7772,-1.7757,-1.7443,-1.6801,-1.6159,-1.5859,-1.5815,-1.5756,-1.5712,-1.5697,-1.5158,-1.4815,-1.4725,-1.3555,-1.2568,-1.1895,0.0,0.0,0.0,0.0,0.0,0.0,0.0,0.0,0.0,0.0,0.0,0.0,0.0,0.0,0.0,-1.1108,0.0,-1.397,-1.5233,0.0,0.0,0.0,-1.6943,-1.7107,-1.8443,-1.9337,-1.9398,0.0,0.0,-2.0825,-2.1367,-2.1584,-2.1071,-2.1462,-2.1738,-2.162,-2.1661,-2.184,-2.1969,-2.1969,-2.2015,-2.2152,-2.1982,-2.1874,-2.2124,-2.2326,-2.2426,-2.2605,-2.2642,-2.2642,-2.2642,-2.2685,-2.2712,-2.2712,-2.2712,-2.2712,-2.2712,-2.2668,-2.2659,-2.2642,-2.2615,-2.2579,-2.5749,-2.5657,-2.5153,-2.4295,-2.3293,-2.3276,-2.3276,-2.3276,-2.3162,-2.2818,-2.228,-2.2424,-2.2237,-2.1787,-2.142,-2.1352,-2.1553,-2.125,-2.1128,-2.1186,-2.0707,-2.0468,-2.0453,-1.9779,-1.945,-1.945,-1.9286,-1.9316,-1.945,-1.9465,-1.945,-1.945,-1.9301,-1.8972,-1.8508,-1.8972,-1.8972,-1.8478,-1.8478,-1.8149,-1.7473,-1.6644,-1.6166,-1.612,-1.5408,-1.5041,-1.5041,-1.5139,-1.4935,-1.4452,-1.3875,-1.3256,-1.2591,-1.1311,0.0,0.0,0.0,0.0,0.0,0.0,0.0,0.0,0.0,-1.0776,-0.9359,0.0,-1.1211,0.0,-1.2714,-1.4219,-1.5659,-1.5932,0.0,0.0,-1.7607,-1.814,-1.9586,-1.9696,-2.0072,-2.1068,-2.1297,-2.1368,-2.1158,-2.1532,-2.157,-2.0942,-2.1386,-2.1708,-2.1433,-2.1617,-2.1811,-2.184,-2.1768,-2.1724,-2.1771,-2.1603,-2.1584,-2.1982,-2.1882,-2.1882,-2.2254,-2.2337,-2.2337,-2.232,-2.2544,-2.2685,-2.2685,-2.2712,-2.2685,-2.2685,-2.249,-2.232,-2.232,-2.2169,-2.2015,-2.6079,-2.5901,-2.5885,-2.5317,-2.4441,-2.484,-2.4858,-2.4652,-2.4476,-2.3877,-2.3077,-2.2945,-2.2869,-2.2801,-2.2598,-2.239,-2.2255,-2.2002,-2.194,-2.1948,-2.1422,-2.1242,-2.1364,-2.0565,-2.0139,-2.0124,-1.9824,-1.9705,-1.9705,-1.9705,-1.9705,-1.9705,-1.9705,-1.951,-1.9166,-1.951,-1.951,-1.9136,-1.8678,-1.8249,-1.7846,-1.664,-1.597,-1.5927,-1.5341,-1.5011,-1.5027,-1.5329,-1.5212,-1.4551,-1.4076,-1.363,-1.3241,-1.1969,-1.1236,0.0,0.0,0.0,0.0,0.0,0.0,0.0,0.0,0.0,0.0,0.0,-1.2822,-1.3593,-1.4472,-1.5583,-1.7058,-1.7741,-1.8456,-1.9369,-1.9542,-2.0021,-2.1056,-2.0874,-2.0977,-2.1702,-2.1648,-2.1542,-2.1526,-2.1661,-2.1661,-2.1293,-2.157,-2.1661,-2.1386,-2.157,-2.1781,-2.1781,-2.1738,-2.1664,-2.162,-2.1511,-2.1495,-2.1705,-2.1615,-2.1628,-2.1953,-2.201,-2.201,-2.201,-2.2186,-2.2298,-2.2298,-2.2298,-2.2315,-2.226,-2.2027,-2.1982,-2.232,-2.2181,-2.1998,-2.5974,-2.5615,-2.5577,-2.5406,-2.5114,-2.5897,-2.5901,-2.5389,-2.5059,-2.4398,-2.353,-2.2917,-2.2805,-2.3054,-2.2996,-2.2789,-2.2455,-2.2416,-2.2401,-2.2424,-2.2043,-2.2022,-2.2309,-2.1318,-2.0842,-2.0812,-2.0228,-1.9899,-1.9809,-1.9809,-1.9779,-1.9705,-1.9705,-1.9705,-1.9705,-1.9705,-1.9705,-1.969,-1.8731,-1.8223,-1.8223,-1.6647,-1.5795,-1.5678,-1.5438,-1.5251,-1.5179,-1.5492,-1.5415,-1.4877,-1.4236,-1.3878,-1.3899,-1.2701,-1.2246,0.0,-1.2261,0.0,0.0,0.0,0.0,0.0,0.0,0.0,0.0,-1.4111,-1.4913,-1.6111,-1.6313,-1.6954,-1.8339,-1.9833,-2.0721,-2.0865,-2.14,-2.1781,-2.1781,-2.1781,-2.1781,-2.1781,-2.1781,-2.1781,-2.1797,-2.1768,-2.1721,-2.1601,-2.157,-2.1479,-2.1261,-2.1509,-2.1781,-2.1781,-2.1781,-2.1754,-2.168,-2.165,-2.1634,-2.1584,-2.1554,-2.157,-2.1721,-2.1751,-2.1768,-2.1721,-2.1781,-2.1811,-2.1781,-2.1811,-2.1811,-2.184,-2.1631,-2.1661,-2.2215,-2.2124,-2.2051,-2.6225,-2.6137,-2.6099,-2.6007,-2.597,-2.6148,-2.5754,-2.502,-2.4942,-2.498,-2.5051,-2.4922,-2.4928,-2.4933,-2.4608,-2.4272,-2.3892,-2.3489,-2.3348,-2.3333,-2.2753,-2.2529,-2.255,-2.1854,-2.1515,-2.15,-2.138,-2.1036,-2.0513,-2.0513,-2.0243,-1.9705,-1.9705,-1.9705,-1.9705,0.0,0.0,0.0,-1.9156,-1.8927,-1.8861,-1.7797,-1.685,-1.6031,-1.5558,0.0,-1.4538,-1.4811,-1.5075,-1.5169,-1.4556,0.0,0.0,0.0,0.0,0.0,0.0,0.0,0.0,0.0,0.0,0.0,-1.4236,-1.4091,-1.4045,-1.5964,-1.7271,-1.7385,-1.8306,-1.9159,-1.9767,-2.0336,-2.092,-2.1516,-2.1715,-2.1781,-2.1781,-2.1781,-2.1781,-2.1781,-2.1781,-2.1797,-2.1751,-2.1587,-2.1309,-2.1119,-2.099,-2.0844,-2.053,-2.1261,-2.1751,-2.1781,-2.1781,-2.1797,-2.1768,-2.1738,-2.1721,-2.1853,-2.1691,-2.1587,-2.1554,-2.1554,-2.1509,-2.1433,-2.1617,-2.1797,-2.1781,-2.1781,-2.1751,-2.1781,-2.1738,-2.1678,-2.157,-2.1276,-2.1055,-2.6173,0.0,-2.5885,-2.5775,0.0,-2.5626,-2.5368,-2.4981,-2.5121,-2.5098,-2.4902,-2.4902,-2.4823,-2.4648,-2.4461,-2.4271,-2.4135,-2.3925,-2.3925,-2.4063,-2.3591,-2.344,-2.3616,-2.2758,-2.232,-2.232,-2.2003,-2.1521,-2.0888,-2.0858,-2.0511,-1.9848,-1.9848,-1.9848,-1.9848,-1.9566,-1.9457,-1.9398,-1.8769,-1.8461,-1.8408,-1.7504,-1.6748,-1.6275,0.0,0.0,0.0,0.0,0.0,0.0,0.0,0.0,0.0,0.0,0.0,-1.5188,-1.4917,-1.486,-1.5186,-1.489,-1.5171,-1.6159,-1.6533,-1.6412,-1.5691,-1.731,-1.8515,-1.8908,-1.9422,-1.9997,-2.0647,-2.0758,-2.0949,-2.146,-2.1386,-2.1355,-2.1479,-2.1402,-2.1309,-2.1293,-2.1309,-2.1293,-2.1293,-2.1166,-2.1231,-2.1503,-2.1385,-2.1234,-2.1288,-2.1408,-2.157,-2.1768,-2.1781,-2.1781,-2.1751,-2.1554,-2.1509,-2.1661,-2.1464,-2.1277,-2.1293,-2.1309,-2.1261,-2.1103,-2.1214,-2.1293,-2.1293,-2.1293,-2.1276,-2.1293,-2.1182,-2.1087,-2.0909,-2.0958,-2.1055,-2.6154,-2.5848,-2.5742,-2.5519,-2.5275,-2.5275,-2.5198,-2.516,0.0,0.0,0.0,-2.4302,-2.4135,-2.3909,-2.3909,-2.394,-2.3982,-2.3982,-2.4193,-2.4467,-2.4135,-2.4193,-2.4436,-2.3585,-2.3163,-2.3132,-2.2601,-2.2009,-2.1356,-2.1235,-2.0825,-2.0218,-2.0066,-1.9955,-1.9848,-1.9295,-1.8997,-1.8898,-1.8201,-1.7801,-1.7828,-1.7077,-1.656,-1.6388,-1.6235,-1.6149,-1.5991,-1.6231,-1.5938,-1.5031,-1.5665,-1.5949,-1.5647,-1.63,-1.6988,-1.7608,-1.7174,-1.7115,-1.7637,-1.7189,-1.716,-1.7817,-1.8335,-1.8305,-1.7593,-1.8437,-1.9309,-2.0141,-2.0051,-2.0305,-2.1134,-2.099,-2.0958,-2.134,-2.1087,-2.1023,-2.134,-2.1135,-2.1103,-2.115,-2.1263,-2.1197,-2.1339,-2.1288,-2.1399,-2.2077,-2.1909,-2.1859,-2.2159,-2.1761,-2.1585,-2.1921,-2.2034,-2.1966,-2.1902,-2.1682,-2.1456,-2.1827,-2.144,-2.1149,-2.1214,-2.1295,-2.1247,-2.118,-2.1096,-2.1239,-2.1223,-2.1335,-2.1173,-2.1158,-2.0845,-2.0596,-2.0615,-2.0824,-2.099,-2.6503,-2.6452,-2.6399,-2.6329,-2.6293,-2.6277,-2.6099,-2.568,-2.4855,-2.4426,-2.4302,-2.4302,-2.4302,-2.4313,-2.4313,-2.4204,-2.3982,-2.3982,-2.4024,-2.4067,-2.4009,-2.4024,-2.4067,-2.3933,-2.383,-2.383,-2.3739,-2.336,-2.2707,-2.213,-2.1508,-2.0855,-2.0279,-1.9827,-1.945,-1.8721,-1.8347,-1.8321,-1.7962,-1.7868,-1.7948,-1.772,-1.721,-1.6454,-1.67,-1.658,-1.6018,-1.6041,-1.614,-1.6194,-1.6102,-1.6264,-1.6795,-1.6732,-1.6954,-1.765,-1.7593,-1.7593,-1.7697,-1.7593,-1.7832,-1.8459,-1.8311,-1.8406,-1.8897,-1.958,-2.003,-2.0206,-2.0424,-2.0716,-2.086,-2.0794,-2.0974,-2.157,-2.1402,-2.1371,-2.1601,-2.1603,-2.1771,-2.2311,-2.26,-2.2622,-2.2708,-2.256,-2.229,-2.222,-2.2079,-2.1881,-2.2145,-2.1914,-2.1932,-2.2378,-2.2572,-2.2572,-2.2499,-2.2536,-2.239,-2.2517,-2.2253,-2.1917,-2.185,-2.1984,-2.2034,-2.1933,-2.2109,-2.2422,-2.2465,-2.2596,-2.237,-2.224,-2.1619,-2.1115,-2.1018,-2.0628,-2.02,-2.5957,-2.5921,-2.5864,-2.5864,-2.5901,-2.5901,-2.5663,-2.5246,-2.4695,-2.4467,-2.4467,-2.4369,-2.4302,-2.4162,-2.4162,-2.4151,-2.4124,-2.4151,-2.4177,-2.4135,-2.4151,-2.4177,-2.4135,-2.4193,-2.4135,-2.4151,-2.4151,-2.3814,-2.3157,-2.2876,-2.2164,-2.1207,-2.0502,-1.9833,-1.9147,-1.8769,-1.8358,-1.7922,-1.7733,-1.7679,-1.7707,-1.7679,-1.7437,-1.6995,-1.7143,-1.7063,-1.6757,-1.6691,-1.6584,-1.6429,-1.6788,-1.7016,-1.7032,-1.7618,-1.8036,-1.813,-1.8001,-1.8007,-1.813,-1.813,-1.8439,-1.914,-1.8884,-1.8761,-1.9105,-1.9572,-1.9965,-2.0174,-2.0379,-2.0462,-2.0462,-2.0308,-2.0395,-2.0878,-2.0614,-2.0581,-2.0893,-2.111,-2.1355,-2.1686,-2.2032,-2.2321,-2.2465,-2.2308,-2.2424,-2.2624,-2.2653,-2.2656,-2.2894,-2.2528,-2.2324,-2.2635,-2.2692,-2.2692,-2.2708,-2.2524,-2.2524,-2.2656,-2.2472,-2.2283,-2.2232,-2.2374,-2.237,-2.2227,-2.2399,-2.2481,-2.249,-2.2133,-2.1962,-2.1765,-2.1054,-2.0476,-2.0282,-1.9891,-1.9698,-2.5889,-2.5905,-2.5821,-2.5747,-2.5647,-2.5554,-2.5258,-2.4815,-2.4614,-2.4549,-2.4508,-2.4369,-2.4204,-2.4067,-2.4024,-2.4109,-2.4208,-2.4291,-2.4302,-2.4302,-2.4302,-2.4302,-2.4302,-2.4302,-2.4302,-2.4302,-2.4302,-2.404,-2.3563,-2.3379,-2.257,-2.1253,-2.0569,-1.9773,-1.8817,-1.8717,-1.8344,-1.7801,-1.7666,-1.7557,-1.757,-1.7529,-1.7475,-1.7475,-1.7461,-1.7404,-1.7404,-1.7295,-1.7044,-1.6664,-1.729,-1.7558,-1.7256,-1.8323,-1.8822,-1.8535,-1.8401,-1.8395,-1.8482,-1.85,-1.8769,-1.9332,-1.9035,-1.8898,-1.9101,-1.9132,-1.9398,-1.9859,-2.0035,-2.0104,-2.0139,-1.9909,-1.9889,-2.0258,-2.0167,-2.0309,-2.0535,-2.0926,-2.1258,-2.1394,-2.1849,-2.2252,-2.2284,-2.229,-2.2622,-2.3218,-2.3366,-2.3431,-2.3516,-2.3161,-2.2925,-2.291,-2.2885,-2.2925,-2.2885,-2.2732,-2.2701,-2.2878,-2.2655,-2.2593,-2.2638,-2.2692,-2.2692,-2.2593,-2.2671,-2.2801,-2.2592,-2.2271,-2.1973,-2.1896,-2.1242,-2.0317,-2.0093,-1.9845,-1.9543,-2.7381,-2.7397,-2.7308,-2.7009,-2.6373,-2.5998,-2.5519,-2.4918,-2.4508,-2.4359,-2.4348,-2.4151,-2.4109,-2.4166,-2.4166,-2.4193,-2.4276,-2.4302,-2.4302,-2.4302,-2.4302,-2.4302,-2.4302,-2.4302,-2.4302,-2.4302,-2.4302,-2.4256,-2.4133,-2.3579,-2.2454,-2.0873,-2.0336,-1.9682,-1.8676,-1.8242,-1.7963,-1.7882,-1.7882,-1.7801,-1.7679,-1.757,-1.7475,-1.7475,-1.7516,-1.7461,-1.7404,-1.7461,-1.738,-1.7175,-1.7297,-1.7516,-1.772,-1.8238,-1.8553,-1.85,-1.8803,-1.8855,-1.8539,-1.85,-1.85,-1.8539,-1.8226,-1.8279,-1.895,-1.8422,-1.833,-1.9072,-1.953,-1.9839,-2.0139,-1.9889,-1.996,-2.0494,-2.0817,-2.1188,-2.1483,-2.2153,-2.276,-2.3456,-2.3328,-2.3733,-2.3774,-2.3784,-2.3793,-2.3541,-2.3556,-2.3558,-2.3593,-2.352,-2.3415,-2.3468,-2.3498,-2.3495,-2.345,-2.3486,-2.3363,-2.342,-2.3264,-2.3096,-2.3099,-2.3218,-2.3375,-2.3225,-2.3594,-2.3749,-2.3743,-2.3845,-2.3579,-2.2918,-2.2368,-2.181,-2.1137,-2.0698,-2.0375,-2.6863,-2.6848,-2.6863,-2.669,-2.6365,-2.6252,-2.6025,-2.5746,-2.5141,-2.4902,-2.4841,-2.4403,-2.4193,-2.4223,-2.4223,-2.4208,-2.425,-2.4261,-2.4302,-2.4302,-2.4302,-2.4302,-2.4302,-2.4302,-2.4302,-2.4302,-2.4302,-2.4302,-2.4194,-2.3625,-2.2931,-2.2239,-2.1689,-2.0941,-1.999,-1.9447,-1.8957,-1.8439,-1.8058,-1.7882,-1.7801,-1.7747,-1.7747,-1.7733,-1.7666,-1.7584,-1.7556,-1.7529,-1.7488,-1.7393,-1.7391,-1.7432,-1.7543,-1.7882,-1.8068,-1.8108,-1.824,-1.8279,-1.8068,-1.7868,-1.7948,-1.8461,-1.8068,-1.8068,-1.8669,-1.8616,-1.8745,-1.9026,-1.925,-1.942,-1.9551,-1.9639,-1.9818,-2.0157,-2.0603,-2.0977,-2.1088,-2.2057,-2.2836,-2.3151,-2.3448,-2.3712,-2.3834,-2.3867,-2.3824,-2.3638,-2.3595,-2.3595,-2.3595,-2.3595,-2.3595,-2.3595,-2.3595,-2.3595,-2.3595,-2.3595,-2.3595,-2.355,-2.3513,-2.3459,-2.3428,-2.35,-2.3527,-2.3553,-2.3755,-2.3852,-2.3694,-2.3293,-2.2984,-2.2884,-2.2327,-2.1459,-2.1073,-2.0795,-2.0342,-2.6919,-2.6903,-2.6919,-2.6811,-2.6626,-2.6641,-2.6549,-2.6334,-2.5826,-2.5503,-2.5229,-2.4795,-2.443,-2.4265,-2.4193,-2.4208,-2.425,-2.4276,-2.4302,-2.4302,-2.4302,-2.4302,-2.4302,-2.4302,-2.4302,-2.4302,-2.4302,-2.4302,-2.4214,-2.3677,-2.3244,-2.2905,-2.2305,-2.1573,-2.0668,-2.0041,-1.9457,-1.8836,-1.8221,-1.7922,-1.7922,-1.7922,-1.7922,-1.7882,-1.7801,-1.7774,-1.7692,-1.7666,-1.7557,-1.7529,-1.7461,-1.7446,-1.7391,-1.7747,-1.7882,-1.7841,-1.7747,-1.772,-1.7693,-1.7447,-1.7544,-1.8108,-1.7882,-1.7868,-1.8266,-1.85,-1.8707,-1.8898,-1.8936,-1.8974,-1.9273,-1.9708,-1.9959,-2.0019,-2.0707,-2.1231,-2.135,-2.2278,-2.2978,-2.2981,-2.3381,-2.3595,-2.3595,-2.3595,-2.3595,-2.3595,-2.3595,-2.3508,-2.3436,-2.3377,-2.3334,-2.3231,-2.3187,-2.3231,-2.3377,-2.3377,-2.3421,-2.3421,-2.3376,-2.3405,-2.3551,-2.3595,-2.358,-2.3586,-2.3593,-2.3566,-2.3581,-2.3035,-2.2511,-2.2337,-2.1931,-2.1512,-2.1699,-2.1183,-2.0823,-2.8319,-2.8288,-2.8304,-2.7888,-2.7349,-2.7349,-2.7011,-2.6534,-2.638,-2.5964,-2.5456,-2.5302,-2.4933,-2.4322,-2.4379,-2.4333,-2.4302,-2.4302,-2.4302,-2.4302,-2.4302,-2.4302,-2.4302,-2.4302,-2.4302,-2.4302,-2.4302,-2.4302,-2.4261,-2.3806,-2.3065,-2.2161,-2.1758,-2.0904,-2.0078,-1.9457,-1.8932,-1.882,-1.8262,-1.7936,-1.7922,-1.7922,-1.7922,-1.7922,-1.7882,-1.7801,-1.772,-1.7801,-1.7747,-1.7516,-1.7625,-1.761,-1.7487,-1.7882,-1.8109,-1.7962,-1.7707,-1.7488,-1.7474,-1.7447,-1.7516,-1.757,-1.7543,-1.7584,-1.8002,-1.776,-1.7868,-1.8461,-1.8592,-1.886,-1.9553,-2.0169,-2.0572,-2.0677,-2.1784,-2.2398,-2.2517,-2.2996,-2.349,-2.352,-2.355,-2.3595,-2.3595,-2.3595,-2.3551,-2.3551,-2.3551,-2.3363,-2.3024,-2.2934,-2.2799,-2.2452,-2.2314,-2.236,-2.2785,-2.292,-2.292,-2.3024,-2.3098,-2.3098,-2.3377,-2.3595,-2.3595,-2.3595,-2.3595,-2.3566,-2.3494,-2.3275,-2.2922,-2.2685,-2.2521,-2.2333,-2.1924,-2.213,-2.1699,-2.8411,-2.8411,-2.8411,-2.8258,-2.8057,-2.8042,-2.7904,-2.7657,-2.7211,-2.6903,-2.6595,-2.6195,-2.561,-2.4906,-2.4948,-2.4718,-2.4333,-2.4302,-2.4302,-2.4302,-2.4302,-2.4302,-2.4302,-2.4302,-2.4302,-2.4302,-2.4302,-2.4302,-2.4302,-2.412,-2.3888,-2.348,-2.2993,-2.2425,-2.1695,-2.0817,-2.0081,-1.9377,-1.875,-1.8303,-1.7936,-1.7922,-1.7922,-1.7922,-1.7922,-1.7882,-1.7828,-1.7882,-1.7842,-1.7747,-1.7706,-1.7679,-1.7638,-1.7963,-1.8016,-1.776,-1.7855,-1.7828,-1.7529,-1.7488,-1.7475,-1.7475,-1.7419,-1.7597,-1.7989,-1.7895,-1.8002,-1.8514,-1.8592,-1.8874,-1.9508,-2.0239,-2.0707,-2.0872,-2.1874,-2.2712,-2.2802,-2.3221,-2.3595,-2.3595,-2.3595,-2.3595,-2.3551,-2.3334,-2.3157,-2.3113,-2.2875,-2.2634,-2.2498,-2.2663,-2.2663,-2.2314,-2.2374,-2.2434,-2.1874,-2.2235,-2.2452,-2.274,-2.2934,-2.3143,-2.3363,-2.3465,-2.3465,-2.3363,-2.3421,-2.329,-2.3127,-2.2723,-2.2495,-2.2249,-2.2109,-2.2156,-2.1941,-2.1766,-2.1349,-2.8411,-2.8411,-2.8411,-2.8411,-2.8411,-2.8411,-2.8411,-2.835,-2.7934,-2.7596,-2.7334,-2.6919,-2.6318,-2.5749,-2.5672,-2.5441,-2.4933,-2.4548,-2.4302,-2.4302,-2.4302,-2.4302,-2.4302,-2.4302,-2.4302,-2.4302,-2.4302,-2.4302,-2.4261,-2.4135,-2.4094,-2.4036,-2.3595,-2.3157,-2.2608,-2.1733,-2.0809,-1.998,-1.9184,-1.8589,-1.8235,-1.7977,-1.7922,-1.7922,-1.7922,-1.7922,-1.7922,-1.7922,-1.7922,-1.7882,-1.7788,-1.7842,-1.7949,-1.8149,-1.8095,-1.7841,-1.7989,-1.7963,-1.7652,-1.7611,-1.7652,-1.7611,-1.7543,-1.7679,-1.8003,-1.8002,-1.8266,-1.8577,-1.863,-1.8832,-1.9569,-2.0352,-2.0902,-2.1159,-2.2102,-2.284,-2.2954,-2.3212,-2.3333,-2.3334,-2.3334,-2.3421,-2.3508,-2.3009,-2.2785,-2.2844,-2.242,-2.2081,-2.1955,-2.2142,-2.2249,-2.1813,-2.186,-2.1732,-2.141,-2.1492,-2.1766,-2.2095,-2.2328,-2.2694,-2.3054,-2.3143,-2.3187,-2.3187,-2.3054,-2.292,-2.2618,-2.2109,-2.1779,-2.1527,-2.1575,-2.1718,-2.1431,-2.114,-2.0926,-2.8411,-2.8411,-2.8411,-2.8411,-2.8411,-2.8411,-2.8411,-2.8396,-2.8365,-2.7996,-2.755,-2.7411,-2.7026,-2.6488,-2.638,-2.6364,-2.601,-2.5025,-2.4487,-2.4425,-2.4394,-2.4348,-2.4317,-2.4394,-2.4425,-2.4394,-2.4317,-2.4302,-2.4261,-2.3952,-2.3724,-2.361,-2.3246,-2.2889,-2.2263,-2.1727,-2.106,-2.0407,-1.9473,-1.8915,-1.8752,-1.8344,-1.8113,-1.8004,-1.8031,-1.8017,-1.7936,-1.7922,-1.7922,-1.7922,-1.7882,-1.8095,-1.8319,-1.8344,-1.8305,-1.8226,-1.8069,-1.7842,-1.776,-1.7828,-1.7882,-1.7842,-1.776,-1.7679,-1.7801,-1.7895,-1.8147,-1.85,-1.8638,-1.8942,-1.9832,-2.0585,-2.1247,-2.1844,-2.2513,-2.3113,-2.3362,-2.3172,-2.2934,-2.3024,-2.3068,-2.3157,-2.329,-2.2875,-2.2512,-2.2603,-2.242,-2.1894,-2.1554,-2.1589,-2.1326,-2.0947,-2.1131,-2.1215,-2.0934,-2.0749,-2.1033,-2.1326,-2.1554,-2.1827,-2.2314,-2.2498,-2.2543,-2.2543,-2.236,-2.2235,-2.2095,-2.1684,-2.1506,-2.1299,-2.1348,-2.1286,-2.1042,-2.0858,-2.0809,-2.8411,-2.8411,-2.8411,-2.8411,-2.8411,-2.8411,-2.8411,-2.8411,-2.8411,-2.8273,-2.8119,-2.8104,-2.7719,-2.7196,-2.7088,-2.6842,-2.6364,-2.5872,-2.5456,-2.5087,-2.501,-2.4764,-2.4487,-2.4779,-2.501,-2.4918,-2.4518,-2.4302,-2.4261,-2.4135,-2.4078,-2.4009,-2.361,-2.3319,-2.3098,-2.2372,-2.1629,-2.1032,-2.037,-1.9809,-1.9486,-1.9542,-1.9294,-1.8658,-1.8837,-1.8698,-1.795,-1.7922,-1.7922,-1.7922,-1.7922,-1.7963,-1.8109,-1.8319,-1.8422,-1.8397,-1.8095,-1.8016,-1.8214,-1.8016,-1.7922,-1.7882,-1.776,-1.776,-1.7801,-1.7828,-1.8055,-1.8492,-1.8761,-1.9305,-2.0242,-2.087,-2.1442,-2.1888,-2.2775,-2.3377,-2.3508,-2.3465,-2.3377,-2.3377,-2.3377,-2.3465,-2.3465,-2.2965,-2.2512,-2.2314,-2.2175,-2.1799,-2.1215,-2.141,-2.1492,-2.0885,-2.0983,-2.0934,-2.0785,-2.0699,-2.0848,-2.1046,-2.118,-2.1313,-2.167,-2.1894,-2.1941,-2.1894,-2.1718,-2.1589,-2.1444,-2.1264,-2.1131,-2.0885,-2.0723,-2.0673,-2.0673,-2.0673,-2.0623,-2.8411,-2.8411,-2.8411,-2.8411,-2.8411,-2.8411,-2.8411,-2.8411,-2.8411,-2.8411,-2.8396,-2.8396,-2.8181,-2.7827,-2.7765,-2.7534,-2.7149,-2.7103,-2.6734,-2.6103,-2.578,-2.5472,-2.5133,-2.5472,-2.5474,-2.5272,-2.4887,-2.4548,-2.4302,-2.4302,-2.4302,-2.4219,-2.3994,-2.3724,-2.3595,-2.3024,-2.2448,-2.188,-2.1355,-2.0882,-2.0636,-2.0628,-2.0203,-1.946,-1.9565,-1.916,-1.8244,-1.8268,-1.8228,-1.8043,-1.8149,-1.8347,-1.8372,-1.8745,-1.8921,-1.8846,-1.8461,-1.8279,-1.8592,-1.8228,-1.8003,-1.8069,-1.7909,-1.7868,-1.8029,-1.7989,-1.823,-1.888,-1.9216,-1.9781,-2.0741,-2.1341,-2.1772,-2.2236,-2.2849,-2.3319,-2.3377,-2.3508,-2.3465,-2.3377,-2.329,-2.3334,-2.3231,-2.2694,-2.2296,-2.1908,-2.167,-2.1479,-2.0983,-2.1215,-2.1033,-2.0885,-2.0898,-2.0848,-2.0749,-2.0699,-2.0699,-2.0799,-2.0947,-2.1082,-2.1299,-2.1348,-2.1396,-2.1361,-2.1229,-2.1166,-2.1019,-2.0848,-2.0662,-2.0347,-2.0283,-2.0385,-2.0536,-2.0498,-2.0498,-2.8411,-2.8411,-2.8411,-2.8411,-2.8411,-2.8411,-2.8411,-2.8411,-2.8411,-2.8411,-2.8411,-2.8411,-2.8396,-2.8381,-2.8288,-2.8242,-2.8365,-2.8227,-2.7904,-2.7334,-2.6857,-2.6488,-2.6364,-2.6134,-2.581,-2.5518,-2.5226,-2.4841,-2.4333,-2.4302,-2.4302,-2.4261,-2.4219,-2.4078,-2.3724,-2.3595,-2.3275,-2.2833,-2.2294,-2.199,-2.1917,-2.158,-2.0925,-2.0233,-2.0186,-1.971,-1.8768,-1.8784,-1.8683,-1.8189,-1.8721,-1.9064,-1.9139,-1.9472,-1.9617,-1.9566,-1.8921,-1.8822,-1.886,-1.8425,-1.8149,-1.8489,-1.8214,-1.8069,-1.8358,-1.8293,-1.8486,-1.9333,-1.9672,-2.0187,-2.1097,-2.1816,-2.2265,-2.27,-2.2935,-2.3068,-2.3024,-2.3377,-2.3377,-2.3068,-2.2889,-2.2875,-2.2875,-2.2095,-2.1684,-2.141,-2.1215,-2.1082,-2.0848,-2.0898,-2.0799,-2.0749,-2.0799,-2.0749,-2.0699,-2.0699,-2.0699,-2.0749,-2.0799,-2.0898,-2.0983,-2.0983,-2.0983,-2.0898,-2.0848,-2.0749,-2.0699,-2.0612,-2.0562,-2.0549,-2.0498,-2.0498,-2.0448,-2.0498,-2.0511,-2.8411,-2.8411,-2.8411,-2.8411,-2.8411,-2.8411,-2.8411,-2.8411,-2.8411,-2.8411,-2.8411,-2.8411,-2.8411,-2.8411,-2.8411,-2.8411,-2.8411,-2.8411,-2.8365,-2.815,-2.7996,-2.7565,-2.6949,-2.6087,-2.5826,-2.5949,-2.521,-2.4487,-2.4317,-2.4317,-2.4302,-2.4302,-2.4302,-2.4219,-2.4078,-2.3767,-2.3551,-2.3363,-2.2937,-2.2658,-2.2717,-2.2847,-2.2184,-2.0939,-2.1089,-2.0474,-1.9156,-1.9026,-1.9026,-1.8874,-1.9236,-1.9398,-1.9213,-1.9508,-1.9741,-1.9617,-1.9035,-1.8846,-1.9236,-1.8822,-1.8553,-1.8874,-1.8514,-1.8397,-1.8475,-1.8214,-1.8337,-1.8883,-1.9555,-2.0302,-2.0883,-2.1726,-2.2224,-2.2349,-2.2875,-2.329,-2.3334,-2.3493,-2.3421,-2.3009,-2.2889,-2.2694,-2.2314,-2.2081,-2.1732,-2.1458,-2.141,-2.1348,-2.0934,-2.0898,-2.0947,-2.0749,-2.0749,-2.0699,-2.0699,-2.0699,-2.0699,-2.0699,-2.0749,-2.0749,-2.0785,-2.0785,-2.0799,-2.0749,-2.0749,-2.0699,-2.0699,-2.0649,-2.0699,-2.0699,-2.0649,-2.0599,-2.0599,-2.0649,-2.0599,-2.8827,-2.8796,-2.8519,-2.8411,-2.8411,-2.8411,-2.8411,-2.8411,-2.8411,-2.8411,-2.8411,-2.8411,-2.8411,-2.8411,-2.8411,-2.8411,-2.8411,-2.8411,-2.8396,-2.8396,-2.8365,-2.815,-2.7673,-2.6888,-2.6703,-2.6641,-2.5687,-2.5087,-2.4733,-2.4456,-2.4317,-2.4302,-2.4302,-2.4302,-2.4261,-2.4036,-2.3909,-2.3867,-2.361,-2.3465,-2.3523,-2.3724,-2.3002,-2.1879,-2.1816,-2.1189,-1.9826,-1.9472,-1.9288,-1.9213,-1.9472,-1.9581,-1.942,-1.9711,-1.9955,-1.994,-1.9347,-1.9295,-1.9639,-1.9221,-1.8974,-1.9161,-1.886,-1.863,-1.8592,-1.8268,-1.8138,-1.9265,-1.9936,-2.0526,-2.1191,-2.1931,-2.2257,-2.2314,-2.2725,-2.3054,-2.2965,-2.292,-2.2875,-2.2649,-2.2558,-2.2374,-2.186,-2.1813,-2.1541,-2.1264,-2.1215,-2.1068,-2.0835,-2.1033,-2.1095,-2.0848,-2.0699,-2.0699,-2.0699,-2.0699,-2.0699,-2.0699,-2.0699,-2.0699,-2.0699,-2.0699,-2.0699,-2.0699,-2.0699,-2.0699,-2.0699,-2.0699,-2.0699,-2.0699,-2.0699,-2.0699,-2.0699,-2.0699,-2.0699,-2.952,-2.9458,-2.8781,-2.8504,-2.8519,-2.8442,-2.8411,-2.8411,-2.8411,-2.8411,-2.8411,-2.8411,-2.8411,-2.8411,-2.8411,-2.8411,-2.8411,-2.8411,-2.8411,-2.8411,-2.8411,-2.8334,-2.8242,-2.775,-2.7488,-2.7134,-2.6595,-2.5795,-2.5133,-2.461,-2.4333,-2.4302,-2.4302,-2.4302,-2.4302,-2.4261,-2.4261,-2.4219,-2.4177,-2.4135,-2.4135,-2.4131,-2.3565,-2.26,-2.2003,-2.1464,-2.0436,-1.994,-1.9603,-1.9236,-1.9581,-1.9777,-1.9797,-2.0115,-2.027,-2.0185,-1.9869,-1.9797,-2.0096,-1.9581,-1.931,-1.9581,-1.9121,-1.8807,-1.9022,-1.8679,-1.8768,-1.9836,-2.03,-2.0812,-2.1546,-2.2142,-2.2128,-2.2049,-2.2142,-2.2128,-2.2035,-2.2035,-2.2081,-2.2049,-2.2049,-2.1827,-2.1492,-2.1264,-2.118,-2.0983,-2.0983,-2.0885,-2.0749,-2.0848,-2.0848,-2.0749,-2.0699,-2.0699,-2.0699,-2.0699,-2.0699,-2.0699,-2.0699,-2.0699,-2.0699,-2.0699,-2.0699,-2.0699,-2.0699,-2.0699,-2.0699,-2.0699,-2.0699,-2.0699,-2.0699,-2.0699,-2.0699,-2.0699,-2.0699,-3.0212,-3.0151,-2.9489,-2.9196,-2.9104,-2.8642,-2.8411,-2.8411,-2.8411,-2.8411,-2.8411,-2.8411,-2.8411,-2.8411,-2.8411,-2.8411,-2.8411,-2.8411,-2.8411,-2.8411,-2.8411,-2.8411,-2.815,-2.7473,-2.7103,-2.6903,-2.5564,-2.5025,-2.5041,-2.4687,-2.4302,-2.4302,-2.4302,-2.4302,-2.4302,-2.4302,-2.4302,-2.4302,-2.4302,-2.4302,-2.4302,-2.4287,-2.3902,-2.3009,-2.207,-2.1183,-2.052,-2.0235,-2.0115,-2.008,-2.008,-2.0131,-2.0166,-2.0235,-2.0304,-2.0235,-1.9975,-1.9904,-2.0131,-1.9904,-1.9726,-2.0081,-1.9863,-1.9724,-1.9767,-1.9489,-1.9464,-1.9915,-2.0216,-2.0748,-2.137,-2.1458,-2.1506,-2.1506,-2.1506,-2.1458,-2.1291,-2.1732,-2.186,-2.1636,-2.1554,-2.1361,-2.0947,-2.0885,-2.0799,-2.0699,-2.0699,-2.0699,-2.0699,-2.0699,-2.0699,-2.0699,-2.0699,-2.0699,-2.0699,-2.0699,-2.0699,-2.0699,-2.0699,-2.0699,-2.0699,-2.0699,-2.0699,-2.0699,-2.0699,-2.0699,-2.0699,-2.0699,-2.0699,-2.0699,-2.0699,-2.0699,-2.0699,-2.0699,-2.0699,-3.0705,-3.0351,-2.9689,-2.9227,-2.8904,-2.855,-2.8411,-2.8411,-2.8411,-2.8411,-2.8411,-2.8411,-2.8411,-2.8411,-2.8411,-2.8411,-2.8411,-2.8411,-2.8411,-2.8411,-2.8411,-2.8411,-2.8242,-2.7457,-2.7042,-2.7134,-2.6057,-2.5441,-2.5149,-2.4687,-2.4302,-2.4302,-2.4302,-2.4302,-2.4302,-2.4302,-2.4302,-2.4302,-2.4302,-2.4302,-2.4302,-2.4302,-2.3994,-2.3179,-2.204,-2.1106,-2.0828,-2.0458,-2.0335,-2.0304,-2.032,-2.0304,-2.0304,-2.0304,-2.0304,-2.0235,-2.0131,-2.0045,-2.0166,-2.0146,-2.0233,-2.0716,-2.0483,-2.045,-2.0341,-2.0189,-2.0075,-2.0112,-2.0392,-2.0725,-2.1245,-2.1602,-2.152,-2.1229,-2.1326,-2.1291,-2.1073,-2.1291,-2.1458,-2.1131,-2.1095,-2.0997,-2.0799,-2.0699,-2.0699,-2.0699,-2.0699,-2.0699,-2.0699,-2.0699,-2.0699,-2.0699,-2.0699,-2.0699,-2.0699,-2.0699,-2.0699,-2.0699,-2.0699,-2.0699,-2.0699,-2.0699,-2.0699,-2.0699,-2.0699,-2.0699,-2.0699,-2.0699,-2.0699,-2.0699,-2.0699,-2.0699,-2.0699,-2.0699,-2.0699,-3.1151,-3.052,-2.9843,-2.9166,-2.8581,-2.8458,-2.8411,-2.8411,-2.8411,-2.8411,-2.8411,-2.8411,-2.8411,-2.8411,-2.8411,-2.8411,-2.8411,-2.8411,-2.8411,-2.8411,-2.8411,-2.8411,-2.8227,-2.7719,-2.7196,-2.718,-2.6334,-2.578,-2.5241,-2.4687,-2.4333,-2.4302,-2.4302,-2.4302,-2.4302,-2.4302,-2.4302,-2.4302,-2.4302,-2.4302,-2.4302,-2.4287,-2.3963,-2.3209,-2.244,-2.167,-2.1409,-2.106,-2.0659,-2.0474,-2.0443,-2.0397,-2.032,-2.0304,-2.0304,-2.0304,-2.027,-2.027,-2.027,-2.03,-2.0531,-2.1209,-2.1039,-2.0946,-2.0973,-2.0941,-2.0782,-2.0653,-2.0752,-2.0921,-2.1452,-2.1664,-2.165,-2.1471,-2.1568,-2.1388,-2.1073,-2.0901,-2.0938,-2.0799,-2.0799,-2.0799,-2.0749,-2.0699,-2.0699,-2.0699,-2.0699,-2.0699,-2.0699,-2.0699,-2.0699,-2.0699,-2.0699,-2.0699,-2.0699,-2.0699,-2.0699,-2.0699,-2.0699,-2.0699,-2.0699,-2.0699,-2.0699,-2.0699,-2.0699,-2.0699,-2.0699,-2.0699,-2.0699,-2.0699,-2.0699,-2.0699,-2.0699,-2.0699,-2.0699,-3.1844,-3.1166,-3.052,-2.9858,-2.9196,-2.8642,-2.8411,-2.8411,-2.8411,-2.8411,-2.8411,-2.8411,-2.8411,-2.8411,-2.8411,-2.8411,-2.8411,-2.8411,-2.8411,-2.8411,-2.8411,-2.8411,-2.8273,-2.7827,-2.7196,-2.6472,-2.5964,-2.5564,-2.5149,-2.4671,-2.4333,-2.4302,-2.4302,-2.4302,-2.4302,-2.4302,-2.4302,-2.4302,-2.4302,-2.4302,-2.4302,-2.4271,-2.404,-2.344,-2.2948,-2.2578,-2.2194,-2.1993,-2.1701,-2.1229,-2.1152,-2.0828,-2.0489,-2.035,-2.0304,-2.0304,-2.0304,-2.0304,-2.0304,-2.035,-2.0674,-2.1136,-2.144,-2.1594,-2.1742,-2.1796,-2.1555,-2.124,-2.1206,-2.1397,-2.1827,-2.1712,-2.1568,-2.152,-2.1375,-2.1144,-2.0987,-2.0888,-2.0838,-2.0712,-2.0699,-2.0699,-2.0699,-2.0699,-2.0699,-2.0699,-2.0699,-2.0699,-2.0699,-2.0699,-2.0699,-2.0699,-2.0699,-2.0699,-2.0699,-2.0699,-2.0699,-2.0699,-2.0699,-2.0699,-2.0699,-2.0699,-2.0699,-2.0699,-2.0699,-2.0699,-2.0699,-2.0699,-2.0699,-2.0699,-2.0699,-2.0699,-2.0699,-2.0699,-2.0699,-3.1474,-3.0828,-3.0181,-2.9504,-2.8904,-2.855,-2.8411,-2.8411,-2.8411,-2.8411,-2.8411,-2.8411,-2.8411,-2.8411,-2.8411,-2.8411,-2.8411,-2.8411,-2.8411,-2.8411,-2.8411,-2.8411,-2.8396,-2.8011,-2.7288,-2.658,-2.5995,-2.5364,-2.4825,-2.4487,-2.4317,-2.4302,-2.4302,-2.4302,-2.4302,-2.4302,-2.4302,-2.4302,-2.4302,-2.4302,-2.4302,-2.4302,-2.4087,-2.3871,-2.3486,-2.3148,-2.2871,-2.2409,-2.2163,-2.183,-2.1455,-2.1132,-2.0844,-2.0535,-2.0335,-2.035,-2.0335,-2.0335,-2.0412,-2.0597,-2.1168,-2.1763,-2.2178,-2.255,-2.2669,-2.2597,-2.2203,-2.1602,-2.141,-2.1471,-2.1664,-2.1554,-2.1602,-2.1471,-2.1326,-2.1158,-2.0974,-2.0825,-2.0762,-2.0712,-2.0699,-2.0699,-2.0699,-2.0699,-2.0699,-2.0699,-2.0699,-2.0699,-2.0699,-2.0699,-2.0699,-2.0699,-2.0699,-2.0699,-2.0699,-2.0699,-2.0699,-2.0699,-2.0699,-2.0699,-2.0699,-2.0699,-2.0699,-2.0699,-2.0699,-2.0699,-2.0699,-2.0699,-2.0699,-2.0699,-2.0699,-2.0699,-2.0699,-2.0699,-2.0699,-3.1136,-3.0381,-2.9843,-2.915,-2.8473,-2.8411,-2.8411,-2.8411,-2.8411,-2.8411,-2.8411,-2.8411,-2.8411,-2.8411,-2.8411,-2.8411,-2.8411,-2.8411,-2.8411,-2.8411,-2.8411,-2.8411,-2.8365,-2.7965,-2.7319,-2.6472,-2.5764,-2.5336,-2.4594,-2.4333,-2.4317,-2.4302,-2.4302,-2.4302,-2.4302,-2.4302,-2.4302,-2.4302,-2.4302,-2.4302,-2.4302,-2.4302,-2.4302,-2.4302,-2.3763,-2.3533,-2.344,-2.3117,-2.2748,-2.2455,-2.207,-2.1707,-2.1439,-2.0978,-2.0736,-2.069,-2.0597,-2.0582,-2.0875,-2.1183,-2.1778,-2.244,-2.2948,-2.332,-2.3313,-2.2862,-2.2282,-2.1602,-2.1375,-2.141,-2.1506,-2.1616,-2.1568,-2.1423,-2.1326,-2.1291,-2.0961,-2.0762,-2.0699,-2.0699,-2.0699,-2.0699,-2.0699,-2.0699,-2.0699,-2.0699,-2.0699,-2.0699,-2.0699,-2.0699,-2.0699,-2.0699,-2.0699,-2.0699,-2.0699,-2.0699,-2.0699,-2.0699,-2.0699,-2.0699,-2.0699,-2.0699,-2.0699,-2.0699,-2.0699,-2.0699,-2.0699,-2.0699,-2.0699,-2.0699,-2.0699,-2.0699,-2.0699,-2.0699,-2.0699,-3.1551,-3.0376,-3.0335,-2.9581,-2.8519,-2.8427,-2.8411,-2.8411,-2.8411,-2.8411,-2.8411,-2.8411,-2.8411,-2.8411,-2.8411,-2.8411,-2.8411,-2.8411,-2.8411,-2.8411,-2.8411,-2.8411,-2.8211,-2.7057,-2.6857,-2.6241,-2.5256,-2.4564,-2.4317,-2.4302,-2.4302,-2.4302,-2.4302,-2.4302,-2.4302,-2.4302,-2.4302,-2.4302,-2.4302,-2.4302,-2.4302,-2.4302,-2.4302,-2.4271,-2.4194,-2.4102,-2.4056,-2.3856,-2.3671,-2.3194,-2.3086,-2.2732,-2.2286,-2.217,-2.2055,-2.1886,-2.1639,-2.146,-2.184,-2.2086,-2.2378,-2.2932,-2.3286,-2.3412,-2.3284,-2.283,-2.2109,-2.1326,-2.1229,-2.1264,-2.1375,-2.1256,-2.1207,-2.1144,-2.1046,-2.0947,-2.0699,-2.0762,-2.0699,-2.0699,-2.0699,-2.0699,-2.0699,-2.0699,-2.0699,-2.0699,-2.0699,-2.0699,-2.0699,-2.0699,-2.0699,-2.0699,-2.0699,-2.0699,-2.0699,-2.0699,-2.0699,-2.0699,-2.0699,-2.0699,-2.0699,-2.0699,-2.0699,-2.0699,-2.0699,-2.0699,-2.0699,-2.0699,-2.0699,-2.0699,-2.0699,-2.0699,-2.0699,-2.0699,-2.0699,-3.1828,-3.0905,-3.0151,-2.9535,-2.895,-2.8581,-2.8411,-2.8411,-2.8411,-2.8411,-2.8411,-2.8411,-2.8411,-2.8411,-2.8411,-2.8411,-2.8411,-2.8411,-2.8411,-2.8411,-2.8411,-2.8411,-2.8196,-2.7426,-2.6842,-2.6164,-2.5426,-2.4764,-2.4471,-2.4302,-2.4302,-2.4302,-2.4302,-2.4302,-2.4302,-2.4302,-2.4302,-2.4302,-2.4302,-2.4302,-2.4302,-2.4302,-2.4302,-2.4302,-2.4302,-2.4302,-2.4302,-2.4302,-2.4194,-2.3794,-2.3579,-2.3194,-2.2825,-2.2563,-2.2394,-2.2825,-2.2609,-2.2409,-2.2332,-2.2671,-2.3009,-2.3302,-2.3569,-2.3679,-2.3289,-2.2754,-2.2063,-2.1277,-2.1131,-2.118,-2.1229,-2.1023,-2.1037,-2.0974,-2.0911,-2.0799,-2.0699,-2.0699,-2.0699,-2.0699,-2.0699,-2.0699,-2.0699,-2.0699,-2.0699,-2.0699,-2.0699,-2.0699,-2.0699,-2.0699,-2.0699,-2.0699,-2.0699,-2.0699,-2.0699,-2.0699,-2.0699,-2.0699,-2.0699,-2.0699,-2.0699,-2.0699,-2.0699,-2.0699,-2.0699,-2.0699,-2.0699,-2.0699,-2.0699,-2.0699,-2.0699,-2.0699,-2.0699,-2.0699,-2.0699,-3.1844,-3.1274,-3.0135,-2.9489,-2.9135,-2.8611,-2.8411,-2.8411,-2.8411,-2.8411,-2.8411,-2.8411,-2.8411,-2.8411,-2.8411,-2.8411,-2.8411,-2.8411,-2.8411,-2.8411,-2.8411,-2.8411,-2.8181,-2.7673,-2.6995,-2.638,-2.561,-2.4933,-2.4471,-2.4302,-2.4302,-2.4302,-2.4302,-2.4302,-2.4302,-2.4302,-2.4302,-2.4302,-2.4302,-2.4302,-2.4302,-2.4302,-2.4302,-2.4302,-2.4302,-2.4302,-2.4302,-2.4302,-2.4287,-2.4164,-2.3887,-2.3625,-2.3486,-2.324,-2.3163,-2.3471,-2.3456,-2.3302,-2.3194,-2.3317,-2.3502,-2.3702,-2.3805,-2.3834,-2.3039,-2.2754,-2.2296,-2.1229,-2.1131,-2.1033,-2.0983,-2.0974,-2.0938,-2.0924,-2.0825,-2.0762,-2.0712,-2.0699,-2.0699,-2.0699,-2.0699,-2.0699,-2.0699,-2.0699,-2.0699,-2.0699,-2.0699,-2.0699,-2.0699,-2.0699,-2.0699,-2.0699,-2.0699,-2.0699,-2.0699,-2.0699,-2.0699,-2.0699,-2.0699,-2.0699,-2.0699,-2.0699,-2.0699,-2.0699,-2.0699,-2.0699,-2.0699,-2.0699,-2.0699,-2.0699,-2.0699,-2.0699,-2.0699,-2.0699,-2.0699,-3.1428,-3.132,-3.0612,-2.9612,-2.855,-2.8442,-2.8411,-2.8411,-2.8411,-2.8411,-2.8411,-2.8411,-2.8411,-2.8411,-2.8411,-2.8411,-2.8411,-2.8411,-2.8411,-2.8411,-2.8411,-2.8411,-2.8181,-2.7719,-2.7072,-2.6441,-2.5703,-2.4979,-2.4487,-2.4348,-2.4333,-2.4302,-2.4302,-2.4302,-2.4302,-2.4302,-2.4302,-2.4302,-2.4302,-2.4302,-2.4302,-2.4302,-2.4302,-2.4302,-2.4302,-2.4302,-2.4302,-2.4302,-2.4302,-2.4302,-2.4164,-2.4102,-2.401,-2.3917,-2.3948,-2.401,-2.4071,-2.3963,-2.3948,-2.3948,-2.4148,-2.4225,-2.4173,-2.3867,-2.3024,-2.2889,-2.2249,-2.1375,-2.1313,-2.118,-2.1095,-2.0997,-2.1059,-2.0875,-2.0825,-2.0775,-2.0762,-2.0699,-2.0699,-2.0699,-2.0699,-2.0699,-2.0699,-2.0699,-2.0699,-2.0699,-2.0699,-2.0699,-2.0699,-2.0699,-2.0699,-2.0699,-2.0699,-2.0699,-2.0699,-2.0699,-2.0699,-2.0699,-2.0699,-2.0699,-2.0699,-2.0699,-2.0699,-2.0699,-2.0699,-2.0699,-2.0699,-2.0699,-2.0699,-2.0699,-2.0699,-2.0699,-2.0699,-2.0699,-2.0699,-3.0905,-3.0166,-2.9904,-2.9504,-2.8996,-2.8581,-2.8411,-2.8411,-2.8411,-2.8411,-2.8411,-2.8411,-2.8411,-2.8411,-2.8411,-2.8411,-2.8411,-2.8411,-2.8411,-2.8411,-2.8411,-2.8411,-2.8165,-2.7796,-2.7242,-2.678,-2.5933,-2.5256,-2.4964,-2.4518,-2.4333,-2.4302,-2.4302,-2.4302,-2.4302,-2.4302,-2.4302,-2.4302,-2.4302,-2.4302,-2.4302,-2.4302,-2.4302,-2.4302,-2.4302,-2.4302,-2.4302,-2.4302,-2.4302,-2.4302,-2.4302,-2.4302,-2.4302,-2.4302,-2.4302,-2.4302,-2.4302,-2.4302,-2.4302,-2.4302,-2.4302,-2.4276,-2.4234,-2.3925,-2.3113,-2.2875,-2.2558,-2.2016,-2.165,-2.152,-2.1423,-2.1423,-2.1388,-2.1023,-2.0838,-2.0775,-2.0762,-2.0699,-2.0699,-2.0699,-2.0699,-2.0699,-2.0699,-2.0699,-2.0699,-2.0699,-2.0699,-2.0699,-2.0699,-2.0699,-2.0699,-2.0699,-2.0699,-2.0699,-2.0699,-2.0699,-2.0699,-2.0699,-2.0699,-2.0699,-2.0699,-2.0699,-2.0699,-2.0699,-2.0699,-2.0699,-2.0699,-2.0699,-2.0699,-2.0699,-2.0699,-2.0699,-2.0699,-2.0699,-2.0699,-3.0258,-2.9427,-2.9196,-2.9119,-2.9042,-2.8611,-2.8411,-2.8411,-2.8411,-2.8411,-2.8411,-2.8411,-2.8411,-2.8411,-2.8411,-2.8411,-2.8411,-2.8411,-2.8411,-2.8411,-2.8411,-2.8411,-2.8227,-2.7965,-2.7611,-2.718,-2.6349,-2.561,-2.521,-2.461,-2.4379,-2.4302,-2.4302,-2.4302,-2.4302,-2.4302,-2.4302,-2.4302,-2.4302,-2.4302,-2.4302,-2.4302,-2.4302,-2.4302,-2.4302,-2.4302,-2.4302,-2.4302,-2.4302,-2.4302,-2.4302,-2.4302,-2.4302,-2.4302,-2.4302,-2.4302,-2.4302,-2.4302,-2.4302,-2.4302,-2.4302,-2.4276,-2.425,-2.394,-2.3465,-2.3009,-2.2785,-2.2466,-2.2156,-2.1888,-2.1759,-2.1664,-2.1375,-2.0947,-2.0888,-2.0838,-2.0762,-2.0699,-2.0699,-2.0699,-2.0699,-2.0699,-2.0699,-2.0699,-2.0699,-2.0699,-2.0699,-2.0699,-2.0699,-2.0699,-2.0699,-2.0699,-2.0699,-2.0699,-2.0699,-2.0699,-2.0699,-2.0699,-2.0699,-2.0699,-2.0699,-2.0699,-2.0699,-2.0699,-2.0699,-2.0699,-2.0699,-2.0699,-2.0699,-2.0699,-2.0699,-2.0699,-2.0699,-2.0699,-2.0699,-2.9473,-2.9335,-2.8719,-2.8458,-2.8504,-2.8427,-2.8411,-2.8411,-2.8411,-2.8411,-2.8411,-2.8411,-2.8411,-2.8411,-2.8411,-2.8411,-2.8411,-2.8411,-2.8411,-2.8411,-2.8411,-2.8411,-2.8381,-2.8227,-2.7965,-2.7349,-2.6595,-2.5872,-2.5395,-2.4656,-2.4379,-2.4302,-2.4302,-2.4302,-2.4302,-2.4302,-2.4302,-2.4302,-2.4302,-2.4302,-2.4302,-2.4302,-2.4302,-2.4302,-2.4302,-2.4302,-2.4302,-2.4302,-2.4302,-2.4302,-2.4302,-2.4302,-2.4302,-2.4302,-2.4302,-2.4302,-2.4302,-2.4302,-2.4302,-2.4302,-2.4302,-2.4276,-2.425,-2.3997,-2.3551,-2.3275,-2.3084,-2.274,-2.2434,-2.217,-2.1935,-2.1712,-2.1361,-2.0997,-2.0924,-2.0838,-2.0762,-2.0699,-2.0699,-2.0699,-2.0699,-2.0699,-2.0699,-2.0699,-2.0699,-2.0699,-2.0699,-2.0699,-2.0699,-2.0699,-2.0699,-2.0699,-2.0699,-2.0699,-2.0699,-2.0699,-2.0699,-2.0699,-2.0699,-2.0699,-2.0699,-2.0699,-2.0699,-2.0699,-2.0699,-2.0699,-2.0699,-2.0699,-2.0699,-2.0699,-2.0699,-2.0699,-2.0699,-2.0699,-2.0699,-2.915,-2.8735,-2.8504,-2.8411,-2.8411,-2.8411,-2.8411,-2.8411,-2.8411,-2.8411,-2.8411,-2.8411,-2.8411,-2.8411,-2.8411,-2.8411,-2.8411,-2.8411,-2.8411,-2.8411,-2.8411,-2.8411,-2.8411,-2.8381,-2.8242,-2.7811,-2.7057,-2.6287,-2.6026,-2.4887,-2.4379,-2.4302,-2.4302,-2.4302,-2.4302,-2.4302,-2.4302,-2.4302,-2.4302,-2.4302,-2.4302,-2.4302,-2.4302,-2.4302,-2.4302,-2.4302,-2.4302,-2.4302,-2.4302,-2.4302,-2.4302,-2.4302,-2.4302,-2.4302,-2.4302,-2.4302,-2.4302,-2.4302,-2.4302,-2.4302,-2.4302,-2.4276,-2.4208,-2.4124,-2.3925,-2.3246,-2.3054,-2.295,-2.2694,-2.2342,-2.1841,-2.2063,-2.1813,-2.0983,-2.0825,-2.0825,-2.0762,-2.0699,-2.0699,-2.0699,-2.0699,-2.0699,-2.0699,-2.0699,-2.0699,-2.0699,-2.0699,-2.0699,-2.0699,-2.0699,-2.0699,-2.0699,-2.0699,-2.0699,-2.0699,-2.0699,-2.0699,-2.0699,-2.0699,-2.0699,-2.0699,-2.0699,-2.0699,-2.0699,-2.0699,-2.0699,-2.0699,-2.0699,-2.0699,-2.0699,-2.0699,-2.0699,-2.0699,-2.0699,-2.0699,-2.8583,-2.7875,-2.8235,-2.8235,-2.8186,-2.8299,-2.8411,-2.8411,-2.8411,-2.8411,-2.8411,-2.8411,-2.8411,-2.8411,-2.8411,-2.8411,-2.8411,-2.8411,-2.8411,-2.8411,-2.8411,-2.8411,-2.8411,-2.835,-2.8165,-2.7827,-2.7042,-2.6272,-2.5826,-2.4841,-2.4379,-2.4302,-2.4302,-2.4302,-2.4302,-2.4302,-2.4302,-2.4302,-2.4302,-2.4302,-2.4302,-2.4302,-2.4302,-2.4302,-2.4302,-2.4302,-2.4302,-2.4302,-2.4302,-2.4302,-2.4302,-2.4302,-2.4302,-2.4302,-2.4302,-2.4302,-2.4302,-2.4302,-2.4302,-2.4302,-2.4302,-2.4276,-2.425,-2.4208,-2.4166,-2.3653,-2.3523,-2.3377,-2.2965,-2.2603,-2.2249,-2.2512,-2.1732,-2.0898,-2.0799,-2.0812,-2.0762,-2.0699,-2.0699,-2.0699,-2.0699,-2.0699,-2.0699,-2.0699,-2.0699,-2.0699,-2.0699,-2.0699,-2.0699,-2.0699,-2.0699,-2.0699,-2.0699,-2.0699,-2.0699,-2.0699,-2.0699,-2.0699,-2.0699,-2.0699,-2.0699,-2.0699,-2.0699,-2.0699,-2.0699,-2.0699,-2.0699,-2.0699,-2.0699,-2.0699,-2.0699,-2.0699,-2.0699,-2.0699,-2.0699,-2.771,-2.6953,-2.7875,-2.7974,-2.763,-2.8073,-2.8348,-2.8411,-2.8411,-2.8411,-2.8411,-2.8411,-2.8411,-2.8411,-2.8411,-2.8411,-2.8411,-2.8411,-2.8411,-2.8411,-2.8411,-2.8381,-2.8288,-2.8242,-2.7857,-2.7303,-2.6611,-2.5872,-2.5318,-2.4656,-2.4333,-2.4302,-2.4302,-2.4302,-2.4302,-2.4302,-2.4302,-2.4302,-2.4302,-2.4302,-2.4302,-2.4302,-2.4302,-2.4302,-2.4302,-2.4302,-2.4302,-2.4302,-2.4302,-2.4302,-2.4302,-2.4302,-2.4302,-2.4302,-2.4302,-2.4302,-2.4302,-2.4302,-2.4302,-2.4302,-2.4302,-2.4261,-2.4234,-2.4234,-2.4151,-2.3882,-2.3653,-2.348,-2.3113,-2.3024,-2.2889,-2.2156,-2.1388,-2.1046,-2.0885,-2.0799,-2.0749,-2.0699,-2.0699,-2.0699,-2.0699,-2.0699,-2.0699,-2.0699,-2.0699,-2.0699,-2.0699,-2.0699,-2.0699,-2.0699,-2.0699,-2.0699,-2.0699,-2.0699,-2.0699,-2.0699,-2.0699,-2.0699,-2.0699,-2.0699,-2.0699,-2.0699,-2.0699,-2.0699,-2.0699,-2.0699,-2.0699,-2.0699,-2.0699,-2.0699,-2.0699,-2.0699,-2.0699,-2.0699,-2.0699,-2.6826,-2.6602,-2.6782,-2.6782,-2.6916,-2.7479,-2.8008,-2.8348,-2.8411,-2.8411,-2.8411,-2.8411,-2.8411,-2.8411,-2.8411,-2.8411,-2.8411,-2.8411,-2.8411,-2.8365,-2.8211,-2.8027,-2.7842,-2.7642,-2.7242,-2.6657,-2.6041,-2.5564,-2.5226,-2.461,-2.4302,-2.4302,-2.4302,-2.4302,-2.4302,-2.4302,-2.4302,-2.4302,-2.4302,-2.4302,-2.4302,-2.4302,-2.4302,-2.4302,-2.4302,-2.4302,-2.4302,-2.4302,-2.4302,-2.4302,-2.4302,-2.4302,-2.4302,-2.4302,-2.4302,-2.4302,-2.4302,-2.4302,-2.4302,-2.4302,-2.4302,-2.4302,-2.4276,-2.425,-2.4166,-2.394,-2.3653,-2.3436,-2.3201,-2.2979,-2.2618,-2.1935,-2.134,-2.1095,-2.0885,-2.0749,-2.0699,-2.0699,-2.0699,-2.0699,-2.0699,-2.0699,-2.0699,-2.0699,-2.0699,-2.0699,-2.0699,-2.0699,-2.0699,-2.0699,-2.0699,-2.0699,-2.0699,-2.0699,-2.0699,-2.0699,-2.0699,-2.0699,-2.0699,-2.0699,-2.0699,-2.0699,-2.0699,-2.0699,-2.0699,-2.0699,-2.0699,-2.0699,-2.0699,-2.0699,-2.0699,-2.0699,-2.0699,-2.0699,-2.0699,-2.6108,-2.5797,-2.6176,-2.6534,-2.6953,-2.753,-2.8024,-2.8348,-2.8411,-2.8411,-2.8411,-2.8411,-2.8411,-2.8411,-2.8411,-2.8396,-2.8396,-2.8057,-2.7934,-2.7888,-2.778,-2.7365,-2.7088,-2.6934,-2.6549,-2.5995,-2.5564,-2.5195,-2.4918,-2.4625,-2.4302,-2.4302,-2.4302,-2.4302,-2.4302,-2.4302,-2.4302,-2.4302,-2.4302,-2.4302,-2.4302,-2.4302,-2.4302,-2.4302,-2.4302,-2.4302,-2.4302,-2.4302,-2.4302,-2.4302,-2.4302,-2.4302,-2.4302,-2.4302,-2.4302,-2.4302,-2.4302,-2.4302,-2.4302,-2.4302,-2.4261,-2.4261,-2.4276,-2.4151,-2.4067,-2.3839,-2.3653,-2.348,-2.3157,-2.2799,-2.2342,-2.1888,-2.1471,-2.1095,-2.0898,-2.0699,-2.0699,-2.0699,-2.0699,-2.0699,-2.0699,-2.0699,-2.0699,-2.0699,-2.0699,-2.0699,-2.0699,-2.0699,-2.0699,-2.0699,-2.0699,-2.0699,-2.0699,-2.0699,-2.0699,-2.0699,-2.0699,-2.0699,-2.0699,-2.0699,-2.0699,-2.0699,-2.0699,-2.0699,-2.0699,-2.0699,-2.0699,-2.0699,-2.0699,-2.0699,-2.0699,-2.0699,-2.0699,-2.0699,-2.0649,-2.5439,-2.4721,-2.5865,-2.6602,-2.7348,-2.7745,-2.8091,-2.8286,-2.8317,-2.8411,-2.8411,-2.8411,-2.8411,-2.8411,-2.8411,-2.8304,-2.8104,-2.7734,-2.7442,-2.7319,-2.6919,-2.6549,-2.6364,-2.6226,-2.5857,-2.5456,-2.5133,-2.4841,-2.4487,-2.4302,-2.4302,-2.4302,-2.4302,-2.4302,-2.4302,-2.4302,-2.4302,-2.4302,-2.4302,-2.4302,-2.4302,-2.4302,-2.4302,-2.4302,-2.4302,-2.4302,-2.4302,-2.4302,-2.4302,-2.4302,-2.4302,-2.4302,-2.4302,-2.4302,-2.4302,-2.4302,-2.4302,-2.4302,-2.4302,-2.4302,-2.4276,-2.4234,-2.4223,-2.4082,-2.394,-2.3882,-2.3696,-2.3523,-2.3201,-2.2785,-2.2328,-2.1827,-2.1361,-2.1046,-2.0848,-2.0749,-2.0699,-2.0699,-2.0699,-2.0699,-2.0699,-2.0699,-2.0699,-2.0699,-2.0699,-2.0699,-2.0699,-2.0699,-2.0699,-2.0699,-2.0699,-2.0699,-2.0699,-2.0699,-2.0699,-2.0699,-2.0699,-2.0699,-2.0699,-2.0699,-2.0699,-2.0699,-2.0699,-2.0699,-2.0699,-2.0699,-2.0699,-2.0699,-2.0699,-2.0699,-2.0699,-2.0649,-2.0649,-2.0649,-2.0599,-2.4624,-2.4408,-2.4878,-2.5412,-2.6094,-2.6782,-2.7015,-2.7037,-2.7987,-2.8286,-2.8396,-2.8381,-2.8365,-2.8319,-2.8242,-2.8057,-2.7596,-2.7257,-2.7057,-2.6718,-2.6287,-2.5841,-2.5656,-2.5549,-2.5136,-2.4748,-2.4518,-2.4533,-2.4364,-2.4302,-2.4302,-2.4302,-2.4302,-2.4302,-2.4302,-2.4302,-2.4302,-2.4302,-2.4302,-2.4302,-2.4302,-2.4302,-2.4302,-2.4302,-2.4302,-2.4302,-2.4302,-2.4302,-2.4302,-2.4302,-2.4302,-2.4302,-2.4302,-2.4302,-2.4302,-2.4302,-2.4302,-2.4302,-2.4276,-2.4276,-2.4234,-2.4208,-2.4166,-2.4024,-2.3882,-2.3839,-2.3739,-2.3508,-2.3246,-2.2785,-2.2282,-2.1732,-2.1264,-2.1033,-2.0799,-2.0749,-2.0699,-2.0699,-2.0699,-2.0699,-2.0699,-2.0699,-2.0699,-2.0699,-2.0699,-2.0699,-2.0699,-2.0699,-2.0699,-2.0699,-2.0699,-2.0699,-2.0699,-2.0699,-2.0699,-2.0699,-2.0699,-2.0699,-2.0699,-2.0699,-2.0699,-2.0699,-2.0699,-2.0699,-2.0699,-2.0699,-2.0699,-2.0699,-2.0699,-2.0662,-2.0612,-2.0612,-2.0498,-2.0448,-2.0448,-2.3795,-2.3866,-2.4262,-2.4641,-2.4998,-2.5581,-2.5769,-2.5923,-2.6576,-2.6823,-2.6995,-2.759,-2.795,-2.7842,-2.7673,-2.7426,-2.6919,-2.658,-2.6241,-2.5933,-2.561,-2.5195,-2.4979,-2.4918,-2.4718,-2.4364,-2.4317,-2.4333,-2.4302,-2.4302,-2.4302,-2.4302,-2.4302,-2.4302,-2.4302,-2.4302,-2.4302,-2.4302,-2.4302,-2.4302,-2.4302,-2.4302,-2.4302,-2.4302,-2.4302,-2.4302,-2.4302,-2.4302,-2.4302,-2.4302,-2.4302,-2.4302,-2.4302,-2.4302,-2.4302,-2.4302,-2.4302,-2.4302,-2.4276,-2.425,-2.4208,-2.4124,-2.4024,-2.3882,-2.3739,-2.3696,-2.348,-2.329,-2.3113,-2.274,-2.2049,-2.1458,-2.1118,-2.0898,-2.0799,-2.0699,-2.0699,-2.0699,-2.0699,-2.0699,-2.0699,-2.0699,-2.0699,-2.0699,-2.0699,-2.0699,-2.0699,-2.0699,-2.0699,-2.0699,-2.0699,-2.0699,-2.0699,-2.0699,-2.0699,-2.0699,-2.0699,-2.0699,-2.0699,-2.0699,-2.0699,-2.0699,-2.0699,-2.0699,-2.0699,-2.0699,-2.0699,-2.0699,-2.0649,-2.0612,-2.0575,-2.0474,-2.036,-2.0246,-2.0246,-2.3162,-2.3273,-2.3865,-2.4047,-2.4053,-2.4426,-2.4615,-2.4655,-2.4825,-2.4859,-2.5018,-2.6316,-2.6933,-2.6934,-2.6718,-2.6441,-2.6164,-2.5887,-2.5487,-2.5087,-2.4671,-2.461,-2.4533,-2.4364,-2.4348,-2.4348,-2.4317,-2.4302,-2.4302,-2.4302,-2.4302,-2.4302,-2.4302,-2.4302,-2.4302,-2.4302,-2.4302,-2.4302,-2.4302,-2.4302,-2.4302,-2.4302,-2.4302,-2.4302,-2.4302,-2.4302,-2.4302,-2.4302,-2.4302,-2.4302,-2.4302,-2.4302,-2.4302,-2.4302,-2.4302,-2.4302,-2.4276,-2.425,-2.4223,-2.4181,-2.4024,-2.3882,-2.3839,-2.3739,-2.3638,-2.3465,-2.3246,-2.2965,-2.283,-2.2466,-2.1779,-2.1264,-2.0983,-2.0785,-2.0749,-2.0699,-2.0699,-2.0699,-2.0699,-2.0699,-2.0699,-2.0699,-2.0699,-2.0699,-2.0699,-2.0699,-2.0699,-2.0699,-2.0699,-2.0699,-2.0699,-2.0699,-2.0699,-2.0699,-2.0699,-2.0699,-2.0699,-2.0699,-2.0699,-2.0699,-2.0699,-2.0699,-2.0699,-2.0699,-2.0699,-2.0699,-2.0649,-2.0649,-2.0612,-2.0524,-2.036,-2.0309,-2.0195,-2.0093,-2.0029,-2.2829,-2.3085,-2.3192,-2.3256,-2.3278,-2.378,-2.3744,-2.3329,-2.4253,-2.4467,-2.409,-2.4279,-2.5025,-2.5937,-2.6336,-2.6149,-2.5518,-2.5241,-2.4887,-2.4487,-2.4394,-2.4333,-2.4302,-2.4302,-2.4302,-2.4302,-2.4302,-2.4302,-2.4276,-2.4276,-2.4302,-2.4302,-2.4302,-2.4302,-2.4302,-2.4302,-2.4302,-2.4302,-2.4302,-2.4302,-2.4302,-2.4302,-2.4302,-2.4302,-2.4302,-2.4302,-2.4302,-2.4302,-2.4302,-2.4302,-2.4302,-2.4302,-2.4302,-2.4302,-2.4302,-2.4276,-2.4234,-2.4208,-2.4166,-2.4082,-2.3925,-2.3797,-2.3739,-2.3739,-2.3508,-2.3246,-2.292,-2.2452,-2.2221,-2.2016,-2.1458,-2.1033,-2.0749,-2.0749,-2.0699,-2.0699,-2.0699,-2.0699,-2.0699,-2.0699,-2.0699,-2.0699,-2.0699,-2.0699,-2.0699,-2.0699,-2.0699,-2.0699,-2.0699,-2.0699,-2.0699,-2.0699,-2.0699,-2.0699,-2.0699,-2.0699,-2.0699,-2.0699,-2.0699,-2.0699,-2.0699,-2.0699,-2.0699,-2.0699,-2.0699,-2.0699,-2.0649,-2.0649,-2.0562,-2.0474,-2.0207,-2.0042,-2.0042,-1.9978,-1.9926]}]]